GFSSW_850_rhum_000.txt.gz
RH
41 45 52 55 58 66 72 76 80 85 86 87 88 84 86 84 91 87 80 42 42 82 79 71 70 63 58 55 51 41 55 60 46 38 31 26 38 31 30 28 23 22 22 23 21
44 48 49 50 55 80 82 80 79 75 74 77 72 75 87 90 94 96 69 51 40 69 86 77 74 72 63 59 49 47 65 56 42 32 30 33 39 36 32 28 24 22 22 22 20
80 60 55 54 62 76 80 80 78 68 74 77 75 79 85 90 99 89 63 53 38 49 89 80 76 73 63 56 50 50 60 49 41 35 33 42 41 36 31 34 25 22 21 20 20
68 84 64 64 63 62 71 82 79 75 70 77 82 83 85 98 91 96 57 44 41 38 90 80 73 68 66 65 49 53 46 44 41 38 40 45 42 38 33 28 22 22 22 22 20
59 67 72 64 72 70 66 67 68 76 72 70 72 80 96 100 86 65 86 90 65 56 86 89 74 64 69 62 56 60 53 48 44 44 46 42 40 38 32 26 23 23 23 22 20
69 73 71 64 62 62 63 61 64 75 71 64 68 84 96 97 70 55 71 84 96 84 74 76 70 59 57 57 59 53 50 48 48 44 42 38 38 34 30 25 24 24 22 20 20
78 90 89 82 74 63 63 60 58 71 78 73 74 87 99 80 62 59 57 58 85 91 70 70 68 58 53 58 52 50 54 51 43 39 42 35 41 40 29 27 25 22 22 21 18
71 86 91 94 93 83 71 74 66 57 69 76 80 83 98 82 58 66 78 58 66 85 70 76 70 62 58 50 47 50 45 59 44 36 34 35 37 33 24 27 25 22 25 24 23
64 72 83 93 97 98 84 78 83 72 61 81 92 94 88 77 65 60 72 79 82 82 79 81 74 70 58 60 53 46 57 56 48 35 37 39 47 31 27 25 24 24 30 31 28
79 71 82 93 98 99 94 88 88 85 82 88 96 97 78 87 71 58 51 88 94 82 96 99 81 79 79 79 87 65 55 52 54 37 38 40 44 33 30 26 25 25 34 34 30
61 81 95 98 90 96 99 100 95 86 90 90 82 83 78 72 75 64 50 81 95 78 93 94 92 95 82 70 61 59 52 61 45 36 36 42 45 37 31 28 27 31 39 39 34
57 82 97 100 99 99 99 99 72 68 94 74 91 90 66 86 88 67 58 84 89 75 78 94 90 69 72 70 62 48 50 52 50 39 38 42 42 37 36 28 26 35 42 41 37
56 74 98 100 99 100 98 87 74 76 85 94 79 89 89 77 82 78 65 76 84 63 83 78 82 62 68 67 63 53 57 56 58 46 41 45 47 41 29 31 34 38 42 42 36
59 62 99 100 99 98 100 98 90 78 100 96 87 77 79 83 82 68 65 68 76 67 74 86 75 75 69 80 69 88 51 45 45 49 59 42 63 47 32 37 44 42 44 43 40
63 65 92 100 90 99 97 99 93 99 96 77 82 65 63 84 71 83 44 62 87 74 75 86 88 91 79 70 69 72 46 48 44 50 48 46 55 49 35 42 45 49 44 45 43
57 62 85 99 88 98 96 99 98 100 95 93 79 79 83 74 72 77 76 70 66 69 64 67 64 74 80 68 58 50 48 44 52 53 67 52 50 53 42 40 43 44 42 46 43
60 63 70 82 98 92 98 100 99 99 86 93 84 75 75 83 80 78 81 89 83 91 88 66 82 58 57 55 45 49 49 77 65 70 72 49 56 49 34 33 38 45 39 45 45
62 60 66 85 100 85 95 94 100 98 84 71 80 72 84 71 80 75 88 94 86 60 71 86 95 57 39 60 69 58 55 69 71 74 63 54 57 40 35 44 34 34 33 44 46
55 52 82 82 100 91 94 100 99 78 76 80 76 78 90 72 87 87 86 88 75 57 65 81 77 37 33 35 54 56 54 46 61 60 72 62 48 38 42 49 48 42 38 46 45
60 71 89 88 100 97 96 99 95 69 71 67 81 78 97 81 92 93 91 73 73 56 47 56 57 43 34 28 30 43 42 53 63 66 70 62 51 50 34 41 51 54 46 46 45
85 83 98 100 100 99 99 95 85 65 64 67 80 86 77 84 89 91 88 76 58 54 45 46 50 54 39 44 43 39 45 52 55 63 64 65 51 40 35 39 53 52 42 45 45
80 88 100 99 99 94 94 94 66 72 79 75 64 64 70 77 78 88 88 69 52 62 63 50 60 60 49 45 40 36 41 45 62 57 63 61 53 35 42 42 48 47 43 42 42
76 100 100 100 99 99 95 86 73 79 84 82 67 60 54 66 81 78 88 65 60 60 64 59 65 82 68 55 54 47 44 43 52 56 64 60 52 35 41 45 43 42 39 38 41
82 89 100 100 100 88 94 88 92 94 93 72 64 61 57 68 71 85 87 62 59 57 52 46 63 62 72 54 60 62 52 48 46 62 60 58 42 33 37 40 40 38 38 38 42
76 66 71 94 91 75 72 89 95 93 81 63 66 57 63 76 77 84 69 64 53 54 52 50 56 50 47 54 55 55 55 54 51 46 53 46 49 34 34 35 35 35 41 44 50
67 68 69 72 58 60 64 80 75 64 68 67 78 67 57 65 62 81 69 65 62 51 49 52 55 42 40 41 36 43 48 57 51 51 43 52 48 34 42 43 48 46 44 46 52
59 61 57 66 59 55 60 65 61 56 59 63 64 64 58 53 50 55 52 54 55 50 51 44 46 48 51 44 40 38 42 64 54 47 51 57 42 41 54 52 45 42 40 42 44

GFSSW_850_rhum_003.txt.gz
RH
39 37 38 44 51 57 65 68 71 80 84 88 92 90 85 87 91 88 80 57 48 74 88 78 70 71 69 60 56 43 52 57 48 42 37 26 38 35 35 33 28 24 22 25 22
35 36 43 43 41 49 54 59 59 66 74 88 89 89 81 93 93 94 75 64 57 38 75 95 78 74 72 61 59 49 62 55 43 37 33 30 40 39 37 35 29 24 22 22 22
40 45 47 47 49 52 63 75 74 68 71 71 75 81 86 92 100 98 67 61 54 49 43 99 90 83 76 63 57 54 58 51 44 39 37 40 45 40 36 39 28 24 22 22 21
60 51 47 55 63 66 63 67 77 82 74 66 72 80 87 97 91 87 67 52 47 58 52 96 96 86 75 67 54 57 50 46 42 40 43 46 45 44 39 32 27 28 25 24 22
63 63 57 62 63 78 73 66 66 72 71 68 68 80 98 100 90 80 82 71 75 99 76 89 97 77 75 66 59 58 53 49 44 46 49 48 49 44 38 36 31 24 25 24 22
61 67 70 72 69 72 66 66 65 64 71 74 69 81 94 97 80 70 71 74 85 97 88 75 84 69 69 62 60 56 50 47 48 47 48 44 44 41 36 36 33 29 25 22 19
59 76 84 85 92 87 68 62 61 62 70 75 75 77 98 91 66 59 58 62 70 93 95 72 80 65 58 63 56 54 60 55 52 46 44 40 45 44 30 30 32 29 24 23 24
70 86 81 84 93 96 91 80 82 59 63 78 86 92 94 89 71 62 65 64 62 63 80 80 89 73 58 55 56 60 53 71 54 39 37 36 46 32 27 33 28 25 28 32 35
49 66 62 63 72 91 99 90 76 82 78 77 89 91 93 74 64 56 62 78 69 63 74 77 91 81 62 62 61 59 81 68 60 44 44 41 42 35 27 27 27 26 32 36 37
51 80 75 82 91 87 98 100 85 98 96 84 91 92 83 90 77 70 58 66 86 89 99 90 100 87 75 76 91 70 66 55 55 42 42 42 43 34 31 29 27 28 36 36 38
50 72 73 84 97 99 99 100 99 100 98 79 84 71 81 76 80 71 63 65 89 97 86 89 89 95 76 71 61 55 53 52 56 40 39 43 42 35 32 31 32 35 42 40 40
45 51 72 72 94 100 99 100 87 79 89 78 80 88 76 84 91 78 65 71 92 87 72 81 92 74 71 72 61 59 59 59 51 42 40 44 42 35 37 34 28 36 45 41 41
46 55 72 74 97 98 98 94 96 85 87 93 75 96 88 77 86 75 75 70 81 67 73 79 79 61 68 82 74 63 63 60 60 49 43 46 44 40 32 32 37 42 41 40 38
47 57 83 89 92 100 99 99 98 97 100 90 95 78 85 75 81 70 73 69 74 64 62 85 73 69 73 76 72 84 51 52 50 58 65 42 53 46 36 36 46 51 47 43 44
49 56 73 84 96 95 96 100 100 96 97 82 88 72 73 67 67 79 66 66 79 63 64 89 84 76 82 74 68 75 60 59 51 53 50 49 50 43 37 39 45 50 52 48 45
55 54 77 83 94 89 97 100 96 99 96 98 84 90 86 76 63 78 76 68 67 59 55 89 72 74 69 66 64 49 57 62 52 50 61 51 47 47 40 34 45 47 50 51 47
67 69 94 89 98 97 99 97 100 98 91 98 94 85 75 86 77 77 78 81 94 89 82 89 86 84 84 65 55 51 71 98 96 74 64 53 54 43 38 34 37 42 46 50 46
86 87 98 97 96 100 93 97 99 83 87 73 78 78 79 74 84 77 78 88 86 78 71 97 99 73 77 80 73 74 72 78 76 69 59 56 56 36 33 38 36 37 40 47 47
92 78 99 98 97 99 95 100 89 84 78 78 77 81 77 71 80 82 82 74 78 85 64 79 84 52 56 51 58 78 80 48 62 63 68 62 50 38 37 44 47 45 42 48 48
80 100 98 100 100 100 98 99 93 87 70 62 75 70 80 76 98 78 83 60 76 72 61 69 69 52 35 40 35 56 46 74 59 66 71 64 55 48 35 37 52 51 50 51 50
86 100 99 100 100 96 100 97 90 83 56 62 75 92 67 86 95 87 78 78 76 70 60 52 58 58 39 44 48 52 75 57 53 61 64 60 48 40 36 36 47 50 47 47 47
88 94 100 100 98 92 96 88 81 68 64 72 70 74 83 73 82 80 86 75 70 61 58 47 60 66 49 48 40 40 48 49 57 60 63 58 51 34 41 44 48 48 42 42 44
87 99 100 100 98 96 91 91 87 78 76 78 70 63 69 80 92 81 80 64 66 60 64 54 65 77 62 54 57 49 42 44 52 54 62 58 50 35 43 48 48 45 40 42 46
92 98 100 100 99 99 96 92 91 81 81 80 62 58 66 75 72 90 83 69 64 55 50 45 63 69 71 63 61 64 53 49 44 57 58 54 42 34 36 45 46 42 40 40 42
84 88 94 97 97 96 94 90 91 91 92 87 77 63 62 84 86 89 87 66 61 61 54 48 57 52 50 51 52 54 54 51 50 43 47 45 49 40 35 44 41 34 35 38 46
85 78 79 75 65 98 92 98 89 94 93 83 73 62 61 74 75 89 77 69 64 53 56 54 56 45 45 48 48 56 55 51 48 50 50 48 50 39 44 42 48 48 45 46 48
69 66 66 63 60 64 72 90 92 86 87 64 63 57 63 58 56 59 53 54 55 54 55 57 50 53 57 44 40 45 46 60 51 54 44 53 40 46 56 55 50 49 48 49 50

GFSSW_850_rhum_006.txt.gz
RH
32 32 34 36 39 44 62 76 88 90 98 96 93 91 90 90 93 93 98 67 54 50 70 65 68 72 81 66 57 46 39 39 35 35 28 23 28 31 34 31 24 24 23 26 22
37 36 37 43 43 38 40 46 53 59 64 73 87 89 90 93 96 99 77 67 62 55 82 90 75 80 70 61 57 44 42 36 30 27 28 28 33 35 34 27 24 21 23 25 25
51 52 43 47 44 46 50 50 60 66 59 59 68 83 87 91 100 95 70 62 61 67 64 83 99 84 67 57 52 45 43 31 34 33 32 34 35 37 36 32 25 24 22 25 26
56 56 51 44 46 50 52 54 58 76 81 69 68 73 82 93 82 95 91 67 61 81 96 74 94 88 72 60 49 48 42 35 35 38 39 36 37 38 37 36 32 32 31 28 26
59 57 49 47 57 52 51 56 57 74 79 75 64 74 88 99 87 83 77 73 63 96 99 74 90 73 67 57 48 49 37 41 39 41 41 42 41 38 38 35 34 34 32 28 26
58 61 65 69 74 73 58 57 64 62 69 68 69 73 97 90 83 72 68 66 72 90 97 78 81 65 50 51 51 45 43 40 38 41 41 42 38 40 33 31 30 29 30 30 24
54 61 65 74 76 83 76 69 56 62 64 74 83 81 99 82 69 58 59 66 58 74 85 81 78 83 55 55 54 46 49 42 40 42 39 41 39 33 30 25 27 26 28 33 26
43 85 70 71 79 84 81 81 78 63 62 82 91 89 86 80 68 72 66 70 71 69 80 81 85 99 97 53 53 55 51 53 36 40 39 37 40 26 26 25 24 25 32 41 39
43 72 64 74 74 72 72 88 94 73 77 81 92 97 78 78 79 64 71 72 81 69 70 84 93 97 80 73 67 58 61 53 41 38 37 38 36 23 26 26 24 23 32 38 43
43 54 85 78 77 87 88 84 96 93 98 97 87 91 81 79 80 80 73 68 74 79 82 89 90 96 85 80 82 63 56 44 46 36 35 35 37 26 24 26 24 24 33 38 41
42 54 64 70 79 87 99 90 100 100 100 90 80 66 75 75 76 84 74 74 78 82 85 69 91 95 70 73 48 38 43 48 39 33 38 38 36 28 27 27 25 26 32 37 42
41 49 58 70 80 80 100 100 91 88 98 92 88 77 79 85 79 77 83 68 72 84 83 68 93 67 76 62 57 44 48 48 35 36 36 38 40 33 26 25 25 27 32 38 44
42 48 55 75 76 84 99 100 97 97 95 95 94 89 80 83 74 71 80 63 63 80 89 80 77 61 82 62 60 50 50 42 42 43 41 38 38 31 25 26 29 29 34 38 41
47 49 74 88 89 96 100 97 97 99 100 90 94 88 90 78 73 66 73 58 64 80 88 59 58 81 75 70 58 57 43 45 51 63 57 38 46 32 24 26 29 35 39 41 45
63 53 81 81 97 98 93 98 100 98 95 67 85 79 76 66 55 68 76 58 63 80 83 77 81 89 84 68 48 49 47 49 54 60 55 47 45 30 28 27 31 34 38 43 47
97 73 61 80 88 98 100 96 98 96 92 94 86 87 81 68 55 70 78 61 64 69 65 52 88 80 56 54 50 48 49 52 46 52 64 41 41 31 24 22 26 34 40 46 51
100 100 83 81 96 94 100 98 100 97 85 99 98 94 76 68 56 66 74 74 94 98 99 81 90 90 55 80 63 50 61 98 92 83 60 38 41 28 24 24 24 33 40 45 52
100 100 98 98 93 98 100 98 99 84 95 84 86 91 84 61 56 70 65 64 72 86 66 99 99 96 63 63 81 62 53 53 63 59 46 43 42 25 25 27 26 28 37 45 52
100 100 99 97 97 99 98 100 84 92 86 95 76 90 68 60 55 78 58 55 70 76 76 96 99 80 67 60 55 85 81 39 44 46 44 37 34 28 28 30 31 30 38 46 52
99 98 98 98 98 100 99 99 95 84 84 60 59 54 59 57 90 81 55 40 58 63 61 63 96 70 67 68 63 64 51 69 50 58 54 40 39 30 25 27 32 31 38 46 53
98 99 95 100 100 98 100 99 90 81 74 46 48 52 48 53 85 61 52 49 46 51 57 53 54 74 60 75 76 65 83 66 44 43 42 40 33 24 26 26 29 29 35 45 54
92 98 100 99 97 92 98 93 88 85 76 39 40 40 39 48 69 86 51 57 37 52 64 57 40 85 65 46 43 47 52 50 56 53 43 39 32 25 26 29 31 31 36 46 50
92 99 100 99 97 96 86 89 86 84 65 45 54 46 40 49 74 73 57 40 46 57 56 43 44 63 75 58 46 56 48 49 38 37 43 43 35 26 30 34 38 35 40 46 52
92 95 100 100 97 96 94 91 93 75 56 55 54 53 54 54 45 57 60 59 62 51 55 43 44 38 51 47 42 53 46 47 48 50 41 37 30 28 30 35 37 37 38 44 52
78 82 80 91 95 96 95 89 88 89 73 79 61 56 46 61 70 65 56 70 58 62 58 52 47 44 44 42 39 42 48 43 46 42 43 35 35 27 24 31 32 36 38 40 48
76 80 90 75 83 90 96 94 90 93 83 88 92 56 49 55 58 70 70 64 68 63 58 49 53 40 44 48 41 42 40 44 44 40 35 32 33 25 26 31 34 34 37 42 49
86 69 75 56 57 80 88 92 89 84 95 90 74 57 57 54 46 52 55 50 50 57 61 52 47 46 49 41 42 52 42 41 38 33 32 38 30 29 36 34 35 40 45 48 53

GFSSW_850_rhum_009.txt.gz
RH
35 35 34 34 35 36 41 73 84 91 99 99 90 95 94 94 98 96 96 77 69 58 50 74 66 69 68 60 50 43 39 39 31 28 25 21 23 23 27 26 23 21 21 22 27
39 41 44 41 44 43 37 35 49 75 82 81 88 95 90 96 98 100 87 71 68 68 78 65 58 53 63 56 49 43 40 34 24 22 24 22 25 28 29 25 23 21 20 22 23
44 54 55 48 46 45 42 43 37 37 42 48 54 67 86 96 100 90 79 66 61 67 84 71 66 76 54 52 46 42 43 28 26 25 27 26 28 28 30 30 26 22 22 24 25
43 60 59 51 52 57 53 49 45 48 65 73 61 64 71 90 66 84 63 65 62 79 91 72 61 79 60 54 45 43 36 33 28 28 32 31 29 29 31 30 29 30 29 29 27
41 63 60 50 59 66 59 54 54 50 64 85 77 68 84 97 79 72 74 70 76 95 91 72 54 56 64 47 49 45 34 32 33 30 32 34 32 32 32 31 30 28 28 29 27
41 54 61 63 70 75 75 64 61 58 54 71 69 69 93 76 66 73 74 76 71 75 90 80 57 48 46 46 45 43 38 36 32 33 32 34 32 31 30 30 27 26 24 26 27
40 41 58 63 78 88 84 79 66 50 55 57 81 86 90 70 63 68 69 66 64 62 65 76 66 53 49 55 41 42 44 37 34 32 30 33 36 33 30 28 22 19 20 27 35
65 40 65 80 80 83 86 86 82 65 50 58 75 98 97 73 72 72 69 65 62 61 61 63 68 60 65 74 60 44 50 64 37 32 31 36 45 25 23 22 19 20 23 31 38
85 50 45 78 74 83 72 75 90 90 69 69 84 99 77 74 76 66 66 60 56 64 60 60 69 70 73 96 85 65 66 59 45 29 32 36 38 24 23 22 21 19 22 28 35
87 60 44 67 71 79 81 96 90 99 89 96 96 90 72 70 66 70 69 67 59 59 59 59 73 78 77 84 91 68 68 45 50 31 33 36 36 28 24 22 22 19 20 28 32
75 62 44 57 74 87 93 94 98 99 100 93 82 62 60 61 71 77 67 70 64 57 66 59 84 87 67 60 69 51 57 45 38 29 32 36 34 26 24 24 23 20 22 27 33
60 46 44 60 68 84 98 99 95 90 98 96 81 78 67 75 68 72 67 64 58 65 53 71 90 56 46 57 64 59 50 43 35 32 34 32 33 26 24 25 24 20 21 27 36
52 43 46 59 72 83 98 78 99 98 98 98 94 87 70 79 65 59 67 61 48 58 56 76 72 49 46 66 76 63 65 44 43 36 34 35 41 35 28 25 24 23 22 28 33
72 48 50 68 84 85 99 90 100 100 100 88 97 97 90 95 88 68 64 58 51 56 52 66 58 71 50 67 79 72 54 37 40 46 51 36 41 25 24 24 24 22 25 30 33
97 64 55 69 94 99 96 96 98 99 96 66 95 93 95 93 54 54 54 61 59 56 87 78 74 81 63 71 71 72 46 40 45 46 59 55 49 30 23 24 25 22 27 32 36
100 99 70 84 84 99 88 100 100 98 92 89 86 92 86 95 63 52 52 56 52 55 88 60 65 67 58 63 81 63 52 55 50 50 62 41 42 29 26 23 21 24 30 35 39
100 100 99 90 89 95 98 100 99 97 80 98 98 94 90 94 73 58 65 72 90 98 99 87 95 84 75 94 92 72 77 92 79 76 52 31 37 29 21 20 19 26 31 36 41
100 100 98 95 97 98 100 98 98 68 84 91 95 96 100 82 63 54 65 73 64 78 98 99 97 90 72 92 92 83 76 56 63 57 44 34 43 28 21 20 20 26 31 37 43
100 100 100 98 99 98 98 100 90 83 89 95 95 100 100 91 43 47 58 66 53 70 100 87 91 76 84 72 65 81 77 39 41 34 37 38 30 24 23 25 23 25 31 37 42
99 100 98 100 98 100 99 95 95 78 90 86 69 59 69 69 51 54 66 55 49 51 73 91 98 88 92 75 83 70 41 56 40 50 46 36 30 29 26 25 26 24 31 37 42
100 99 97 94 100 100 97 96 91 82 85 82 49 46 40 45 47 56 54 37 39 41 71 92 95 94 92 82 87 90 68 54 36 37 38 39 32 21 22 22 26 24 29 37 43
100 96 99 98 98 93 96 95 86 84 92 65 33 34 33 34 48 53 46 35 30 41 91 79 93 100 74 46 50 63 62 45 45 48 37 36 32 20 21 24 24 24 29 36 44
92 84 100 98 98 97 79 93 89 89 83 56 42 33 28 34 47 53 48 32 37 36 74 55 67 100 94 61 64 74 50 47 42 36 39 37 33 21 23 28 28 26 29 37 45
79 97 100 100 92 90 94 94 95 80 71 47 41 32 36 39 35 49 52 39 42 36 52 49 48 49 49 45 59 73 61 45 44 46 40 35 30 25 26 28 29 29 32 38 43
84 87 80 96 94 92 92 88 95 93 73 50 61 42 43 41 41 50 47 47 42 41 47 55 50 37 31 33 40 45 52 52 51 44 43 32 31 24 22 25 27 30 34 37 43
77 60 88 85 75 80 92 92 95 86 70 74 86 48 39 39 35 41 44 46 56 54 48 50 57 41 43 40 35 40 39 42 44 42 39 32 32 22 21 21 25 28 31 35 40
96 85 74 54 59 71 76 84 86 81 88 62 73 60 48 36 33 40 37 44 45 48 60 59 62 46 48 40 43 50 37 37 38 35 34 39 31 24 27 26 26 28 32 34 38

GFSSW_850_rhum_015.txt.gz
RH
27 30 33 41 48 46 39 34 38 63 86 85 98 92 98 99 98 98 79 70 73 65 65 59 45 51 59 62 66 64 75 74 62 50 41 30 24 22 21 24 26 25 24 22 22
30 34 37 47 53 49 42 42 40 39 53 82 82 93 100 100 100 99 67 65 69 72 68 61 58 60 59 65 72 69 84 68 44 40 38 31 27 24 26 30 29 28 26 25 24
60 33 40 50 55 48 42 42 43 44 43 43 56 78 86 93 90 79 63 64 66 86 69 64 64 69 64 59 66 67 76 56 44 38 35 32 30 27 30 34 30 30 29 30 30
75 49 41 49 59 47 54 56 54 53 48 52 58 52 56 78 89 71 68 63 79 91 86 69 72 73 69 81 59 78 61 56 51 44 43 38 30 32 30 32 29 30 31 31 30
78 78 51 45 66 52 60 63 61 55 54 55 74 80 73 84 80 67 61 64 68 71 89 88 88 79 69 64 62 70 58 52 49 46 42 38 36 35 33 31 30 29 30 30 30
77 89 75 44 59 67 70 76 74 67 56 56 61 87 82 96 50 52 58 63 68 73 78 87 85 75 68 57 58 55 55 54 49 46 43 39 38 36 33 32 32 31 30 31 30
88 83 78 54 45 63 75 83 84 77 70 57 58 67 85 74 60 63 64 66 62 66 64 79 70 83 73 67 54 60 70 56 56 48 50 44 44 43 33 32 32 32 30 29 26
90 85 70 74 44 62 73 81 82 79 87 70 64 68 83 65 55 64 64 70 66 69 63 60 61 63 76 71 64 75 70 81 55 51 48 46 59 41 33 32 32 32 31 28 25
87 87 75 85 53 72 79 86 78 81 77 94 76 70 79 62 69 62 67 64 61 59 56 53 58 59 69 79 85 86 87 84 69 50 50 47 54 42 34 32 34 32 32 26 26
85 86 74 82 80 64 85 82 84 84 92 93 83 91 72 63 65 64 66 69 62 57 56 60 58 82 90 88 86 78 79 76 82 59 54 60 53 43 33 34 34 32 25 31 29
89 96 77 82 84 61 85 89 92 98 98 85 85 68 57 60 65 67 68 70 66 64 72 61 85 84 82 78 72 66 74 77 70 53 57 55 56 47 38 35 37 29 26 34 36
85 88 79 78 76 65 89 94 88 92 96 88 79 86 66 66 70 63 66 69 67 77 73 76 87 67 62 67 75 78 88 84 67 60 60 58 55 44 40 37 36 31 30 37 41
85 92 87 78 66 74 82 96 88 91 97 90 80 92 83 73 75 66 67 67 69 82 79 84 68 56 61 66 76 78 88 80 74 62 64 66 68 51 40 35 32 29 29 36 34
90 95 95 68 71 69 81 68 84 96 100 85 94 96 91 90 83 73 65 64 68 82 73 79 58 61 68 71 66 82 60 61 66 72 89 68 83 62 45 40 37 31 33 39 41
93 98 95 49 61 71 68 78 89 99 97 79 90 90 95 90 81 82 68 71 77 70 74 80 71 71 71 66 60 70 52 57 59 72 80 79 88 64 43 42 38 42 40 40 40
94 98 100 69 94 81 87 89 89 91 94 91 89 91 90 94 80 85 75 80 90 89 79 71 62 66 61 53 53 63 69 71 75 80 97 88 86 66 50 41 36 37 43 43 44
98 100 100 63 90 100 88 79 96 96 61 94 89 84 77 82 86 86 93 96 98 99 100 97 93 72 70 79 71 76 84 86 91 96 88 67 98 79 40 36 32 34 44 45 44
100 100 100 89 80 91 86 94 98 67 76 81 84 75 97 75 88 86 98 100 94 99 97 96 90 88 75 76 73 84 80 91 87 84 73 78 96 60 43 32 30 35 42 44 49
100 100 100 99 97 92 80 99 85 67 77 94 96 100 100 92 85 93 92 99 73 90 88 99 94 70 67 63 62 76 90 64 96 86 99 89 61 36 33 39 41 44 47 51 53
100 100 100 98 99 99 96 91 80 67 82 92 100 96 89 80 93 98 96 81 74 58 61 81 96 65 71 69 69 72 63 94 100 99 94 75 51 47 40 44 45 47 49 53 55
100 100 99 100 100 99 99 92 73 69 81 95 97 99 93 86 90 90 76 60 64 57 54 71 96 91 95 97 83 91 93 79 93 87 90 88 61 41 38 38 46 47 48 52 53
99 99 100 100 98 96 98 79 70 80 83 89 93 95 86 64 84 69 68 46 53 59 66 88 99 99 88 80 72 60 80 72 93 99 90 58 51 34 37 37 41 45 48 50 50
98 99 100 100 99 99 86 79 76 87 88 93 94 79 65 53 77 59 64 49 66 70 88 94 99 94 96 94 84 80 78 66 70 98 78 58 50 38 40 39 35 44 48 52 51
91 97 100 100 98 91 92 89 93 92 92 88 86 70 70 59 54 53 52 56 54 65 80 91 98 99 98 95 83 83 72 80 93 98 66 51 48 44 41 40 41 45 48 49 50
90 95 88 98 96 93 83 87 94 97 93 91 88 86 65 53 44 56 49 49 59 62 80 91 100 98 94 86 78 76 80 91 98 72 60 44 41 45 45 44 41 46 51 52 53
96 95 86 88 85 95 92 94 89 93 92 91 91 60 60 62 46 50 56 56 56 74 90 87 99 95 93 73 73 82 84 69 61 57 50 52 48 33 39 38 40 48 50 52 54
90 85 79 91 84 92 90 86 85 81 87 83 84 75 73 66 58 55 38 40 44 56 63 72 83 93 69 76 71 82 70 67 59 52 48 57 46 35 41 41 42 46 48 51 50

GFSSW_850_rhum_018.txt.gz
RH
58 31 35 40 50 54 48 40 34 41 79 84 88 88 97 100 100 91 81 71 66 62 59 56 53 54 64 64 65 71 84 87 66 57 45 33 32 28 23 22 24 24 27 26 28
82 49 38 44 57 58 51 45 40 34 37 75 80 87 98 98 96 98 68 75 75 72 69 65 54 56 62 64 62 81 93 78 58 50 46 39 32 28 28 31 30 28 28 26 26
96 76 38 47 59 57 46 45 42 40 40 36 60 78 86 92 93 80 67 65 69 81 69 68 59 70 67 62 69 79 87 64 54 45 42 42 38 34 31 36 30 29 31 28 27
95 83 61 42 56 59 50 57 54 52 49 46 49 46 50 72 89 65 68 64 64 90 85 73 66 76 71 85 69 79 68 64 59 53 53 52 42 39 33 30 28 28 29 30 32
90 81 83 56 46 65 53 62 63 58 54 53 59 75 64 80 70 67 65 63 65 86 90 88 81 81 76 68 66 77 69 62 62 60 56 52 51 46 40 35 30 29 30 28 30
87 90 82 85 48 61 62 68 71 68 59 58 60 74 80 92 48 57 69 68 67 78 82 92 85 76 78 72 69 60 59 62 58 57 54 55 51 44 40 35 33 32 31 27 26
84 90 85 78 66 48 66 72 77 78 70 64 63 65 91 72 58 57 51 60 67 70 67 81 81 88 81 74 67 62 76 67 60 57 58 52 61 58 44 38 33 32 31 30 31
81 85 90 79 74 47 63 80 82 83 80 81 67 69 68 46 53 64 65 62 68 72 68 66 69 80 72 74 70 76 76 88 57 56 54 54 74 50 40 37 36 34 32 31 32
82 82 90 87 81 56 74 76 86 74 82 89 87 67 69 55 55 49 63 67 69 71 68 64 59 60 65 85 87 86 96 83 75 53 56 60 63 46 40 40 38 34 32 32 34
83 78 84 88 78 68 78 87 92 87 82 91 98 96 77 60 54 53 62 67 63 60 59 59 60 78 89 89 92 77 91 80 75 65 61 62 62 55 43 42 39 34 33 33 33
86 87 87 91 82 81 77 100 97 96 95 95 88 77 60 63 64 61 63 68 69 67 77 64 86 87 80 81 80 83 78 84 73 60 72 68 63 52 48 48 44 36 34 34 33
86 86 92 98 82 88 71 93 83 82 94 80 80 87 70 72 72 64 66 73 73 87 76 78 88 63 64 69 81 84 92 89 70 58 63 74 74 58 47 46 43 40 38 34 33
89 81 90 92 88 88 70 88 82 83 94 87 83 98 92 79 78 72 71 72 75 84 76 77 64 59 67 75 84 83 89 83 83 66 59 58 66 62 54 45 42 40 38 35 34
94 86 94 94 99 74 87 92 80 81 92 86 92 90 89 88 81 75 67 66 72 83 75 74 65 67 70 78 76 91 70 72 73 79 87 64 86 67 54 53 47 39 40 36 39
92 99 99 93 67 63 61 78 74 96 83 70 88 92 96 84 80 80 73 69 88 84 80 86 83 80 79 70 63 77 60 66 71 81 86 74 86 64 56 58 52 42 41 36 39
100 100 100 100 58 57 66 75 99 92 90 93 86 90 90 92 83 85 80 76 96 88 76 73 66 65 63 55 60 66 68 68 74 75 96 66 72 63 68 55 48 42 39 39 46
100 100 100 87 56 64 86 98 96 94 60 96 89 89 79 82 82 81 85 96 99 99 98 98 95 76 69 70 62 65 78 91 98 97 83 58 68 61 60 53 40 38 43 45 49
100 100 100 88 74 82 97 89 90 64 81 73 76 76 87 72 91 80 93 96 87 99 100 97 98 96 73 71 78 76 74 89 91 99 72 58 82 74 52 41 37 41 36 45 54
100 100 100 90 89 96 88 99 83 68 78 77 81 92 94 86 81 87 90 90 65 91 96 97 95 72 70 60 60 86 94 61 79 80 89 84 76 64 53 45 43 40 45 58 62
100 100 99 100 88 96 96 96 75 76 84 80 88 91 88 79 88 93 86 69 72 84 72 83 97 74 75 68 68 75 62 91 95 98 96 87 93 66 50 48 54 54 56 61 68
99 98 100 100 92 99 99 97 74 81 76 85 90 95 86 87 80 80 79 72 75 75 81 79 85 91 87 96 76 85 94 75 66 75 99 81 78 60 39 42 54 53 55 66 71
100 100 100 100 98 97 100 80 66 82 78 81 84 92 93 87 93 93 86 65 62 59 88 69 89 96 86 61 64 74 71 72 80 76 70 90 74 36 44 42 53 56 57 65 69
96 98 100 98 98 98 88 79 77 84 82 90 94 87 75 84 84 78 64 48 58 58 66 75 100 97 95 88 90 98 82 68 65 89 94 97 69 42 47 55 51 53 58 66 67
92 98 100 100 90 93 86 86 88 81 77 86 89 81 84 83 65 61 62 56 61 62 81 88 100 98 90 100 87 99 80 72 70 73 72 93 78 56 48 47 57 56 60 62 61
94 95 89 94 97 85 84 81 88 94 90 90 95 93 90 88 67 67 56 59 65 78 88 94 100 100 97 94 97 73 70 73 82 79 88 70 69 46 44 42 52 56 60 64 65
96 95 83 83 86 90 88 92 85 85 89 95 97 81 86 92 55 50 55 58 71 86 90 95 98 100 99 89 94 88 72 77 76 89 93 86 94 36 47 44 56 58 59 62 64
94 82 72 86 85 94 96 89 86 76 84 82 86 90 89 80 63 53 54 45 60 78 93 97 100 100 100 89 88 97 78 75 75 79 88 98 76 43 44 43 58 60 56 57 58

GFSSW_850_rhum_021.txt.gz
RH
91 87 42 35 42 56 58 50 41 39 70 91 97 94 96 93 94 98 86 72 68 66 60 58 57 53 62 54 62 71 85 88 67 63 46 37 34 30 28 25 25 26 26 27 27
90 94 84 38 44 58 61 51 42 41 42 79 86 98 91 95 96 99 73 74 74 71 68 67 62 55 59 65 63 83 93 72 60 52 48 38 38 35 31 32 31 30 29 26 28
88 94 93 64 48 59 58 50 45 44 46 40 68 77 80 87 92 81 71 71 78 81 72 72 68 64 66 64 71 83 84 61 60 52 46 49 42 40 38 41 31 30 30 28 30
81 88 91 80 68 62 59 57 59 57 55 49 41 46 75 82 91 66 69 72 70 86 89 81 73 76 76 83 71 80 69 69 65 58 58 59 50 44 38 35 34 32 33 32 30
84 85 87 81 75 94 72 62 63 62 58 54 50 57 57 73 72 65 62 62 74 92 92 95 84 81 79 73 70 80 75 66 61 62 65 62 63 61 51 47 40 39 33 32 31
85 90 81 86 84 72 92 64 71 74 65 57 56 73 80 88 44 59 67 71 77 94 96 95 92 77 86 78 73 66 64 64 59 57 60 64 61 58 52 45 44 40 35 32 31
81 79 78 81 85 79 89 75 80 80 76 65 59 65 88 63 56 47 69 70 75 77 80 81 88 86 85 82 75 70 80 70 64 58 63 55 65 65 55 52 50 45 37 33 32
82 79 86 92 86 74 55 72 85 91 86 80 68 71 66 47 52 64 57 61 62 73 72 68 79 89 94 74 72 76 80 92 58 62 58 58 70 54 48 47 48 44 39 35 32
80 75 77 84 95 76 60 66 87 86 77 82 86 77 72 58 53 48 63 67 66 69 75 70 66 62 65 83 84 85 92 86 73 58 59 67 66 50 43 45 46 42 39 36 34
88 77 83 77 95 79 63 78 90 93 81 92 99 91 73 61 57 53 56 65 66 69 69 64 63 77 82 89 85 82 98 87 80 62 63 72 69 58 49 49 50 46 41 39 37
99 82 90 78 84 86 65 100 100 96 96 91 87 79 63 68 64 64 57 66 69 66 77 68 87 92 76 86 85 91 92 88 75 62 72 77 74 64 57 53 51 51 46 41 38
100 89 96 92 93 90 73 97 83 81 93 82 88 90 73 74 73 66 68 69 76 90 79 81 95 75 66 72 78 85 89 86 75 66 67 69 71 60 54 56 53 48 47 43 41
96 99 96 96 99 99 93 72 89 85 87 76 86 97 94 80 81 73 71 72 80 93 91 89 67 60 66 74 81 86 91 76 81 69 66 67 59 43 41 46 50 51 45 42 40
89 100 100 99 100 100 100 83 81 82 95 78 94 88 88 83 81 73 68 67 73 88 84 86 66 64 70 78 78 85 72 74 77 85 89 65 75 54 51 51 52 47 47 45 41
90 98 100 100 97 99 80 74 84 83 86 71 91 94 95 85 78 81 74 70 75 83 87 88 91 76 79 73 69 73 62 76 81 90 93 79 92 67 50 48 48 56 48 43 41
98 93 99 100 95 78 80 63 87 89 93 87 90 88 91 89 82 82 79 76 87 84 78 76 70 73 74 61 63 64 72 77 76 86 93 69 82 57 41 48 54 55 48 44 38
100 92 100 89 88 71 63 87 97 96 63 93 80 87 81 85 83 83 90 93 93 99 96 98 96 80 74 78 64 71 88 97 97 95 83 62 74 59 42 50 46 46 44 39 40
88 89 98 94 91 71 70 91 88 67 89 72 81 87 91 78 79 80 86 90 85 98 100 98 98 97 81 79 79 83 87 94 90 93 82 47 60 51 46 35 32 38 41 40 45
90 85 99 100 86 71 84 99 83 67 79 77 70 89 88 74 77 88 88 76 72 86 94 96 94 90 83 68 79 100 98 72 85 84 95 80 70 65 50 55 52 42 40 44 50
98 99 100 100 79 94 89 86 76 76 75 69 87 77 78 80 88 86 77 74 78 68 66 81 97 79 80 70 80 90 68 96 99 96 94 76 84 62 63 58 40 56 52 53 57
100 99 99 99 83 98 98 93 78 80 74 82 84 84 72 82 82 83 72 69 73 78 74 77 90 86 94 95 87 91 95 92 74 85 91 90 73 74 59 51 52 55 49 56 63
97 100 100 100 97 95 100 86 67 90 80 80 78 74 86 80 83 85 93 74 67 83 88 73 92 96 79 69 62 64 69 77 88 84 73 72 61 45 53 47 54 64 64 70 77
99 96 100 99 99 99 92 81 77 90 82 82 83 78 73 83 89 89 79 57 68 75 88 78 99 96 98 82 83 99 74 64 68 81 72 72 42 44 47 52 56 69 75 79 85
98 100 99 98 90 81 86 84 88 76 80 83 89 82 87 85 77 78 77 55 55 60 60 68 100 98 89 96 88 97 89 80 78 88 72 66 58 52 59 64 63 67 76 84 86
92 97 95 97 97 78 75 78 83 94 83 81 92 90 94 93 76 91 72 60 67 64 81 93 100 100 96 95 99 97 78 78 93 74 72 52 70 73 62 66 64 69 77 81 79
95 94 82 86 89 84 84 95 85 80 90 96 97 86 87 94 69 61 61 61 73 87 88 96 99 100 96 91 96 100 96 80 76 65 59 62 85 56 56 57 62 69 73 77 80
100 83 75 86 86 89 90 85 83 74 81 74 87 94 86 84 76 70 71 61 57 78 94 99 100 100 100 95 98 100 86 76 69 64 65 92 66 63 60 59 53 66 66 69 70

GFSSW_850_rhum_024.txt.gz
RH
90 90 92 88 35 40 44 54 52 49 44 86 93 80 85 94 97 97 94 78 73 69 63 62 61 57 54 56 61 70 85 91 73 66 52 38 38 33 31 30 30 27 29 27 27
100 83 92 95 75 41 52 57 52 48 47 46 92 97 95 96 100 100 90 80 77 73 68 71 65 58 55 63 65 82 96 74 64 56 49 43 42 40 36 38 35 32 29 27 26
86 92 82 93 86 46 52 59 47 46 48 44 47 82 89 100 97 83 74 78 78 83 80 80 71 64 64 66 71 84 87 63 62 57 56 54 49 44 42 49 36 34 34 32 28
78 90 80 83 89 74 47 62 55 58 56 54 50 47 79 88 82 69 70 73 74 79 99 89 80 70 76 79 69 80 75 74 68 63 66 64 60 58 48 45 37 37 39 35 40
74 78 94 83 84 82 66 70 65 63 61 58 61 77 59 80 79 68 64 66 70 86 98 99 86 76 79 76 74 83 80 69 65 62 63 63 68 72 65 57 49 42 44 40 34
87 76 84 96 84 83 77 81 65 70 70 65 63 84 83 78 45 48 68 68 79 96 100 99 93 81 81 82 74 70 71 69 63 59 59 64 62 62 57 55 52 48 44 40 39
98 88 79 88 93 78 82 75 76 77 77 71 66 72 89 61 55 55 72 76 83 98 98 98 96 86 85 86 78 76 82 76 70 62 63 55 68 71 54 51 53 50 50 42 39
100 91 84 80 90 87 82 72 77 84 85 83 85 83 69 54 50 60 62 73 76 86 72 70 83 89 95 83 71 77 80 92 65 63 59 58 71 55 43 50 54 47 46 42 38
99 100 89 90 88 95 88 68 70 88 93 77 92 88 77 64 55 49 65 60 65 64 74 74 68 68 73 85 85 77 88 86 70 56 64 75 70 53 52 51 57 54 51 45 41
86 100 96 86 94 92 88 68 79 99 84 84 99 96 73 65 59 54 52 66 69 69 74 75 67 77 82 90 92 78 86 78 72 62 69 76 75 59 51 50 55 50 48 48 44
83 97 100 88 98 98 93 91 99 99 94 76 83 79 68 70 66 64 61 63 67 67 83 71 87 95 82 82 78 91 90 90 70 59 72 72 71 62 55 59 62 56 54 50 44
84 85 99 98 98 100 91 86 84 75 90 80 81 95 78 79 75 69 66 68 76 86 77 82 96 73 70 70 76 79 87 83 65 58 74 76 73 58 54 54 54 59 55 54 49
86 82 94 96 99 100 91 69 78 81 79 76 80 91 91 85 84 75 74 71 80 93 92 90 67 65 72 78 79 77 87 84 80 67 64 70 67 42 34 37 40 43 44 45 50
93 86 94 100 100 99 99 87 83 75 92 73 96 90 90 84 77 75 67 69 79 93 90 90 70 73 77 81 80 90 72 76 82 89 88 67 80 45 42 36 39 37 43 47 43
83 89 80 99 100 100 93 92 76 65 86 72 91 96 92 75 78 84 74 70 78 82 84 82 89 92 90 73 73 75 65 78 83 91 94 83 93 67 50 52 48 60 50 47 43
82 76 77 84 100 94 82 92 71 85 95 91 90 90 92 85 77 81 81 76 84 77 78 73 72 74 74 63 65 65 75 78 81 88 94 70 89 56 44 40 37 32 36 34 32
98 62 70 94 99 97 85 78 93 94 66 87 85 80 74 83 79 81 87 95 95 100 97 94 88 80 75 83 72 75 100 97 98 97 86 66 80 60 39 38 38 35 38 32 32
92 57 63 78 99 99 79 79 91 69 87 74 78 78 83 76 76 77 86 93 83 97 100 99 92 86 85 75 80 83 86 94 93 94 82 59 71 59 46 39 36 34 37 40 40
93 84 98 82 100 91 71 85 78 71 76 82 82 94 97 76 73 81 86 88 62 79 98 99 94 86 75 74 65 98 98 73 94 95 97 82 69 52 52 46 52 45 36 36 41
99 95 76 94 98 95 77 85 74 68 73 70 85 77 85 84 85 90 77 71 70 63 70 78 96 80 82 80 77 92 78 98 98 96 94 78 72 63 52 47 54 53 56 40 36
99 94 97 99 98 95 93 83 78 78 68 76 78 85 72 77 81 84 76 65 76 78 74 71 90 87 92 96 86 98 100 100 95 96 86 77 65 57 58 57 64 59 50 46 43
99 100 99 100 98 97 94 83 75 88 80 79 73 75 79 73 79 79 83 72 66 78 86 70 95 96 81 67 65 68 78 80 88 87 85 85 59 53 64 65 64 63 66 57 53
99 95 100 90 99 99 90 85 80 90 82 79 84 74 72 87 96 81 82 64 69 81 83 74 98 98 91 85 81 100 87 69 66 80 86 87 51 28 35 51 69 76 82 84 84
95 99 99 99 94 87 84 82 95 77 75 72 77 78 87 96 89 87 86 64 72 74 70 67 98 95 92 83 96 98 94 98 91 94 72 70 58 43 43 74 76 73 87 91 89
97 100 98 100 98 77 71 80 86 93 78 78 86 84 94 99 99 96 84 75 69 66 70 84 99 94 95 92 100 100 96 100 98 78 83 57 54 43 64 71 87 79 86 95 96
93 94 98 91 85 77 81 87 79 86 86 85 93 78 90 98 79 77 82 73 65 84 88 92 97 98 97 86 96 98 97 96 88 77 73 64 63 45 62 74 83 86 84 95 93
95 96 84 88 80 93 82 87 74 76 84 75 80 91 96 89 84 79 67 64 72 74 89 98 100 100 93 99 95 100 91 90 88 72 69 86 60 46 51 79 77 68 64 79 85

GFSSW_850_rhum_027.txt.gz
RH
84 80 86 86 86 83 36 44 60 56 49 39 65 90 90 87 99 100 88 73 78 75 68 67 62 58 53 54 66 68 77 76 62 60 45 40 38 35 34 32 33 30 28 31 31
82 75 93 82 88 86 53 44 57 55 47 42 53 96 86 95 100 100 86 80 82 79 73 68 66 58 57 64 66 76 86 72 62 54 48 44 44 40 38 40 38 34 32 33 30
60 83 78 88 83 90 83 46 59 49 49 46 39 69 88 98 100 91 81 84 86 85 85 83 71 62 62 65 70 84 81 67 62 58 59 62 59 52 45 49 41 37 32 34 37
97 78 80 91 84 83 84 51 59 53 60 57 50 42 70 92 73 73 74 71 72 92 92 98 80 67 75 74 71 78 76 79 69 60 64 69 66 67 59 50 45 42 38 40 40
100 89 86 82 96 85 84 78 60 61 62 60 58 60 51 74 84 70 71 67 78 94 97 96 85 73 75 77 76 83 77 72 68 65 63 62 69 64 67 56 53 52 49 44 42
100 100 90 87 88 98 81 82 62 63 68 65 62 71 73 72 48 58 70 68 72 92 97 90 89 77 76 79 73 72 73 72 66 64 60 61 58 63 50 47 45 47 49 41 41
98 99 100 98 85 99 87 80 71 71 75 72 67 68 76 57 55 56 61 70 82 96 86 88 94 80 82 87 81 78 83 72 71 67 64 59 61 68 54 52 50 47 43 41 38
99 98 100 100 90 95 97 83 77 75 81 82 88 86 68 57 51 54 65 82 93 97 90 85 92 90 87 86 74 81 80 79 62 61 63 58 58 48 48 50 56 53 50 40 27
98 80 94 99 94 92 100 92 70 73 94 87 91 94 76 69 62 53 61 72 76 86 75 72 76 74 85 88 83 84 87 89 67 58 61 69 72 54 58 58 57 55 56 55 51
96 85 82 92 100 97 100 98 74 91 99 82 93 95 73 70 61 57 60 65 64 64 70 76 70 80 78 90 88 82 86 72 71 58 65 70 69 54 52 52 51 53 50 48 49
85 85 73 77 100 100 100 100 93 99 97 74 79 79 72 74 69 68 57 68 68 72 88 72 80 88 82 81 75 87 91 80 70 60 65 63 62 53 48 52 52 51 51 50 44
87 88 84 80 94 98 100 89 67 58 94 80 78 88 83 79 76 77 68 69 71 86 77 83 91 66 57 70 74 77 83 81 60 54 61 64 68 55 54 52 48 46 47 49 37
88 96 85 79 89 99 100 89 74 60 70 73 81 90 84 79 83 77 70 74 81 91 88 88 70 67 73 77 75 82 88 71 63 64 61 65 61 37 31 34 40 45 45 45 45
99 86 87 88 76 96 100 94 74 71 85 67 91 88 89 86 76 72 70 66 81 90 90 91 70 74 83 83 78 88 70 70 76 84 78 65 71 39 34 30 28 33 35 41 38
98 91 99 91 97 98 96 96 72 58 74 71 95 96 93 77 69 85 77 70 84 85 86 82 84 93 82 72 74 77 65 73 76 88 83 72 88 55 48 47 42 36 33 30 30
94 78 95 94 82 88 100 91 72 80 85 92 90 93 94 80 77 84 81 75 77 74 78 76 71 74 78 71 66 65 77 78 81 89 95 68 78 55 42 36 34 33 32 26 27
99 89 92 100 97 82 100 97 96 85 67 95 88 87 77 84 82 78 89 94 95 99 95 81 86 75 70 76 72 72 100 94 97 98 82 61 80 55 40 38 36 34 33 26 24
96 93 94 73 56 100 100 99 87 70 82 66 75 80 80 77 72 74 86 91 80 88 100 93 88 82 78 73 80 88 89 89 90 87 72 64 78 55 43 35 34 35 35 35 32
84 98 98 72 76 96 99 98 76 72 80 79 75 83 84 77 78 75 81 81 67 82 98 95 91 82 85 76 67 97 97 71 86 75 94 66 57 45 40 44 45 51 55 54 44
88 98 93 95 83 99 100 83 72 68 74 72 86 80 85 87 90 87 84 70 76 62 67 78 97 77 81 72 74 88 74 97 98 94 86 78 76 57 46 39 65 65 64 64 59
100 98 97 96 98 100 100 84 87 74 62 72 80 86 79 84 82 86 77 64 70 74 71 80 87 82 94 96 76 95 99 99 90 89 78 66 55 42 38 64 74 73 71 77 67
100 100 98 96 99 100 100 81 82 88 74 77 71 74 75 82 86 81 80 68 67 80 87 74 90 98 84 62 64 64 78 80 96 83 90 74 53 55 66 69 75 77 76 76 76
100 99 99 89 99 100 87 88 88 86 79 77 83 76 73 78 88 79 78 64 71 78 86 76 95 98 85 82 67 95 87 91 95 98 93 86 54 32 46 55 71 79 81 78 87
96 99 100 96 98 95 88 90 94 78 80 71 79 74 81 86 77 87 86 69 70 73 69 64 90 87 80 82 89 99 98 96 98 97 76 77 58 42 37 39 47 80 85 83 92
97 100 98 100 99 83 71 79 95 91 79 76 87 77 78 89 83 86 82 77 78 76 74 82 99 94 90 82 92 98 96 97 98 85 91 58 55 43 40 42 73 82 79 75 96
100 96 99 95 92 74 78 83 82 93 86 86 92 78 80 96 84 87 78 79 75 81 84 81 98 100 96 82 83 99 97 96 95 91 79 68 67 43 58 63 69 70 85 90 92
97 99 85 86 83 77 86 86 80 83 82 72 78 76 90 74 84 80 83 70 66 86 83 96 100 100 93 78 95 100 95 96 94 84 77 90 64 50 54 56 59 71 89 84 89

GFSSW_850_rhum_030.txt.gz
RH
86 78 86 82 92 82 81 67 39 56 58 52 48 90 93 83 82 100 96 86 76 69 67 68 66 64 58 55 69 63 38 35 31 30 25 30 27 26 32 28 29 27 28 35 31
98 88 80 84 97 91 83 80 41 52 56 49 45 86 93 94 89 99 88 86 84 78 72 73 65 62 53 54 58 46 43 34 28 28 30 28 32 30 31 29 27 30 31 36 33
94 93 75 84 84 96 83 83 67 49 51 47 46 63 90 88 95 85 83 91 86 84 93 76 72 61 51 56 54 49 46 31 43 41 44 40 42 41 32 30 29 27 30 37 40
75 99 94 85 84 93 88 81 80 48 55 58 51 47 74 76 62 77 77 78 84 95 98 86 73 60 52 49 52 56 47 48 45 51 54 47 45 44 40 30 28 40 40 40 40
100 99 99 87 83 86 99 83 80 54 60 61 58 58 55 83 72 67 65 67 76 98 99 90 72 62 54 50 57 53 42 50 50 57 51 48 46 42 38 40 43 45 46 43 40
100 99 98 100 94 84 92 91 80 69 58 67 64 63 80 51 47 64 68 64 82 99 99 90 76 72 61 57 55 52 56 53 54 51 49 49 43 41 40 39 38 39 37 37 39
93 92 92 98 99 98 91 100 80 77 59 69 68 65 79 64 54 49 53 67 70 98 96 93 83 79 71 63 67 62 64 48 46 46 46 48 47 43 39 38 36 35 34 35 33
89 81 85 89 98 100 94 100 83 79 68 74 78 84 75 58 55 56 58 79 86 87 95 86 84 83 69 72 62 59 58 56 43 47 46 50 41 30 36 36 39 38 35 32 33
89 87 82 89 81 99 93 98 96 82 77 79 84 89 74 70 64 52 63 78 91 86 81 86 90 80 74 64 63 58 56 58 49 39 41 48 46 35 47 40 41 41 40 42 43
92 78 78 66 77 92 94 98 99 89 97 97 97 87 81 73 64 58 62 74 77 76 74 69 62 54 52 61 57 49 60 50 50 43 47 48 46 37 40 40 38 40 40 40 42
88 76 85 84 80 86 100 100 100 100 100 79 81 71 76 75 69 63 72 71 71 69 66 67 68 69 53 48 45 57 59 60 52 45 48 47 42 37 34 35 35 34 34 34 37
79 79 77 79 82 89 98 100 90 83 90 83 85 81 86 82 74 81 73 62 64 68 60 69 76 48 48 52 57 60 64 57 47 42 48 45 46 38 34 33 32 31 28 28 28
79 80 93 80 78 76 82 99 77 57 64 88 93 82 85 81 72 76 72 67 56 68 64 61 56 53 57 57 62 62 70 67 61 46 41 47 44 28 21 22 24 28 29 30 28
93 89 98 97 86 97 88 92 86 66 95 75 85 83 84 80 68 76 69 63 65 64 65 64 50 58 63 63 58 63 47 56 60 62 68 48 58 32 24 23 22 21 23 26 28
98 91 88 96 97 78 87 86 99 83 94 63 86 93 82 63 69 84 74 67 64 66 68 66 68 73 72 62 55 64 51 54 56 62 66 59 84 36 31 31 26 21 21 21 23
97 99 100 93 98 75 84 100 100 96 82 86 85 91 85 66 68 84 79 76 66 61 65 56 60 60 55 52 53 53 62 65 60 69 89 56 70 42 29 25 22 20 19 20 21
97 99 97 97 97 80 90 100 98 91 63 90 78 86 71 72 71 67 82 88 78 95 93 66 64 60 61 68 62 66 95 74 87 92 64 34 50 47 25 26 24 21 22 24 29
96 81 85 89 89 78 99 99 96 64 67 62 67 74 80 65 67 74 82 89 62 65 84 78 75 64 68 66 59 74 71 69 64 52 43 40 54 33 23 23 22 27 32 45 44
100 89 96 95 100 100 99 98 90 57 61 72 73 79 84 68 66 72 73 63 57 64 84 83 81 62 60 56 58 88 96 60 84 64 77 49 32 24 22 24 24 32 46 42 51
100 98 93 98 96 100 99 100 67 60 57 56 72 60 74 73 73 66 65 54 56 52 56 66 85 58 57 64 64 76 59 89 95 77 65 41 36 35 27 28 41 40 43 52 60
100 95 93 94 99 98 100 100 77 61 56 59 66 71 63 70 64 64 62 55 55 55 54 60 66 68 75 82 66 83 96 99 70 73 69 57 37 21 22 22 35 42 48 62 69
99 100 100 91 99 98 100 84 68 67 68 64 56 58 61 63 67 66 63 54 54 59 66 54 71 79 75 44 45 40 52 63 94 80 84 72 59 24 34 42 46 37 45 59 72
98 98 100 91 99 100 94 83 74 69 67 65 68 61 56 64 72 60 60 56 59 60 58 57 87 86 74 68 55 70 58 55 83 83 92 86 52 24 29 38 34 37 47 56 74
99 99 99 98 97 91 93 85 82 76 69 66 67 60 63 66 62 75 67 62 61 57 61 57 71 77 65 70 70 98 76 90 98 96 71 73 58 37 31 30 26 26 33 53 75
98 99 97 99 94 85 70 77 76 77 71 67 70 64 66 77 79 85 64 63 67 66 63 64 100 80 82 68 78 88 84 88 99 92 94 57 49 40 34 34 30 31 50 54 74
99 94 99 78 81 71 67 67 68 79 69 76 69 67 67 75 69 69 68 69 59 65 66 68 91 91 96 71 71 90 92 95 96 95 95 82 70 42 38 39 39 50 48 54 76
98 98 95 78 83 72 68 63 65 66 73 65 62 67 72 70 70 74 66 67 63 62 71 74 95 99 95 69 74 90 96 96 89 81 78 95 62 44 45 44 51 55 74 76 79

GFSSW_850_rhum_033.txt.gz
RH
100 97 98 83 85 91 98 81 74 46 40 52 52 48 97 88 76 80 99 81 80 74 67 74 64 56 53 49 46 48 38 33 27 20 19 15 19 20 21 21 21 20 20 32 39
90 93 99 97 89 88 100 89 78 76 40 53 49 45 93 98 94 96 89 89 76 75 79 69 58 54 46 44 46 46 40 28 17 16 19 18 22 21 22 23 19 23 25 32 40
99 93 95 99 96 90 95 99 79 80 46 52 46 43 79 94 97 86 85 79 81 83 82 63 54 52 44 42 42 40 42 23 21 29 30 26 23 26 26 26 19 19 23 28 34
94 99 99 99 100 93 88 99 85 80 53 52 53 47 66 95 71 83 78 83 86 89 89 68 57 50 43 45 42 43 34 30 27 33 40 37 31 29 28 27 22 22 26 31 33
88 91 98 98 100 95 85 86 98 81 65 56 58 57 56 82 66 70 71 74 81 89 95 70 56 46 43 36 35 42 38 30 35 39 41 42 38 34 33 31 30 29 31 36 36
89 90 93 97 93 100 96 91 94 86 75 58 61 59 83 58 56 66 67 76 77 89 96 79 66 51 49 41 43 38 39 36 38 38 40 40 36 34 32 30 30 30 31 32 34
91 92 90 85 88 94 100 100 91 97 82 62 66 64 86 60 62 60 64 76 86 83 88 91 78 66 60 52 51 51 52 42 39 39 39 40 43 39 33 31 29 28 27 27 27
93 90 92 92 85 80 97 100 99 99 91 65 71 91 72 66 69 57 65 74 80 86 84 84 83 73 65 60 51 52 46 52 31 33 34 40 44 22 26 28 28 28 27 26 25
93 93 91 79 75 79 85 99 98 100 93 78 86 89 63 68 62 60 64 71 76 79 86 92 86 76 68 64 58 51 49 44 36 32 35 42 43 26 32 33 31 28 29 28 27
89 69 79 75 74 77 79 96 93 100 98 98 95 84 70 63 70 66 66 72 71 74 76 72 68 68 68 74 59 43 46 40 39 31 38 40 39 30 29 30 31 32 32 31 30
80 77 71 72 83 79 85 94 98 100 100 85 77 58 67 74 72 67 67 70 66 60 57 53 56 60 45 43 40 37 45 42 34 32 38 37 35 30 26 26 27 28 29 29 29
85 84 80 75 76 73 94 99 99 99 97 86 73 72 71 70 66 65 65 61 62 67 52 67 77 44 37 38 42 45 49 46 36 32 37 37 36 28 25 24 25 26 26 27 26
91 91 84 85 83 77 94 93 98 100 92 80 73 69 79 74 56 66 65 55 56 59 58 61 46 42 44 48 53 48 52 50 51 43 37 38 38 25 19 20 21 24 25 26 25
92 97 98 97 81 94 94 93 95 100 100 91 82 72 79 69 64 64 62 53 50 54 53 55 40 48 48 52 46 54 37 42 47 54 53 40 51 29 21 19 18 18 19 20 22
89 90 98 100 95 92 90 99 100 100 97 72 75 73 69 59 61 69 61 60 52 50 52 59 56 56 58 50 43 54 44 49 49 54 61 50 63 35 24 25 22 19 18 18 19
88 93 100 99 99 96 94 95 98 99 97 82 87 79 72 56 61 68 66 65 52 48 52 46 47 49 50 46 46 48 50 54 53 62 84 50 42 34 23 18 16 16 18 17 17
91 96 91 99 94 93 85 100 98 97 56 93 77 77 69 65 64 71 75 73 69 93 88 61 54 49 47 56 50 53 74 68 79 88 63 26 40 39 22 21 19 18 18 20 23
92 96 99 89 97 91 100 99 97 78 63 52 71 67 76 62 62 59 67 83 56 54 66 78 75 53 58 58 56 59 62 65 58 47 39 28 42 27 17 18 19 19 19 21 30
98 93 95 98 100 79 98 96 99 56 56 66 69 80 78 59 61 62 61 65 56 55 75 69 72 48 52 47 48 65 87 52 70 54 64 40 27 20 17 17 16 18 21 25 35
100 98 92 90 96 84 98 70 95 49 50 53 67 58 76 65 65 60 69 49 52 46 42 57 78 50 51 50 50 57 51 84 93 81 60 36 32 29 21 18 17 20 32 35 42
99 98 99 100 99 99 90 91 72 51 46 50 54 56 56 63 58 60 60 49 42 44 45 51 58 65 61 70 58 69 77 77 64 74 63 55 39 19 21 21 19 31 33 40 46
98 100 98 96 96 97 100 95 55 57 59 51 44 45 52 51 53 52 52 44 42 42 56 49 56 77 64 41 39 41 59 61 91 63 78 78 64 26 23 22 31 30 31 36 43
97 98 96 98 98 99 92 85 62 64 58 55 58 48 46 49 60 51 49 47 47 48 48 50 72 79 81 55 44 54 50 47 67 85 93 86 57 24 27 25 25 30 28 28 39
98 99 97 97 94 82 94 92 82 67 58 53 55 47 50 53 51 56 56 56 51 47 60 48 60 73 68 79 67 97 69 64 95 97 72 66 56 39 32 31 33 28 31 26 32
96 95 91 99 78 88 77 82 73 66 60 55 58 51 53 63 65 64 54 57 57 55 56 57 99 70 70 63 71 79 74 74 98 95 98 68 66 53 46 39 33 35 32 32 40
98 98 88 72 65 69 69 82 61 67 55 62 57 55 53 58 57 63 60 60 52 56 61 61 86 85 90 56 57 66 55 75 93 95 96 95 94 70 53 41 39 39 36 40 42
98 100 99 69 62 54 62 59 56 54 63 56 52 54 59 59 62 66 60 52 52 65 65 71 92 88 75 61 60 78 95 96 94 91 95 99 68 49 46 42 44 65 70 64 63

GFSSW_850_rhum_036.txt.gz
RH
69 82 93 100 98 83 92 94 93 81 74 40 48 54 47 67 83 83 96 84 80 84 64 80 72 62 53 50 42 40 57 50 41 32 26 15 17 18 19 19 18 19 19 32 51
95 92 90 95 99 99 91 98 96 87 76 51 48 50 47 87 93 99 70 89 88 81 66 73 63 57 52 48 43 51 62 52 31 24 24 18 18 18 20 20 21 20 22 30 39
91 94 96 97 93 100 100 98 99 94 78 59 50 45 48 99 94 84 83 76 85 78 78 72 59 51 51 43 42 43 56 34 27 22 28 32 31 21 26 28 22 20 21 25 33
95 92 92 94 99 100 100 98 94 99 83 70 49 49 44 94 77 77 75 78 78 80 89 74 57 51 52 50 40 45 36 35 34 30 35 38 33 34 26 27 26 26 24 27 31
91 92 94 92 93 100 100 99 96 93 95 75 52 58 47 92 75 74 60 84 85 88 85 82 57 50 51 39 40 43 38 34 32 33 35 38 40 42 37 30 28 27 28 28 34
90 93 94 95 91 95 93 99 100 95 99 81 59 62 58 65 61 73 58 71 76 91 83 77 57 50 48 40 38 35 37 37 36 32 36 38 39 39 34 32 33 32 31 29 30
89 87 91 93 90 91 82 87 100 100 99 91 64 66 87 69 58 59 58 64 76 73 84 84 74 62 55 51 50 45 56 47 43 40 40 37 46 44 36 35 32 29 28 28 28
90 92 91 90 92 95 77 79 94 100 100 96 70 83 80 65 69 61 58 64 72 81 73 80 76 71 64 61 51 55 56 70 39 39 36 40 56 36 31 33 34 32 29 28 27
79 74 92 88 89 90 81 67 79 99 98 99 83 94 70 68 66 64 60 62 70 81 77 85 81 70 66 72 68 54 68 57 45 34 34 41 51 36 31 30 31 29 28 27 27
85 80 73 83 68 71 81 78 62 97 83 99 93 90 73 68 62 61 61 68 68 69 82 87 80 74 70 73 80 62 65 54 47 37 38 45 47 36 31 30 30 31 32 30 28
80 85 79 85 73 80 83 87 80 98 100 91 87 61 60 62 67 61 64 70 68 68 73 75 79 87 71 60 56 54 49 47 41 31 37 42 39 35 29 28 29 29 29 28 30
79 87 92 83 83 78 79 99 82 98 98 82 83 64 66 67 63 62 65 67 66 83 57 62 76 49 43 45 52 46 50 52 42 34 39 43 44 36 31 28 26 26 26 26 27
87 89 88 89 86 78 75 88 81 96 99 91 78 67 70 64 59 62 64 59 64 67 68 63 51 45 48 47 51 52 57 54 51 44 42 45 47 36 26 27 26 26 25 24 25
90 84 82 89 97 94 94 86 94 97 100 98 83 70 74 62 58 62 61 53 57 72 58 60 44 44 48 54 48 61 42 45 47 58 68 47 76 42 30 26 22 20 20 23 24
80 87 90 100 100 94 96 94 98 98 98 92 85 69 71 57 62 64 60 50 52 53 53 63 52 57 58 50 44 52 47 50 52 62 64 59 77 49 28 30 25 22 19 19 19
87 85 94 91 97 95 79 93 92 99 97 99 88 71 73 58 59 61 61 59 54 46 46 51 44 47 50 44 45 48 51 53 58 62 89 70 62 51 28 25 25 22 19 19 19
83 98 90 94 96 89 97 99 99 97 91 99 89 73 66 67 69 64 72 76 76 92 90 62 59 49 47 56 50 52 68 94 97 92 89 34 56 42 27 23 25 23 19 19 20
95 99 93 89 93 87 95 97 97 96 99 56 74 71 69 64 70 68 79 84 62 59 80 84 77 59 52 58 62 65 65 93 82 85 64 41 53 39 23 21 18 19 18 19 21
99 85 94 97 90 87 92 92 99 90 59 78 74 87 78 63 66 72 74 69 56 57 74 77 69 47 53 48 54 65 82 55 77 63 87 58 34 26 22 22 21 19 18 19 21
98 94 100 99 80 95 94 80 100 79 52 56 74 62 76 72 67 69 72 54 56 48 47 62 70 51 54 45 46 57 51 91 95 96 82 55 47 40 28 26 22 24 31 29 39
86 92 99 93 82 89 96 78 87 80 49 66 56 57 53 66 61 63 58 49 45 48 46 49 60 67 66 71 69 69 74 71 71 81 86 78 55 28 32 29 30 30 33 37 44
97 98 95 89 98 99 94 88 83 80 52 44 42 45 50 51 59 54 59 48 41 44 55 49 62 89 78 48 51 52 65 64 88 78 79 90 70 32 32 29 30 30 37 38 43
90 90 96 100 100 100 96 94 82 70 56 52 51 42 43 53 61 49 51 45 44 47 52 53 76 90 86 61 49 60 56 54 64 84 90 93 65 28 32 33 32 30 29 30 33
87 94 93 97 96 90 98 84 79 66 56 49 48 44 45 56 45 56 64 52 47 48 49 47 64 82 92 87 80 94 76 62 74 98 81 75 65 49 42 43 43 46 35 34 37
91 93 90 98 84 85 87 78 74 67 56 51 52 48 49 58 61 59 56 63 53 62 52 61 98 78 77 65 70 79 78 73 98 94 98 78 78 67 68 72 62 60 44 36 37
99 98 88 70 66 69 81 94 70 60 59 57 58 52 50 55 62 66 55 54 63 58 60 61 97 83 90 67 66 77 65 64 70 93 96 92 91 66 63 64 54 61 70 65 51
96 97 100 67 57 60 64 66 55 57 62 54 52 54 62 64 61 64 60 51 54 61 64 78 96 94 87 66 68 81 68 82 93 85 92 98 92 77 75 72 85 90 87 82 77

GFSSW_850_rhum_039.txt.gz
RH
94 95 96 98 100 99 98 90 98 95 88 76 60 37 53 50 57 88 82 42 60 73 76 68 65 54 56 54 49 42 64 70 58 50 40 24 25 19 19 18 19 20 33 45 54
99 94 93 95 95 99 99 98 99 100 93 86 72 40 51 54 83 90 60 60 89 78 81 76 76 63 61 52 51 55 72 66 42 39 34 28 33 26 21 20 21 20 34 48 51
88 89 92 95 93 95 99 99 99 98 100 90 78 44 49 82 94 60 45 66 96 86 78 68 70 62 60 54 50 50 74 51 45 34 34 38 35 34 29 28 21 20 26 32 26
94 90 92 90 95 92 91 98 98 100 97 100 82 49 50 94 90 81 74 66 93 82 83 62 71 68 61 63 49 59 46 46 40 37 35 40 39 42 38 32 32 27 27 27 40
92 90 88 90 90 94 90 99 98 100 100 99 88 59 58 93 83 74 68 79 97 86 75 83 76 65 62 55 50 52 47 40 39 36 36 35 42 43 41 38 30 29 30 30 30
79 86 84 90 85 92 86 90 100 96 100 100 93 72 70 89 61 69 61 69 86 87 79 79 69 56 53 52 49 41 45 46 43 43 43 40 40 39 40 34 33 31 30 31 32
95 82 84 94 93 92 94 91 88 94 100 100 96 69 91 63 57 68 61 59 73 77 80 76 77 61 56 52 51 49 57 55 50 47 48 39 51 50 37 35 36 34 30 29 30
97 86 69 82 76 72 93 90 74 68 95 99 99 79 87 65 64 69 54 64 80 81 75 78 81 65 63 57 52 57 60 79 56 46 45 44 56 44 35 38 38 35 34 29 28
76 74 73 73 79 72 68 72 70 60 83 97 99 80 80 56 69 66 49 60 73 80 75 83 86 75 68 70 71 61 83 76 64 42 44 51 55 43 38 36 37 36 34 33 31
80 74 81 78 81 80 73 73 65 64 68 98 98 91 82 74 66 67 54 60 69 81 78 85 86 90 84 83 93 76 77 67 62 43 42 49 56 47 35 36 34 32 31 34 32
72 75 78 93 83 83 74 71 76 83 72 95 94 82 60 66 63 60 61 67 70 78 95 83 88 95 85 80 67 63 67 60 48 39 41 48 51 45 37 35 35 33 32 29 29
73 87 89 78 77 79 80 80 91 98 95 94 98 74 63 64 64 59 68 68 72 89 66 75 83 64 59 60 63 70 69 60 50 40 44 49 48 40 38 36 32 32 32 30 28
92 86 78 83 90 81 82 78 87 84 98 98 98 88 68 63 65 62 68 67 76 80 69 78 56 49 55 56 60 55 61 60 59 51 48 53 56 48 40 35 34 32 29 28 27
88 80 83 92 97 99 94 89 98 97 100 98 96 83 66 63 67 63 67 61 63 71 67 63 48 50 57 60 53 64 50 54 56 64 76 55 87 65 39 31 27 29 29 28 26
80 87 77 89 100 98 93 96 98 86 97 98 95 78 62 68 65 65 64 55 67 68 64 75 58 58 57 55 48 60 52 57 60 69 71 69 80 67 49 34 30 26 22 20 20
71 81 98 98 97 91 98 95 91 98 96 100 88 77 84 65 63 64 63 57 53 56 58 57 46 50 57 46 50 50 53 56 63 72 97 76 74 62 38 28 25 26 20 19 22
92 95 92 99 97 98 92 96 94 98 98 100 95 76 75 75 70 67 72 77 79 89 91 63 61 50 49 61 51 61 70 95 89 91 89 60 80 63 34 28 27 27 20 21 20
99 97 85 92 99 89 95 92 98 97 100 89 74 70 83 71 74 72 80 86 69 65 88 88 87 67 56 62 69 72 69 91 91 98 83 54 66 48 32 26 22 19 18 18 20
94 89 98 93 80 87 90 94 98 100 93 94 85 97 96 69 78 75 78 80 65 65 78 89 78 53 52 51 57 71 86 62 82 75 94 71 49 34 27 28 27 26 24 21 22
82 95 97 97 93 87 99 97 96 96 74 69 95 74 93 74 83 82 76 62 56 56 54 62 79 63 58 50 54 60 59 85 94 96 93 74 63 47 34 32 32 34 31 34 42
74 81 98 95 78 92 98 100 100 85 70 66 65 67 65 74 75 72 76 57 52 56 53 51 62 76 62 69 74 72 66 64 78 91 93 96 73 39 36 33 34 37 32 37 44
79 95 96 91 94 98 96 90 98 93 79 64 47 56 58 64 68 58 70 56 46 49 64 51 70 94 80 60 57 63 68 72 93 76 93 94 72 36 34 37 35 35 35 36 35
76 83 88 99 99 97 92 85 92 82 61 56 60 47 49 59 66 55 63 50 44 50 58 57 78 93 83 69 59 73 67 64 70 84 91 88 67 36 36 37 38 41 55 58 50
82 92 84 95 99 97 92 100 97 75 61 50 49 44 54 60 56 70 66 56 49 56 48 47 75 79 86 83 82 89 77 68 77 98 81 76 62 51 47 50 55 63 75 70 58
93 93 88 95 94 91 89 82 81 74 60 52 52 49 51 64 61 70 66 63 56 57 56 67 88 81 78 75 80 77 78 78 87 80 97 68 71 63 63 72 75 77 79 66 62
98 99 97 88 81 78 89 92 77 71 67 64 65 63 60 62 66 61 66 68 70 64 66 68 96 91 92 74 77 86 72 72 74 73 77 80 94 66 64 69 78 87 88 84 75
95 99 100 74 72 72 82 66 69 62 60 61 58 72 79 75 69 64 53 53 60 73 73 80 94 98 96 71 75 87 70 66 78 85 84 97 80 64 70 78 89 98 100 97 85

GFSSW_850_rhum_042.txt.gz
RH
90 94 100 94 93 96 98 97 100 97 100 92 85 77 40 54 55 62 80 51 47 78 68 76 75 64 54 59 52 46 69 78 62 55 42 30 30 25 21 21 20 24 29 24 44
91 95 97 92 91 97 93 97 96 99 94 100 91 83 48 54 56 56 43 56 48 77 69 79 80 65 65 59 52 58 76 68 50 44 42 33 36 35 27 22 23 26 31 46 55
95 91 90 89 89 94 98 92 96 99 96 96 99 89 54 58 90 44 39 51 53 82 77 72 77 73 68 58 55 59 78 55 50 45 39 39 38 38 36 29 30 34 48 55 57
81 79 87 85 84 92 90 98 98 98 99 98 99 97 56 75 86 81 70 52 70 82 75 81 77 75 69 68 54 60 52 48 46 42 44 40 37 44 40 32 32 34 35 48 60
87 89 95 89 79 87 92 91 91 99 93 99 93 100 69 87 78 78 72 63 94 91 84 77 81 76 68 64 57 59 51 45 43 41 44 39 42 45 43 36 32 36 34 32 31
88 88 83 78 70 77 80 88 96 94 91 95 95 99 82 89 44 67 65 80 93 91 86 81 76 68 57 57 62 49 48 46 44 45 47 45 44 39 40 36 33 32 31 32 31
88 75 75 74 88 70 80 95 94 81 79 92 99 100 92 58 63 70 62 70 78 84 81 75 76 65 57 57 51 51 55 54 51 47 49 43 50 54 37 32 34 32 30 26 27
78 74 75 70 74 77 71 66 62 64 64 76 97 100 92 59 64 72 64 70 77 79 78 70 78 72 64 56 55 58 63 71 50 46 43 46 57 44 36 36 37 34 30 25 23
79 71 70 78 84 78 74 66 59 52 64 61 99 100 82 60 59 60 59 67 82 84 77 85 82 76 66 73 73 64 77 77 66 50 49 57 58 44 33 37 37 34 34 34 28
91 69 72 87 88 82 79 66 57 64 63 69 90 97 86 72 59 60 61 64 77 83 83 93 94 95 84 78 89 81 80 72 69 49 48 57 64 51 42 42 40 37 36 34 33
95 91 85 81 73 73 76 77 69 82 77 94 94 86 74 66 60 66 65 63 74 84 92 93 90 95 87 73 63 62 66 70 60 41 44 48 52 47 38 38 38 37 37 32 31
88 92 86 77 84 89 89 89 76 94 93 70 98 81 78 70 68 66 63 69 74 91 81 96 93 76 75 78 72 70 70 66 54 43 44 52 52 41 37 36 34 33 32 32 30
93 80 80 85 89 84 92 98 90 90 95 77 96 97 68 61 64 70 66 70 76 88 75 79 63 56 61 65 72 62 65 62 62 55 48 56 43 41 39 36 32 31 32 32 30
94 85 82 85 90 99 94 98 86 93 92 71 94 88 71 63 68 62 69 67 72 86 68 67 48 56 62 62 55 64 53 54 59 64 79 58 78 65 46 44 36 27 26 27 26
90 65 72 91 100 100 97 83 95 89 100 88 94 89 67 70 67 68 68 56 72 70 65 72 63 58 61 59 50 62 53 56 59 70 72 71 82 63 48 37 29 25 22 20 20
85 86 89 97 95 96 98 98 91 98 95 98 95 89 78 67 67 68 65 56 55 60 57 58 50 53 55 52 50 52 57 67 72 77 92 71 75 63 42 30 26 24 22 20 17
98 86 99 90 100 98 89 100 94 97 100 100 98 78 76 78 76 71 75 73 77 92 98 65 62 52 51 64 54 58 70 90 89 97 81 63 83 71 47 37 29 29 24 21 21
92 90 96 94 94 96 97 96 95 96 100 88 76 76 90 68 76 72 75 84 68 74 86 88 89 62 54 62 71 66 67 87 74 97 88 62 78 49 37 32 26 26 25 23 22
86 92 85 94 85 85 97 95 97 100 98 79 83 100 94 82 79 78 72 84 71 62 78 88 77 57 56 55 58 72 84 63 83 79 95 75 60 36 31 32 32 33 30 32 29
77 90 99 100 89 92 100 96 99 100 82 68 98 90 99 88 88 80 72 66 61 60 56 68 91 63 58 53 54 59 61 85 92 91 88 75 70 47 34 33 36 40 38 35 36
69 87 96 87 84 88 99 100 100 96 91 74 84 77 77 75 74 70 66 60 54 57 54 53 74 80 65 68 76 75 76 74 80 87 92 94 72 47 36 36 42 43 39 39 44
70 96 80 87 87 99 100 99 100 93 89 84 54 64 70 69 73 68 77 66 51 55 67 53 78 93 77 60 57 63 70 72 93 70 96 92 79 42 43 38 39 39 45 55 58
70 76 80 92 99 99 89 94 90 88 82 66 55 51 56 64 73 61 60 54 50 54 63 57 80 93 83 70 68 76 70 69 74 88 95 91 72 39 44 36 38 51 64 70 74
83 89 77 90 93 97 100 98 94 75 82 53 56 51 57 60 59 72 66 61 54 56 48 52 76 75 87 75 80 85 77 75 76 98 87 84 63 50 45 44 51 67 77 80 81
88 95 96 96 94 89 92 87 77 80 60 52 56 58 58 70 70 77 68 63 60 59 63 64 85 85 81 76 83 79 76 80 88 75 93 64 71 61 56 54 68 82 85 87 86
99 96 94 96 79 80 87 88 80 75 70 69 77 68 64 73 65 74 73 69 65 62 68 70 84 92 90 73 80 88 78 76 72 69 70 72 78 54 57 63 83 95 97 94 97
97 96 99 81 78 77 79 67 69 62 65 73 69 74 82 78 71 57 51 53 61 69 77 79 95 96 98 70 78 93 80 73 72 73 67 87 74 63 66 78 96 99 94 82 80

GFSSW_850_rhum_045.txt.gz
RH
86 88 91 88 91 86 91 94 95 98 96 97 100 95 84 54 57 63 78 40 43 73 74 68 80 75 72 60 55 50 75 83 59 54 44 35 33 29 28 24 22 23 26 31 36
92 88 87 88 87 97 86 86 95 93 93 90 94 100 94 72 71 81 30 41 50 82 88 77 74 78 72 62 56 59 79 70 54 49 43 38 39 38 35 32 24 27 34 43 53
77 77 83 82 89 90 79 91 77 96 93 95 99 99 99 82 80 41 25 35 53 81 78 82 82 74 67 61 59 64 74 55 52 44 45 44 42 38 40 40 30 33 60 63 64
88 81 80 79 74 83 74 75 87 90 92 99 100 99 100 76 80 81 68 36 54 92 85 86 85 76 74 73 58 64 58 54 47 42 45 44 40 44 38 37 32 35 44 63 69
85 92 74 64 80 85 85 76 74 93 93 97 100 97 99 90 60 83 86 55 81 88 83 95 89 76 76 68 61 62 55 51 47 44 47 44 44 46 44 35 35 35 35 35 40
90 84 79 78 75 78 77 70 82 90 94 88 100 100 100 85 54 61 72 76 86 83 86 83 83 74 65 61 67 55 53 50 46 45 46 48 48 42 41 35 33 37 34 33 33
92 71 82 73 76 75 72 74 83 94 94 67 89 100 100 82 53 44 67 73 86 95 90 81 73 74 63 59 54 52 56 54 53 49 51 46 54 60 41 38 37 32 33 30 30
92 85 95 82 72 83 76 74 78 62 64 59 83 100 99 77 70 73 79 83 76 83 75 76 84 72 63 59 58 63 63 73 51 51 46 45 58 44 36 38 38 34 30 27 24
91 78 90 72 78 86 80 80 73 62 66 63 90 99 91 78 75 73 69 80 80 90 89 78 80 76 68 74 78 66 85 77 64 50 50 58 63 45 37 37 38 33 29 26 25
92 93 94 83 87 77 78 70 63 60 63 71 84 99 92 82 70 73 66 70 81 83 95 94 90 93 86 81 93 87 76 74 70 50 52 64 71 54 45 46 46 42 39 36 34
87 94 81 74 74 83 92 91 68 81 87 74 88 88 85 74 70 60 63 65 80 87 98 94 97 94 83 73 62 67 71 72 64 47 46 52 53 47 39 39 40 36 36 37 36
95 90 88 73 88 86 84 93 98 84 83 60 87 85 83 74 80 62 66 66 82 93 95 99 94 81 81 78 80 71 75 72 58 47 47 56 56 44 40 37 35 34 32 31 31
89 91 87 80 86 76 91 90 86 94 90 61 92 96 90 71 71 76 67 72 77 92 83 80 75 73 80 84 91 77 76 67 64 56 51 61 53 44 36 35 32 31 30 30 30
89 85 64 76 83 98 99 99 83 89 90 89 94 93 87 63 72 72 65 70 76 91 73 63 50 71 68 78 70 69 52 56 61 64 79 59 80 63 45 45 41 31 26 23 22
94 98 83 76 93 100 99 88 89 98 57 72 93 91 79 70 68 67 75 62 80 76 66 73 61 69 72 62 51 62 54 58 61 72 68 69 83 63 43 34 27 26 24 23 21
88 88 95 96 98 99 98 88 98 93 97 93 93 95 82 70 70 76 65 57 58 61 58 61 52 51 54 57 51 54 58 68 79 75 88 67 72 57 40 31 35 29 26 23 22
92 83 92 96 98 99 97 95 93 94 97 100 99 80 79 78 82 75 73 69 81 98 99 68 65 53 53 66 58 59 70 86 80 93 80 73 79 59 44 40 37 39 30 33 28
94 77 93 93 95 95 85 91 93 94 98 90 85 76 97 76 78 76 77 81 67 74 94 93 93 62 54 62 71 66 66 82 64 89 84 70 84 50 40 34 32 36 37 34 35
78 71 95 94 92 85 89 96 97 99 100 96 86 99 99 86 86 83 74 75 68 60 76 84 76 59 56 56 58 74 85 63 84 80 95 72 57 36 35 40 37 36 32 35 40
72 82 88 83 81 83 98 97 99 99 97 74 99 95 94 94 96 89 74 66 63 59 56 65 91 64 60 54 59 61 65 85 93 66 82 65 70 46 34 34 41 42 39 41 50
64 71 83 92 80 85 98 100 100 94 85 77 90 85 83 81 77 73 73 62 55 62 56 61 74 83 66 69 80 74 83 84 82 83 86 89 59 50 38 37 44 46 41 51 62
69 88 84 86 84 96 100 100 99 90 85 85 63 66 73 72 69 68 69 62 53 56 64 56 80 93 74 62 59 64 71 76 86 74 94 87 81 45 47 41 43 40 48 61 72
68 75 77 84 98 97 93 90 90 87 89 70 58 54 58 67 70 66 68 53 55 57 65 57 80 92 83 67 68 73 71 70 76 85 97 90 70 43 46 42 42 48 58 77 81
85 93 76 87 95 97 100 95 93 82 75 56 57 54 57 65 65 73 66 67 57 52 52 52 74 73 84 74 81 89 80 76 78 99 89 86 75 48 47 48 48 53 87 89 87
91 98 97 98 88 89 90 85 80 85 59 57 56 58 62 77 72 77 68 63 61 62 64 63 85 84 79 73 84 78 74 85 84 76 89 65 70 56 49 48 51 82 90 89 90
96 96 98 95 85 88 80 82 79 78 74 71 76 74 65 73 67 81 71 66 61 62 71 69 91 91 87 71 81 89 80 79 82 77 77 72 73 49 46 52 73 92 93 86 79
98 98 98 85 88 80 81 69 73 64 74 78 71 79 84 82 71 57 52 55 58 70 78 74 92 92 97 71 80 89 80 79 72 72 61 76 61 56 65 66 85 96 88 75 75

GFSSW_850_rhum_048.txt.gz
RH
85 88 71 80 82 81 84 97 83 90 96 93 93 98 100 93 82 78 84 43 40 68 80 66 88 81 80 64 58 57 78 83 58 57 44 36 35 32 31 31 26 23 25 32 35
90 90 88 80 78 81 76 87 82 85 87 96 94 93 97 100 95 74 36 31 42 60 95 75 84 90 82 63 59 60 84 74 52 46 42 41 40 38 36 37 30 26 48 39 45
82 78 87 91 92 75 80 78 82 77 76 91 93 87 98 100 100 75 48 29 34 66 97 86 78 88 77 68 63 67 72 54 51 46 45 46 46 41 40 39 30 32 51 68 68
90 90 82 98 95 87 75 81 80 78 87 79 91 98 98 100 84 72 61 40 30 78 99 93 88 80 78 77 62 67 62 52 43 45 47 46 42 44 41 37 34 34 37 55 79
92 90 94 98 92 78 74 74 86 74 82 93 92 98 99 99 84 90 93 87 37 84 99 94 88 77 75 71 63 66 57 54 50 49 49 48 47 48 44 37 36 35 35 36 38
85 92 78 85 78 76 74 74 77 77 77 94 90 91 99 98 74 73 62 95 54 90 100 96 88 73 67 68 65 60 55 53 51 48 47 50 49 46 43 38 36 35 32 32 33
80 89 72 94 77 70 77 77 82 78 76 94 83 95 100 86 78 69 50 80 75 90 97 92 79 72 67 64 58 56 59 57 56 52 52 49 58 63 43 39 38 34 36 34 31
94 95 81 80 83 75 83 78 71 75 86 84 77 99 99 82 82 77 80 79 92 79 86 85 72 74 64 60 60 67 62 76 54 56 50 47 58 47 36 38 39 38 33 32 28
81 77 86 94 88 81 74 71 68 66 63 70 84 88 87 84 80 78 82 84 85 83 77 74 73 76 69 76 81 70 89 81 63 53 51 59 66 47 41 44 44 37 34 34 33
84 88 90 89 83 77 76 75 68 61 58 68 77 96 95 85 78 79 73 89 89 90 96 90 78 92 88 80 82 80 75 75 73 50 57 62 69 52 38 44 50 44 41 39 37
92 91 95 93 81 82 83 76 68 76 81 69 89 79 89 82 77 73 70 75 86 97 98 86 95 94 77 77 66 72 72 71 65 52 49 59 58 51 41 41 40 36 33 33 34
90 86 87 85 82 89 85 85 85 92 93 66 66 69 88 88 88 76 68 71 88 90 97 97 94 85 74 69 68 72 80 77 61 50 50 58 60 48 41 40 38 36 33 32 32
97 91 85 71 75 77 94 93 95 93 90 86 78 96 96 89 83 77 68 72 82 92 87 87 86 79 81 84 83 85 81 75 69 56 54 64 57 45 37 36 32 30 31 31 30
84 95 97 85 74 97 89 100 94 82 90 91 88 85 86 86 88 71 65 73 81 89 73 66 77 84 90 89 84 97 60 59 60 65 80 60 82 61 47 42 37 31 28 26 24
79 76 91 99 96 96 97 90 95 92 56 74 88 99 84 80 87 71 65 67 81 82 82 87 83 92 95 82 68 64 56 61 64 72 67 68 79 56 42 34 33 33 40 36 28
81 86 94 95 98 97 92 88 90 86 96 94 93 96 84 71 80 76 70 62 58 68 69 65 53 54 58 62 52 57 60 68 75 75 87 66 68 47 36 38 40 39 40 35 35
80 89 94 94 98 94 86 85 86 92 88 100 99 88 80 80 83 72 76 77 86 95 96 71 65 54 54 65 56 58 72 89 73 87 75 71 76 55 46 43 40 39 39 39 41
72 83 95 97 92 85 84 86 89 92 99 93 96 91 93 78 82 82 78 80 64 81 95 93 92 62 55 60 70 67 67 83 59 79 70 73 87 44 43 35 39 37 37 43 47
72 74 95 100 94 91 97 94 96 98 100 100 94 99 100 93 85 95 78 76 67 60 78 85 81 60 56 57 57 72 84 62 87 81 92 68 56 30 41 39 39 41 42 41 51
49 62 78 90 91 93 91 91 98 99 96 79 94 88 96 100 88 94 74 65 66 60 56 65 93 66 62 56 62 62 66 82 90 71 68 55 63 39 35 38 47 47 44 43 54
59 60 75 83 81 83 98 100 99 95 95 76 91 86 87 93 78 77 71 66 56 62 59 63 73 84 65 69 78 73 86 83 80 82 73 68 41 48 41 41 49 48 44 50 62
65 88 76 83 85 96 97 96 96 86 83 62 62 68 73 70 69 71 75 61 54 56 66 60 78 94 78 63 61 64 73 75 82 81 90 90 73 44 46 42 47 46 49 59 81
81 64 70 86 96 98 93 93 89 88 86 58 58 58 59 64 68 65 65 58 55 54 62 59 79 94 85 67 67 74 72 71 76 83 98 93 60 45 50 46 42 47 52 82 83
83 94 75 79 94 97 99 93 85 82 68 56 61 54 58 70 69 72 67 70 59 52 54 54 72 72 84 73 82 90 82 76 78 95 86 89 74 50 47 50 46 50 77 85 84
88 96 96 99 89 90 88 83 80 84 62 57 58 59 66 77 74 79 69 65 64 67 64 63 85 80 76 70 85 78 75 86 83 77 86 69 77 57 53 51 48 52 85 87 81
94 97 92 95 88 85 80 76 81 84 80 68 82 81 66 72 65 80 72 67 64 64 68 67 98 91 88 70 84 91 82 83 84 77 81 72 74 50 47 49 61 82 91 84 72
98 98 98 86 89 81 82 74 75 69 77 80 73 82 84 86 74 58 55 59 61 72 77 72 92 90 89 74 81 90 83 80 82 76 69 85 60 51 62 63 73 88 90 79 75

GFSSW_850_rhum_051.txt.gz
RH
81 85 80 80 92 89 78 77 82 82 82 73 63 71 89 96 100 97 92 63 34 65 82 60 91 87 80 65 54 60 68 68 54 50 40 36 33 32 30 32 28 25 28 30 38
85 77 82 88 77 87 90 79 74 82 85 79 66 62 93 91 95 100 81 58 33 53 99 90 98 95 86 66 59 61 73 66 49 45 42 39 37 35 35 37 30 30 42 36 35
85 91 92 92 85 96 96 82 85 78 82 76 64 82 81 99 98 96 72 70 47 47 83 98 87 94 83 70 66 65 65 56 50 42 41 45 46 42 40 39 32 32 50 60 63
92 90 85 91 89 93 82 93 95 83 83 83 73 92 96 99 93 78 78 56 62 39 88 99 87 93 82 76 66 69 62 51 45 48 50 49 44 44 42 36 36 36 36 44 73
92 88 81 90 75 82 74 78 71 73 78 76 73 88 93 98 93 75 96 94 85 73 96 95 96 85 76 70 66 66 59 53 48 51 50 49 48 45 43 37 37 36 35 36 38
80 82 87 77 79 92 84 80 76 72 72 73 79 82 94 98 88 77 64 71 85 92 94 94 87 78 69 69 62 60 55 55 52 50 47 51 49 47 42 34 37 36 32 33 33
77 81 80 84 77 78 76 77 70 70 71 72 77 83 99 89 85 67 77 71 92 82 92 90 81 65 68 70 59 61 67 59 54 54 51 49 53 61 40 39 37 34 33 32 34
81 80 79 80 83 93 81 71 68 74 72 76 72 86 92 66 84 85 84 61 100 78 98 88 76 66 62 60 63 67 60 75 56 57 50 45 54 46 41 43 42 38 36 36 28
90 95 86 89 93 85 70 64 70 72 62 82 69 83 81 74 87 77 86 90 96 91 88 79 81 75 68 73 79 73 84 79 61 58 55 52 62 48 45 44 42 40 38 38 34
88 92 92 89 91 80 79 74 65 67 69 86 76 93 78 90 77 82 79 89 89 84 83 82 76 88 86 78 82 80 80 78 65 52 59 64 68 53 41 43 42 37 34 36 38
96 93 92 86 76 81 89 72 66 79 87 71 74 79 74 86 78 73 76 100 86 80 90 89 90 88 80 73 62 65 71 71 65 53 52 60 60 50 43 42 42 38 35 32 31
87 90 87 89 77 82 80 82 85 88 87 66 68 82 82 99 96 70 76 93 87 96 91 97 87 70 67 65 66 69 76 76 62 52 51 57 56 46 41 43 40 40 38 36 34
84 80 94 95 78 72 86 92 98 90 85 77 86 75 95 97 84 84 79 78 87 94 94 97 90 66 69 77 75 80 78 76 68 56 55 60 55 45 38 35 33 34 32 29 30
75 86 92 91 81 94 95 95 98 79 86 90 84 90 98 86 80 76 69 76 87 93 90 94 90 84 81 78 72 92 72 62 59 65 71 60 66 53 45 32 36 44 41 37 34
79 83 92 92 94 94 97 90 85 90 73 63 84 94 89 93 79 75 68 75 86 85 80 89 97 93 91 89 72 83 58 61 62 69 66 65 65 43 36 37 38 42 44 44 43
76 77 87 97 93 92 84 88 86 82 98 91 92 94 95 82 80 74 70 70 74 77 71 65 58 66 88 85 80 58 60 66 70 70 81 64 65 38 38 39 40 40 43 46 50
68 75 59 76 93 90 91 90 87 92 79 100 99 98 85 95 79 73 89 78 93 99 100 95 75 57 69 87 64 57 73 86 67 82 77 72 74 49 41 40 40 40 42 46 52
66 70 62 77 88 94 92 84 89 94 99 97 98 87 83 89 84 81 86 82 69 82 97 94 95 65 56 64 74 67 68 84 56 65 58 72 73 41 44 37 38 42 48 48 55
49 55 70 80 80 90 96 96 93 97 100 100 91 98 100 90 83 94 84 78 70 61 79 81 92 61 62 59 58 68 80 60 83 79 81 59 53 32 42 42 40 44 48 52 55
61 56 71 86 82 83 89 97 99 99 96 84 95 83 97 92 100 95 76 67 69 62 56 66 94 70 63 56 60 62 64 79 85 73 58 46 50 32 42 41 45 46 47 50 57
63 57 74 84 79 79 99 100 98 89 94 78 87 87 89 88 81 78 69 66 59 63 58 64 72 84 65 71 76 72 79 80 72 73 57 45 31 40 39 44 49 45 46 51 75
63 83 70 82 85 94 98 96 87 85 84 66 64 69 73 70 71 74 70 61 56 54 66 62 78 94 81 65 62 63 73 69 80 81 90 84 50 42 43 44 46 43 48 54 78
82 66 64 81 98 97 87 92 88 88 80 57 60 59 60 64 70 69 65 61 55 54 61 59 79 95 87 71 68 75 73 68 72 82 97 79 42 44 50 46 42 47 49 68 82
86 92 70 78 92 92 92 93 82 80 67 58 61 56 63 71 69 71 70 72 58 59 54 53 71 71 80 72 81 90 82 73 76 90 80 82 61 47 45 48 48 48 54 82 81
90 94 94 99 91 91 86 85 80 86 71 61 62 61 66 76 74 78 73 72 68 69 62 62 84 79 73 68 82 79 81 81 82 76 81 58 72 51 49 52 47 52 80 85 77
97 94 89 91 88 82 78 77 83 86 83 73 77 76 63 70 62 80 74 71 71 66 65 67 97 88 85 72 83 89 79 82 77 75 75 71 72 48 47 48 59 79 87 81 73
95 98 100 86 89 83 82 74 76 76 83 80 76 80 80 81 77 60 57 58 63 71 74 71 90 87 84 75 79 91 82 79 82 78 67 83 62 52 54 59 63 85 87 77 74

GFSSW_850_rhum_054.txt.gz
RH
91 93 87 85 81 81 80 86 89 71 82 82 79 69 55 68 89 100 99 94 62 79 83 49 96 96 78 60 57 57 38 38 37 35 28 26 23 26 28 21 23 24 31 45 36
91 92 87 82 84 76 82 84 83 88 88 79 79 75 64 49 80 90 97 91 66 87 99 86 98 99 71 58 50 38 37 29 26 28 27 28 22 26 27 26 24 28 35 36 38
91 85 91 87 82 88 82 77 79 86 83 79 82 79 78 76 89 87 75 73 73 50 96 94 92 91 71 62 46 37 36 29 39 33 32 29 29 31 25 27 22 23 36 66 50
84 80 84 70 72 72 73 66 92 82 74 69 81 82 91 89 80 71 65 73 73 77 88 94 93 88 67 62 49 46 34 35 42 46 43 35 32 31 29 23 30 36 38 42 80
82 84 80 77 73 80 95 90 89 80 80 74 71 78 83 87 78 89 91 98 99 98 84 84 81 82 65 57 55 47 44 42 40 47 47 45 38 31 34 35 36 38 33 38 40
88 86 77 79 77 76 80 76 70 78 75 69 72 77 92 83 74 86 94 75 91 99 87 83 72 70 59 59 54 46 44 42 40 46 46 43 40 43 34 34 34 36 32 32 36
87 84 85 79 80 76 84 77 68 67 68 74 75 79 95 72 85 88 84 86 93 91 82 88 73 67 62 57 57 54 51 40 45 41 36 42 40 44 33 30 30 29 30 34 35
96 94 90 90 79 83 81 72 60 70 79 69 80 85 80 64 74 85 75 91 79 90 86 94 81 63 56 56 55 50 44 53 33 40 44 41 28 32 38 36 34 32 31 33 33
91 94 93 97 77 88 87 65 68 68 66 77 84 86 61 76 77 86 87 81 82 95 93 89 82 61 62 57 59 48 42 41 47 43 34 39 30 26 32 38 33 33 32 34 35
96 90 83 87 78 76 77 79 67 68 72 82 76 83 64 76 72 92 92 85 97 90 97 98 85 73 56 53 52 51 46 46 39 45 48 47 36 37 37 39 37 33 31 30 33
95 86 84 82 87 72 80 69 78 84 92 66 65 73 80 96 85 94 76 78 96 88 93 80 96 81 60 45 40 39 46 40 43 44 44 42 44 39 36 35 33 31 29 29 30
88 89 84 91 83 76 78 88 80 84 66 70 77 79 77 90 99 98 90 99 75 80 76 88 95 52 47 50 50 46 43 43 54 46 45 45 45 36 33 34 35 34 32 31 33
83 85 84 84 70 69 86 92 94 91 71 67 83 79 72 98 83 88 85 95 74 85 86 95 78 54 53 56 55 53 48 53 48 48 44 45 40 37 33 30 34 32 31 30 31
73 87 88 85 81 90 92 90 95 81 81 64 93 91 95 98 74 84 87 91 94 96 86 95 76 59 58 56 47 64 56 54 54 54 49 46 33 38 28 34 32 36 38 40 43
61 73 80 77 88 91 87 87 79 85 87 76 96 98 98 84 77 75 80 94 85 93 94 96 89 85 65 56 49 66 55 52 51 53 55 50 47 34 28 36 35 36 42 47 53
51 59 63 70 87 86 87 88 84 87 90 90 86 94 90 75 72 75 75 81 88 74 73 93 94 86 90 92 61 50 51 52 53 56 71 53 48 28 28 32 36 36 41 47 53
50 59 63 67 75 85 88 97 91 84 76 89 96 95 74 76 67 64 84 78 92 96 100 96 83 86 87 96 76 52 61 85 79 86 60 54 54 29 30 32 37 41 44 49 56
46 52 70 78 79 87 84 86 83 91 99 82 96 80 93 87 75 90 96 71 62 80 100 99 97 82 83 76 75 73 62 68 59 53 43 56 42 30 29 31 34 41 48 51 56
58 51 67 86 89 90 92 94 96 96 98 100 90 90 100 76 80 92 78 68 58 61 76 96 96 56 53 50 52 62 74 49 62 61 59 36 37 33 31 33 35 41 47 51 57
58 50 74 85 76 81 90 98 100 97 93 82 84 67 77 77 85 92 65 58 59 53 49 59 92 62 57 52 51 53 47 69 78 65 49 34 32 25 38 37 33 39 46 49 61
61 60 71 78 72 83 100 100 96 83 87 70 67 69 66 71 71 62 62 58 51 52 46 51 59 80 59 64 61 58 61 59 50 51 34 21 23 25 33 31 35 37 44 50 68
70 91 68 75 88 85 86 85 80 76 83 68 55 59 58 60 60 57 57 54 53 46 50 54 60 80 75 57 54 52 53 46 60 67 66 52 27 31 27 32 37 40 46 57 74
86 70 66 78 95 87 78 82 79 72 64 54 54 52 52 54 60 56 55 59 54 48 49 50 67 85 84 66 61 67 59 52 57 70 80 44 30 34 35 34 35 43 48 65 76
84 89 76 82 95 77 81 81 71 76 62 54 53 49 50 54 53 60 60 61 59 57 54 47 58 62 60 72 69 86 68 57 76 85 54 45 37 36 33 33 38 43 55 74 74
89 93 93 94 78 76 75 73 71 67 64 58 51 50 49 55 58 60 63 61 60 63 55 51 89 72 61 62 78 71 69 67 82 64 76 41 44 30 31 36 40 47 73 77 68
98 98 97 85 82 72 73 72 73 74 77 58 54 60 54 52 48 58 58 56 55 56 53 56 92 81 78 63 68 78 62 64 62 57 58 53 54 34 37 40 47 58 77 73 67
91 98 99 84 74 69 70 67 69 74 80 72 60 58 60 64 68 56 55 50 50 54 57 58 75 77 74 66 66 73 62 60 59 57 55 66 46 37 40 46 55 70 80 71 69

GFSSW_850_rhum_057.txt.gz
RH
80 92 92 93 92 74 73 73 71 79 82 81 73 83 77 69 52 78 95 97 88 89 70 72 90 99 76 57 44 46 45 42 34 28 23 19 21 21 19 17 18 16 21 49 59
86 88 84 82 93 72 89 71 63 66 74 78 74 79 89 79 74 69 83 96 89 82 100 72 86 90 71 55 48 42 45 38 26 22 23 20 22 18 22 19 16 19 30 56 61
92 88 81 77 90 89 89 86 84 92 91 83 75 75 84 79 75 53 62 83 84 71 89 68 72 85 64 52 44 38 31 26 21 28 29 23 23 17 21 17 16 18 20 43 66
93 82 82 79 80 87 74 72 93 88 81 78 85 72 87 88 59 47 48 68 73 88 80 82 63 78 62 56 44 38 30 22 25 33 36 26 21 22 22 18 20 22 32 33 55
97 82 81 78 76 74 76 70 71 74 68 74 75 76 89 88 65 63 85 74 92 94 70 71 58 65 59 50 42 40 28 28 34 43 39 28 24 24 23 24 29 30 34 30 31
88 86 85 83 80 75 76 73 67 74 75 72 72 73 87 72 53 52 89 98 95 98 68 62 56 58 54 50 42 39 37 34 33 40 42 38 29 30 28 26 29 28 28 26 29
84 83 83 86 88 80 78 75 74 81 73 70 78 89 85 64 57 80 72 92 91 91 69 59 55 53 53 53 47 43 42 36 33 35 36 40 37 35 30 27 27 25 25 24 24
88 97 94 81 90 85 74 82 70 71 70 78 72 98 80 62 62 66 91 85 93 96 70 61 65 50 53 51 51 48 42 51 34 35 33 36 34 24 29 27 24 21 21 20 22
85 84 90 82 84 76 77 69 65 68 65 71 87 91 57 62 60 63 91 95 84 93 69 68 82 56 54 55 59 50 47 39 31 28 34 40 27 22 29 29 25 23 23 24 23
83 81 87 82 84 76 64 74 80 65 78 94 91 80 59 50 63 82 89 89 89 83 74 87 83 76 58 53 60 48 42 28 28 39 32 34 34 23 27 26 28 24 23 24 25
97 81 84 85 84 72 81 91 81 84 83 62 61 55 68 90 94 84 95 85 96 68 76 90 93 92 56 37 29 26 31 24 25 37 38 33 32 25 27 29 28 26 24 22 22
92 81 88 80 72 69 85 75 86 94 68 63 65 63 65 94 97 94 94 66 92 68 56 95 96 64 41 34 33 36 32 32 34 38 38 31 35 31 28 27 25 26 26 25 25
94 80 83 82 67 90 93 84 82 87 75 60 72 70 85 99 99 93 94 84 75 56 69 71 75 71 73 46 42 37 40 33 39 45 38 38 40 33 31 29 29 29 27 26 26
82 66 64 76 93 98 92 77 86 98 88 66 86 94 95 98 90 90 96 93 76 70 76 82 63 80 76 53 39 43 31 34 47 46 36 36 24 37 31 31 28 28 26 30 36
57 63 65 59 95 92 97 86 92 96 92 81 92 94 90 98 93 96 82 92 87 94 86 94 78 89 61 51 38 39 44 47 48 48 48 44 40 32 28 34 32 31 36 41 45
52 57 66 98 94 76 82 92 94 97 94 100 95 96 90 80 82 99 95 85 74 84 85 93 94 89 65 68 47 49 49 49 48 51 68 44 35 35 30 29 32 33 37 42 48
64 49 65 75 88 82 95 98 96 90 93 100 99 81 57 65 76 85 92 91 93 100 100 99 98 89 80 82 62 52 60 88 88 86 59 42 49 29 21 26 30 33 38 44 49
56 53 64 85 98 98 97 91 89 84 100 87 94 70 91 73 74 74 77 74 58 69 100 100 100 98 91 84 93 74 58 67 64 64 50 44 43 28 24 31 35 39 44 48 50
51 56 75 96 82 99 95 96 91 95 96 99 63 85 77 60 73 83 63 60 57 55 89 95 99 93 86 82 71 88 76 46 48 44 44 35 31 30 26 29 30 37 43 47 51
49 54 82 80 76 100 87 93 96 87 81 70 69 58 61 60 63 65 52 49 55 46 42 60 94 69 68 68 59 64 46 69 78 64 43 34 27 25 34 33 30 35 41 45 52
62 70 68 72 79 75 99 93 87 71 73 65 54 55 52 54 49 49 51 52 44 45 40 45 53 80 55 59 56 54 57 51 49 46 35 23 23 23 28 30 33 36 42 46 58
88 91 64 69 79 65 69 68 76 62 68 61 48 46 46 47 50 46 50 46 45 39 44 47 54 77 70 50 47 46 45 42 63 58 53 47 34 23 24 27 32 38 43 50 64
100 75 63 75 86 74 69 67 64 56 52 48 48 46 44 46 53 46 47 52 48 42 43 42 62 83 78 58 53 60 49 43 47 71 78 40 37 25 24 30 33 40 44 55 66
87 87 76 73 76 60 62 68 58 67 50 47 45 43 44 45 42 52 53 53 52 48 50 42 50 60 61 78 61 76 58 51 76 85 47 37 37 34 30 30 35 39 44 60 65
82 82 92 85 63 63 59 56 53 53 50 47 45 43 42 48 46 48 50 54 52 54 47 44 88 69 55 53 79 70 63 62 91 61 74 35 33 31 26 32 36 40 56 64 63
91 96 88 82 68 62 62 53 57 57 56 48 47 45 41 42 41 47 47 44 45 48 45 50 87 76 80 54 59 72 55 56 58 54 48 44 44 28 31 36 43 47 64 67 61
86 98 99 79 60 60 62 58 57 60 64 59 45 44 44 54 52 44 42 39 40 44 48 52 68 76 69 58 58 67 54 52 52 48 48 59 40 33 37 41 48 57 71 63 62

GFSSW_850_rhum_060.txt.gz
RH
88 95 92 93 78 81 94 85 88 86 82 75 78 64 75 89 70 58 84 96 83 81 51 70 93 88 89 72 55 46 62 64 52 44 32 20 21 20 19 18 17 17 36 53 72
86 96 95 82 77 83 89 89 93 84 80 86 65 62 70 88 88 84 72 76 76 93 82 77 78 88 90 67 57 46 62 54 37 29 30 24 21 21 20 20 18 17 26 49 58
92 96 91 78 79 82 79 89 88 89 81 80 75 70 72 86 94 72 62 64 75 88 84 80 73 91 85 59 52 44 54 41 33 28 29 28 22 21 21 26 18 16 22 47 59
88 86 83 83 80 79 77 76 72 78 78 75 76 80 71 84 84 73 65 47 76 92 89 79 60 77 74 63 49 45 41 34 30 33 31 29 24 22 21 20 21 24 27 42 57
86 89 81 84 80 81 79 71 72 72 81 72 71 72 78 93 80 54 62 60 64 87 86 77 59 70 68 56 47 48 36 32 30 40 37 28 27 26 22 22 25 29 30 29 30
88 87 87 88 79 81 87 69 73 73 76 74 76 72 79 78 61 55 57 80 93 89 80 72 56 60 55 49 49 42 40 34 32 42 39 32 30 25 24 24 27 28 28 29 28
96 89 92 88 82 81 90 74 80 81 77 73 67 80 92 74 55 59 53 65 100 95 92 65 56 50 56 56 50 40 44 44 34 40 40 38 40 36 27 27 27 27 26 26 24
99 95 84 99 87 82 83 65 76 69 66 65 78 96 86 60 53 62 69 73 94 100 96 61 54 50 51 52 54 49 47 59 38 37 38 42 49 34 30 31 29 26 24 23 23
94 86 88 84 81 81 64 56 57 54 58 64 90 90 69 55 62 60 58 64 77 88 82 61 56 62 52 64 74 64 62 57 46 34 36 40 42 31 27 30 29 26 24 20 21
83 84 83 81 79 73 61 68 69 62 80 94 92 90 70 53 64 60 55 62 82 86 85 75 68 80 68 76 86 69 73 46 46 37 37 47 47 28 28 28 27 25 23 23 24
85 84 82 68 61 56 77 87 83 90 82 68 67 67 61 68 64 72 75 70 98 100 88 69 85 87 74 59 45 41 48 49 34 36 39 42 44 34 27 27 28 28 25 24 24
54 88 68 72 68 86 87 74 82 87 72 62 58 59 60 71 91 84 87 96 99 92 69 85 89 64 54 48 45 36 39 42 30 40 42 40 38 31 29 30 29 28 27 24 23
49 58 58 67 84 87 83 95 79 92 76 59 71 72 77 82 96 88 97 95 96 89 73 78 66 57 57 50 46 40 44 36 41 44 39 39 42 38 32 29 29 30 30 29 26
57 53 59 68 86 86 87 74 87 98 98 77 81 99 99 94 89 97 88 86 92 67 62 85 71 71 80 69 42 48 34 33 46 55 57 42 43 41 38 34 31 28 26 26 30
58 50 61 86 86 87 84 75 90 98 94 81 91 95 94 99 92 94 90 78 86 85 78 93 86 80 94 73 44 40 36 48 51 56 52 51 59 41 37 39 36 31 33 37 41
51 59 49 90 96 91 90 90 96 100 96 100 97 93 96 90 85 90 92 85 72 82 82 94 80 80 82 82 76 44 53 53 50 57 88 58 47 49 41 38 37 35 39 44 48
49 50 56 76 95 90 97 95 100 94 90 99 100 94 94 88 87 86 93 86 89 97 100 97 96 87 93 87 63 56 67 86 94 96 84 45 53 50 31 34 36 39 40 45 50
48 52 68 79 93 97 90 99 90 82 100 93 84 70 86 86 95 90 83 83 71 81 99 99 100 97 93 82 82 64 65 89 73 92 70 44 62 37 32 34 36 39 43 47 51
49 66 77 87 78 96 99 94 87 90 93 98 65 70 76 63 70 86 74 70 80 80 98 100 100 94 90 78 76 86 96 48 64 42 78 53 38 31 39 40 36 40 43 47 52
47 73 80 72 79 95 93 87 99 83 75 70 65 51 64 61 63 67 60 50 55 46 47 68 98 96 92 80 79 78 57 73 94 70 66 47 45 42 42 41 36 46 44 46 50
75 74 74 68 77 92 95 85 84 66 65 71 53 50 49 52 46 49 54 51 41 45 42 53 71 98 92 97 98 93 96 64 62 57 65 51 42 28 34 37 38 42 43 46 54
90 82 66 76 90 71 71 62 72 57 62 61 51 42 44 44 46 48 56 52 42 39 50 50 67 94 73 51 52 62 55 62 94 72 71 65 54 26 31 37 38 40 44 47 60
99 76 71 79 83 71 67 61 59 53 50 49 48 46 45 44 54 48 56 50 46 49 51 48 74 93 78 63 53 62 52 48 65 82 86 79 56 28 33 35 34 39 43 53 64
88 89 82 73 67 66 62 68 60 64 50 45 44 43 43 45 43 52 58 52 51 50 46 44 56 73 87 82 74 82 63 56 84 92 71 58 47 36 36 36 36 40 44 59 65
78 86 89 93 73 66 58 52 52 53 51 45 45 43 42 49 46 48 55 58 52 48 47 55 84 78 58 65 94 80 67 66 90 74 74 53 45 39 35 34 38 39 52 63 64
78 93 86 79 73 64 63 51 54 51 54 47 48 42 39 47 50 50 49 51 52 50 48 56 86 82 86 54 64 76 62 64 65 64 60 51 50 33 35 37 42 46 61 67 62
81 87 97 72 66 60 75 64 64 59 59 56 56 45 44 58 48 41 42 39 41 51 53 62 82 88 86 58 60 80 62 59 62 56 58 68 49 38 38 43 47 56 67 64 62

GFSSW_850_rhum_063.txt.gz
RH
91 92 92 92 86 80 78 80 90 80 83 90 78 80 72 79 89 77 61 76 75 76 74 74 51 87 99 89 69 74 96 88 65 58 47 34 25 20 18 18 20 42 46 57 66
93 88 83 83 81 82 78 81 78 84 71 67 82 79 85 69 84 87 67 45 80 81 75 79 59 96 98 83 61 58 82 80 56 44 39 29 25 22 20 20 30 51 50 49 54
90 84 91 85 84 83 79 74 74 80 84 74 80 70 74 76 89 79 56 51 59 79 88 72 65 95 83 73 66 59 68 55 46 43 32 32 28 22 23 25 21 48 36 35 38
88 87 86 84 82 78 79 83 75 72 75 78 67 65 70 79 74 63 72 81 46 68 82 85 66 90 85 76 65 56 49 45 45 44 47 29 26 24 22 27 24 21 36 45 48
94 93 94 88 94 81 81 85 80 75 72 69 66 72 76 82 69 68 64 82 68 67 83 92 78 86 86 73 57 62 44 41 41 38 34 30 27 27 24 29 26 37 48 51 53
95 100 91 96 99 88 78 84 79 75 69 80 75 76 81 92 50 60 61 68 73 87 80 86 70 73 71 66 62 49 48 45 40 40 37 32 31 29 24 28 27 26 28 28 29
94 99 84 90 83 79 77 84 72 75 75 71 66 80 89 61 61 76 72 65 81 85 85 74 62 64 57 58 54 51 54 46 46 45 42 34 39 37 27 27 28 28 28 26 26
97 96 88 77 76 74 69 50 66 58 54 62 82 79 86 47 53 63 65 72 68 88 98 71 63 58 58 53 59 55 54 70 46 45 42 36 52 40 28 30 29 29 27 26 25
98 92 79 65 71 60 52 49 44 48 54 61 84 79 77 62 61 51 60 63 76 99 85 71 70 61 54 72 86 79 76 72 50 42 46 42 50 35 31 32 31 30 29 26 24
89 72 65 53 57 66 77 70 62 61 84 92 89 92 66 68 62 60 54 60 71 86 92 87 72 80 76 88 86 88 74 66 59 46 44 49 48 39 30 28 31 30 28 26 24
56 59 58 67 57 70 72 74 74 84 84 71 68 64 68 65 55 52 61 68 82 97 97 77 88 90 71 69 57 68 61 55 51 39 44 46 47 40 34 30 30 28 28 26 24
58 53 58 66 82 83 71 72 81 90 90 59 64 59 61 59 67 76 88 69 91 97 90 93 89 70 62 62 63 53 62 60 41 39 42 46 53 45 40 32 28 28 27 28 27
41 55 58 68 78 73 78 69 74 92 88 68 74 79 78 75 79 91 84 93 95 99 85 84 71 62 65 65 66 61 52 52 48 46 43 43 47 44 36 31 29 30 30 30 28
23 62 51 73 82 85 82 76 79 87 100 99 96 94 96 84 88 90 66 94 96 93 83 82 68 68 69 65 59 70 40 39 53 58 66 41 58 44 41 39 33 30 29 29 31
19 56 51 84 87 86 83 82 95 91 96 90 92 87 97 94 94 96 90 96 96 86 75 96 84 87 82 70 63 54 36 54 55 57 56 53 60 48 46 43 39 33 27 28 40
30 51 55 78 91 93 91 83 97 95 96 99 97 96 96 94 93 89 94 95 79 82 82 95 82 82 78 78 81 72 55 60 62 67 90 65 60 50 52 41 41 40 43 45 49
25 50 64 72 90 96 93 90 89 96 78 99 100 87 87 86 82 80 90 87 89 95 98 98 96 85 86 79 78 75 69 95 93 94 89 50 64 49 38 40 42 47 43 46 53
22 54 73 76 87 92 95 93 91 82 99 80 87 77 92 91 94 87 85 94 78 86 94 88 100 97 89 88 92 83 62 87 85 98 85 49 69 47 36 35 35 38 43 49 54
31 57 73 75 82 90 98 95 84 92 86 92 75 80 77 80 89 83 80 90 80 82 91 90 94 91 88 89 84 91 86 56 67 55 83 64 41 37 48 51 49 49 49 49 56
52 74 80 77 84 89 90 93 98 87 77 76 90 65 66 71 79 83 65 62 81 77 72 86 97 93 91 94 82 83 63 73 90 62 76 67 52 50 54 51 48 49 47 48 56
77 84 79 75 89 96 92 86 86 73 72 74 70 53 53 56 54 60 66 52 48 53 56 67 78 99 94 98 96 84 88 72 70 70 66 61 53 31 44 42 46 49 46 50 52
78 90 74 79 88 84 86 72 64 60 66 71 59 54 47 48 58 66 68 59 46 44 59 56 77 99 99 77 74 82 79 66 87 76 74 68 60 32 38 38 39 49 48 48 56
97 85 77 86 79 77 72 70 70 60 55 54 52 50 47 49 59 58 66 52 50 56 53 53 80 96 96 73 69 94 82 71 64 82 84 78 58 37 45 46 43 44 44 51 59
81 93 72 74 70 76 72 69 77 61 58 48 47 46 46 48 49 61 65 56 51 49 50 48 67 73 83 73 75 83 73 60 72 84 68 71 47 47 47 44 40 42 46 59 64
71 86 84 96 79 85 77 62 61 65 58 47 50 47 48 54 52 67 63 61 53 46 49 62 80 74 66 78 86 76 69 73 79 66 72 52 46 41 42 41 38 42 54 63 65
84 90 82 78 73 83 72 66 64 61 58 59 57 45 52 66 58 57 60 61 62 51 53 64 90 78 84 65 69 69 68 70 68 64 66 62 58 37 31 36 42 46 61 65 65
65 76 90 76 72 80 84 70 68 69 61 57 63 60 61 59 49 46 44 47 54 60 63 71 83 91 88 61 65 74 69 70 69 65 60 73 54 44 45 48 48 53 60 65 64

GFSSW_850_rhum_066.txt.gz
RH
91 85 84 84 88 86 79 74 77 74 71 73 83 89 77 75 82 99 90 58 81 76 74 73 60 83 91 80 69 71 84 84 73 65 54 53 50 23 20 20 23 39 56 61 72
95 88 87 87 84 77 76 84 74 72 76 62 71 73 80 75 72 78 72 60 73 85 89 82 71 73 93 84 77 82 93 76 54 51 75 69 58 48 22 40 59 55 62 72 72
95 96 96 95 86 82 74 81 91 80 76 75 64 63 66 76 81 72 52 59 48 67 89 76 73 75 92 84 71 70 78 62 56 54 75 65 55 45 26 27 50 57 67 68 65
93 99 100 97 96 98 80 71 85 78 72 70 63 60 69 79 85 85 61 82 91 52 90 91 80 95 88 88 70 69 55 55 54 69 85 70 51 40 27 31 22 24 28 42 42
97 98 98 100 96 99 85 72 87 84 70 71 66 68 81 88 75 60 68 67 74 71 97 97 82 77 87 76 71 71 53 51 51 55 54 61 63 38 27 35 26 38 53 46 48
100 99 96 75 72 76 75 83 88 68 67 74 79 72 74 93 52 64 82 70 81 76 89 86 85 77 71 71 70 62 56 48 58 47 51 62 57 33 29 32 48 56 58 56 53
99 97 84 65 64 70 80 80 67 63 68 75 61 70 75 60 63 74 72 76 84 82 89 80 77 72 62 67 63 55 62 60 57 47 44 45 50 41 29 30 30 29 28 28 30
99 97 88 48 57 52 53 54 64 56 58 62 76 80 72 60 64 68 79 77 80 82 81 78 79 58 64 61 69 69 62 81 51 48 42 36 49 37 32 30 30 30 29 28 26
81 90 82 52 52 71 78 67 49 48 52 63 78 82 61 61 65 66 67 69 72 81 88 94 94 68 64 74 88 85 83 75 58 48 48 42 47 36 29 35 30 30 30 28 26
88 49 68 61 61 70 79 78 63 74 82 89 86 90 62 65 60 56 56 66 74 96 99 99 91 85 78 87 89 78 76 70 60 51 52 51 49 35 31 31 32 30 31 30 27
80 59 56 57 73 77 61 74 80 84 85 79 74 66 67 61 51 69 62 71 74 95 96 97 92 88 78 70 64 67 62 65 56 45 50 56 50 44 37 32 34 29 30 30 26
59 68 50 61 69 65 59 73 75 79 77 61 66 73 68 64 65 80 69 72 85 98 94 99 89 68 68 67 64 66 66 65 46 44 47 50 51 44 40 38 31 31 32 29 28
14 59 52 65 71 77 77 66 78 85 88 85 95 81 76 74 71 87 77 87 91 98 97 87 77 64 66 74 76 67 68 63 52 48 43 51 60 51 46 40 32 30 27 28 29
12 41 53 71 80 85 87 69 85 86 95 100 97 85 93 86 89 84 78 87 93 97 96 82 69 71 76 77 68 75 48 49 52 60 74 45 76 46 47 44 40 33 32 31 30
14 36 54 74 77 84 87 87 98 92 96 94 94 91 92 98 92 86 74 92 91 93 97 97 80 79 81 72 56 60 43 50 58 63 57 56 60 51 46 52 45 39 32 31 34
16 39 61 74 88 89 93 91 98 92 95 99 95 96 92 89 90 92 96 95 83 92 85 92 84 85 79 84 74 71 58 63 66 70 88 64 64 58 52 44 39 38 33 28 45
17 50 66 71 87 98 94 93 89 94 79 98 100 87 92 100 94 88 94 96 96 99 99 96 94 86 84 78 71 69 69 96 94 98 91 60 68 52 39 39 41 48 46 47 50
22 54 69 78 92 99 96 90 88 77 96 80 87 88 97 90 92 92 96 98 82 79 95 92 98 95 86 84 86 82 62 88 87 94 82 54 80 55 42 39 34 38 45 52 56
43 59 68 75 86 97 92 95 84 88 83 92 76 85 100 90 91 90 79 91 84 78 86 94 98 90 85 82 86 94 93 60 69 69 86 68 55 41 50 50 49 48 50 56 59
63 74 68 73 79 97 88 94 95 82 79 83 87 63 91 93 84 79 74 73 82 76 67 82 98 85 87 86 87 92 66 74 90 71 81 71 61 57 58 58 57 60 57 56 58
76 78 75 81 89 84 93 90 86 72 75 77 78 59 57 61 72 69 69 55 58 74 69 76 78 94 91 97 98 96 86 74 69 69 70 67 62 42 52 48 53 54 52 50 58
74 91 83 90 86 88 85 74 66 63 70 78 75 60 53 54 61 73 71 61 50 53 77 66 82 96 90 82 77 82 80 65 87 75 76 67 57 37 44 46 48 49 47 49 54
80 83 82 96 92 88 76 72 74 64 62 60 58 52 49 51 65 68 66 56 53 52 61 60 85 98 97 82 82 97 88 78 71 81 86 76 48 42 44 43 44 48 49 51 55
76 91 68 74 75 83 88 76 79 62 64 51 52 47 49 52 55 67 65 58 51 48 54 53 72 73 84 70 81 88 91 78 80 90 82 80 49 45 50 51 51 49 47 51 59
68 90 82 98 85 81 81 74 63 72 63 51 54 49 52 54 57 69 66 62 54 48 55 57 80 75 72 78 82 74 86 78 82 75 82 61 51 44 49 48 44 42 46 55 63
82 89 80 82 75 86 76 77 75 72 62 63 60 70 54 60 54 68 65 66 63 52 57 69 89 76 82 70 64 65 72 75 68 61 63 62 61 42 38 37 39 40 48 60 64
52 86 87 77 70 80 76 68 72 73 63 60 64 66 61 58 50 48 48 49 52 60 67 69 85 87 82 65 66 73 69 71 69 65 58 68 53 42 45 48 46 47 52 57 61

GFSSW_850_rhum_069.txt.gz
RH
96 97 98 89 90 87 75 73 75 82 79 69 86 84 69 76 81 81 99 72 69 88 85 76 66 78 87 80 74 66 85 73 73 67 60 65 65 42 33 25 37 44 65 63 77
98 98 99 100 99 97 86 71 82 86 71 70 92 85 78 73 77 78 74 75 58 85 95 91 80 69 91 83 81 78 78 66 52 55 69 69 62 57 42 30 76 70 70 76 77
99 94 100 99 99 95 99 82 86 85 84 77 72 79 74 67 73 59 55 64 57 87 99 95 87 66 88 82 80 81 82 58 57 56 76 72 62 60 40 31 59 74 74 77 77
97 99 99 99 89 82 85 77 76 84 85 73 64 71 67 75 69 86 58 61 61 90 87 100 95 76 86 87 74 82 72 56 67 70 78 76 78 71 52 34 34 74 62 66 73
96 98 100 100 91 82 70 66 75 88 75 70 63 58 70 90 65 77 70 92 90 85 85 99 89 81 78 84 75 64 58 53 71 82 83 83 79 76 72 46 38 53 56 64 67
98 98 98 84 81 76 82 83 83 69 67 61 70 69 76 93 62 56 60 69 76 69 71 92 88 74 77 77 78 69 56 72 70 74 61 78 75 74 64 47 34 54 60 51 63
98 99 98 66 46 46 47 57 72 72 71 73 62 68 70 56 62 80 56 68 76 77 70 83 86 73 76 71 68 65 75 70 66 65 72 80 83 89 60 55 48 69 60 63 57
98 97 96 91 50 57 60 44 64 62 72 76 80 78 60 65 63 64 74 78 86 90 75 85 95 71 74 70 71 64 72 86 65 60 63 71 84 77 52 62 35 32 31 31 34
96 82 64 81 63 61 69 70 47 53 52 67 82 85 58 70 68 66 74 75 94 93 74 84 99 75 72 86 87 76 88 77 65 56 50 59 54 52 50 51 34 31 30 29 28
64 68 61 67 68 67 69 73 62 67 81 84 89 90 64 65 60 62 69 82 87 84 85 91 99 85 85 91 82 85 87 68 63 57 50 56 48 38 42 37 34 30 31 29 28
19 31 68 62 70 71 60 77 81 91 86 79 83 72 70 67 56 60 69 78 70 91 94 99 97 81 80 82 68 66 69 67 56 47 55 57 52 45 38 37 37 33 32 31 30
31 16 69 58 68 66 57 68 69 75 71 77 70 72 75 66 64 72 75 69 86 100 89 99 97 64 71 70 66 68 68 68 52 50 53 54 56 46 40 40 34 32 31 30 30
37 15 56 55 74 71 75 62 72 86 87 87 91 85 76 69 65 77 74 81 89 100 99 97 86 67 69 77 75 72 70 66 59 50 46 51 58 52 48 44 39 34 31 31 31
36 18 53 64 82 83 84 73 79 79 98 99 93 87 86 80 77 82 81 82 92 99 97 92 68 73 80 82 73 77 54 53 58 59 73 48 83 55 53 51 46 37 32 30 30
31 22 56 67 77 86 87 84 87 90 95 96 96 96 89 98 89 82 80 83 91 98 99 97 79 81 82 77 60 64 51 53 55 61 58 57 68 60 45 61 47 42 37 34 30
28 38 63 75 84 91 90 88 93 86 96 100 94 94 97 92 93 84 85 93 90 93 92 91 85 79 79 81 60 63 60 64 72 70 89 65 66 68 51 45 38 41 36 35 32
24 53 72 76 90 98 92 88 88 92 79 95 100 95 90 97 91 90 88 96 97 99 100 90 94 88 79 80 73 63 70 96 96 96 92 66 68 52 43 40 40 39 38 35 39
27 59 79 86 94 99 91 85 88 80 94 77 94 88 96 92 96 94 97 96 86 96 100 99 99 92 88 78 80 72 64 89 86 96 85 62 81 60 44 40 36 34 34 32 49
47 70 82 87 91 97 90 91 78 83 80 88 83 100 89 83 94 93 97 97 80 84 82 93 100 88 87 84 81 86 88 58 75 75 88 71 60 43 45 44 44 50 45 48 54
62 77 84 88 88 99 90 91 90 77 78 80 89 64 98 95 89 85 87 80 84 78 65 76 98 86 91 75 83 86 75 78 89 81 89 73 66 52 49 54 58 65 67 63 61
78 80 86 99 98 95 92 92 84 74 74 83 81 67 64 85 80 73 70 64 68 82 69 74 78 93 91 94 82 97 93 78 74 69 72 71 58 47 42 50 58 58 61 61 60
77 91 88 98 92 91 85 73 68 68 76 79 78 69 58 56 68 73 70 64 58 67 78 67 80 91 95 80 74 80 84 74 89 79 82 69 62 35 46 51 50 57 55 56 56
74 80 71 87 94 91 76 73 73 66 66 64 62 54 51 54 68 69 67 56 54 58 69 68 84 97 97 83 83 98 88 75 74 79 87 79 60 40 45 50 51 52 52 52 54
71 85 65 74 75 84 92 77 77 66 64 54 54 49 50 56 65 69 67 59 51 52 55 53 77 74 83 70 82 99 96 87 77 89 84 77 55 39 44 50 52 50 48 49 54
63 96 89 95 83 80 82 80 71 69 61 55 54 60 54 57 60 71 67 62 54 51 61 57 81 77 74 76 79 80 83 86 93 73 80 61 64 42 39 50 49 45 47 54 55
58 68 72 80 82 83 76 79 83 80 70 67 64 72 59 55 53 68 67 65 59 54 61 69 87 75 79 70 66 69 74 88 85 79 79 69 64 41 36 42 47 48 50 52 55
46 77 86 80 81 83 73 72 79 77 68 69 70 69 61 60 54 52 53 52 54 62 71 69 84 83 76 72 64 65 66 78 79 67 66 76 56 43 44 46 43 43 45 46 48

GFSSW_850_rhum_072.txt.gz
RH
89 91 93 96 98 97 98 98 78 80 76 85 78 79 75 82 67 76 87 78 63 93 90 84 69 88 86 82 79 74 81 84 78 70 59 66 63 52 44 36 37 57 73 64 78
85 87 98 98 97 97 82 98 81 77 74 86 87 81 78 73 75 80 70 74 67 75 99 96 68 78 85 84 79 86 78 72 54 58 67 69 60 63 53 40 66 78 76 74 80
84 91 99 99 97 87 83 81 75 66 74 86 88 80 75 68 66 65 70 68 73 82 93 100 93 77 89 88 86 90 78 60 55 62 64 71 75 66 61 40 44 54 99 81 84
89 81 97 100 100 88 69 64 64 75 81 76 74 71 69 66 64 86 96 64 74 89 92 99 95 78 88 93 80 90 85 61 61 75 70 81 79 72 72 53 55 41 83 77 65
98 92 96 96 96 60 90 78 82 76 70 67 67 65 74 72 55 76 74 92 84 95 85 98 93 80 88 82 77 73 63 68 61 73 88 75 74 79 66 53 49 46 60 56 56
98 98 98 99 80 52 47 80 68 64 62 63 75 75 77 84 58 62 60 80 84 80 82 86 85 75 73 80 79 69 59 61 88 81 74 73 70 74 53 50 46 50 68 54 53
91 98 98 97 84 88 73 49 74 63 68 63 60 64 73 59 64 68 57 72 76 76 77 72 90 76 78 81 70 68 87 86 92 88 77 73 82 83 53 60 51 47 71 67 59
98 99 100 96 91 78 74 73 58 56 70 71 78 68 57 64 71 62 66 64 74 75 66 78 91 74 81 75 76 80 80 92 78 79 83 66 84 71 55 60 55 52 46 62 63
100 94 99 95 85 82 70 72 48 50 53 63 70 71 56 70 67 63 73 67 72 67 68 80 90 81 76 89 90 83 94 86 84 62 82 80 78 52 66 64 64 55 49 34 38
99 93 95 93 75 82 68 72 61 56 72 79 78 76 66 70 62 66 84 72 95 88 81 90 94 91 89 92 88 88 90 81 89 78 80 91 81 63 67 70 65 56 46 35 30
98 92 76 96 72 77 66 86 77 89 87 83 83 75 73 63 57 74 79 80 97 99 86 82 97 90 86 78 70 78 75 79 58 64 66 78 72 50 83 76 70 54 44 34 30
91 88 50 92 65 74 60 74 70 67 71 82 77 74 73 65 65 78 86 93 99 87 94 97 100 74 76 75 68 71 74 72 55 58 61 61 68 61 59 62 53 40 37 32 32
77 68 30 69 70 78 70 62 70 79 82 88 85 86 78 72 72 79 78 92 97 98 100 89 90 70 74 81 77 73 79 72 66 58 48 62 74 80 59 58 45 39 33 30 32
43 36 38 66 81 84 84 71 75 74 96 96 85 82 89 82 80 77 76 81 90 92 97 94 82 74 79 83 72 82 60 56 60 66 85 53 89 66 56 48 43 39 39 35 31
32 30 55 73 81 84 86 80 87 82 95 98 90 95 86 93 86 80 80 78 90 96 96 97 93 91 83 79 61 67 57 57 56 64 60 59 73 59 48 54 44 37 39 35 33
32 29 63 78 87 87 87 83 95 83 96 100 96 93 84 83 82 83 82 96 88 94 92 95 76 82 80 75 65 61 63 66 72 68 89 67 70 72 57 46 41 41 37 33 34
28 50 72 81 92 92 87 93 88 90 74 97 100 90 94 100 91 87 86 90 94 99 100 97 97 90 75 84 74 60 73 98 97 96 92 66 72 56 45 41 39 35 33 36 36
30 67 78 88 98 91 92 85 93 78 90 80 89 96 100 96 92 86 87 96 92 100 100 100 99 92 88 75 82 68 64 90 88 96 86 66 83 57 44 41 37 34 32 32 38
56 78 84 90 99 97 91 92 81 81 81 86 84 77 86 92 91 86 90 87 89 93 90 96 100 86 88 85 76 85 91 59 80 78 89 75 61 45 42 44 43 40 44 37 38
68 83 89 93 96 100 91 88 87 73 76 82 91 81 93 85 92 95 91 79 87 84 64 77 98 87 83 78 86 78 69 79 89 84 90 74 68 58 41 41 47 55 62 48 49
76 85 92 94 95 98 92 92 83 74 76 84 84 70 77 88 84 77 76 72 74 81 68 69 78 97 82 89 92 95 94 80 74 71 77 76 60 49 41 38 45 54 60 57 55
76 92 94 100 96 96 87 76 69 72 78 78 79 76 61 60 72 74 72 65 68 73 77 68 76 95 84 79 78 76 86 75 90 83 85 74 68 34 44 48 50 56 60 59 59
71 83 81 97 90 91 79 75 73 69 71 71 62 56 53 59 74 71 67 59 59 70 76 70 85 97 94 79 83 95 84 80 75 82 88 85 67 37 48 50 54 56 57 59 61
66 86 70 80 78 87 87 82 78 69 64 57 56 51 52 61 68 72 69 62 52 55 56 57 78 75 86 70 84 98 87 83 85 94 87 78 60 48 42 43 51 53 51 56 62
54 93 91 92 85 84 83 82 81 77 62 60 57 71 59 60 64 74 69 64 53 58 62 59 82 77 71 76 84 85 84 86 97 80 88 66 65 48 44 41 42 44 49 56 56
52 69 74 78 84 84 76 83 90 85 79 72 74 75 63 57 57 65 66 64 58 56 64 67 83 75 79 73 78 76 80 88 86 82 77 73 77 47 40 38 43 42 52 54 53
49 68 81 82 79 84 74 75 83 80 76 74 78 71 68 67 62 56 56 56 55 62 72 69 82 81 79 75 68 70 70 78 82 77 78 92 66 50 45 46 42 43 46 46 47

GFSSW_850_rhum_075.txt.gz
RH
95 94 98 97 98 98 89 82 83 82 78 73 84 88 91 64 55 69 90 78 78 93 86 86 74 87 95 92 88 83 82 68 64 59 58 64 54 54 44 41 57 87 96 82 85
98 94 89 99 99 94 83 79 60 78 67 73 88 88 81 65 61 58 53 70 79 83 97 98 81 80 87 87 82 78 80 66 57 54 69 66 66 64 50 49 51 47 93 93 93
98 99 95 90 92 92 91 81 60 67 79 89 88 88 76 65 61 58 84 65 79 83 91 99 87 82 86 90 91 83 75 59 59 65 64 69 73 66 58 44 61 61 59 99 99
100 98 94 86 88 83 76 84 75 78 84 84 84 76 67 62 54 84 74 93 76 80 90 90 98 84 90 95 84 85 73 61 61 70 63 77 76 70 66 52 58 51 55 95 100
94 99 94 90 90 69 41 82 75 62 68 69 66 62 64 62 56 66 70 86 86 87 98 83 97 76 84 80 81 77 70 68 73 72 72 74 76 72 64 56 52 46 55 95 95
99 100 98 93 88 73 84 50 78 63 63 69 72 71 67 68 60 65 64 97 99 88 94 90 94 70 73 76 79 73 62 72 82 89 78 69 73 63 61 57 47 47 49 82 77
99 98 98 98 93 90 77 82 57 61 65 65 66 65 65 62 70 60 70 72 87 86 86 81 87 72 80 88 71 72 80 87 83 89 90 74 69 70 56 55 50 49 49 65 77
98 98 92 93 98 84 76 70 68 56 64 68 72 61 56 71 65 62 73 76 82 90 80 75 88 80 84 80 76 77 80 90 84 81 96 77 76 59 55 56 52 50 49 46 61
99 99 99 83 98 80 83 65 63 49 52 57 61 62 62 70 62 59 71 68 82 79 71 69 89 86 84 88 88 85 89 88 95 71 88 79 78 53 50 50 62 54 49 46 41
98 98 99 59 96 91 81 62 67 55 62 70 72 63 67 68 64 56 72 72 79 73 75 78 90 94 92 90 85 95 88 86 78 79 80 77 76 60 68 57 61 57 55 46 46
98 98 95 57 94 78 78 74 73 80 80 73 80 74 72 70 62 78 81 78 82 87 96 83 98 95 84 73 65 75 74 70 75 74 76 82 73 68 71 72 55 61 58 47 46
99 99 78 57 90 77 67 75 71 64 70 79 81 75 72 75 74 87 80 87 98 92 78 90 100 80 77 70 70 70 78 75 58 70 66 78 76 60 76 71 73 70 58 50 46
100 90 43 88 67 74 72 62 67 68 79 90 84 77 82 73 79 87 96 93 98 99 89 82 92 83 77 79 75 74 73 74 67 73 58 67 72 74 66 66 63 68 60 53 49
85 52 35 67 82 82 84 70 72 74 92 89 80 79 80 76 79 89 89 81 99 98 95 84 90 90 81 81 70 80 64 63 68 76 87 62 79 76 67 67 70 63 52 51 48
38 45 46 73 81 84 84 78 80 75 93 98 88 84 84 88 81 78 85 83 93 94 95 98 95 94 84 78 62 72 59 61 63 66 62 63 73 62 61 70 62 64 49 48 42
38 37 65 78 86 86 85 82 87 84 96 100 96 88 79 83 79 79 81 88 87 87 87 94 85 90 73 78 62 61 65 67 73 69 92 69 71 67 54 59 53 46 45 45 39
36 64 73 86 87 86 83 90 87 89 73 99 100 95 86 87 78 83 87 94 88 97 100 96 95 92 81 81 68 62 73 94 94 96 86 67 74 57 46 40 38 36 37 35 36
55 78 81 90 89 84 92 84 84 77 91 78 93 98 100 96 96 77 88 97 87 96 98 97 100 95 83 77 76 65 64 84 87 92 82 70 78 53 43 40 40 36 33 31 29
73 85 90 91 93 87 85 93 80 82 79 86 82 99 100 85 83 85 89 91 91 93 96 99 100 89 90 84 74 78 89 59 79 79 80 68 60 43 39 39 39 38 38 36 34
79 87 93 90 100 96 91 88 87 70 76 81 87 82 94 89 93 98 92 77 96 90 84 84 99 86 86 78 82 72 65 80 86 83 82 68 64 48 37 34 35 36 43 41 40
81 86 98 96 99 97 94 94 81 72 77 85 84 73 87 93 87 88 88 76 80 87 66 70 78 97 76 86 90 88 86 79 70 68 70 72 54 47 40 35 40 40 43 46 45
85 94 99 99 97 99 89 78 70 76 79 78 82 77 62 68 75 75 77 69 72 71 71 67 73 96 98 78 80 82 84 72 86 84 81 69 60 34 37 46 46 51 51 55 47
72 92 90 99 96 92 80 78 74 71 72 74 63 57 55 65 77 74 70 62 70 69 73 70 83 96 91 74 80 93 90 75 76 81 89 79 64 37 43 46 52 54 57 57 56
59 90 79 94 83 89 84 83 78 70 65 60 59 54 53 64 70 73 71 64 58 58 61 58 77 73 82 70 83 95 93 85 85 98 82 73 63 48 44 45 40 48 47 57 61
50 86 88 92 84 85 83 82 80 83 69 64 60 74 65 62 68 77 70 65 55 65 61 62 83 78 67 67 88 90 86 89 91 77 83 65 67 52 47 45 40 35 42 54 64
43 64 70 81 85 86 78 83 92 86 83 76 75 76 65 66 65 68 68 65 59 59 65 66 85 79 80 79 81 82 82 88 86 81 73 68 71 48 48 46 41 39 40 50 56
42 52 60 83 79 86 80 76 80 82 79 75 82 72 75 74 67 60 59 59 57 64 72 68 79 82 81 75 67 71 68 77 83 79 74 84 63 57 59 58 53 46 42 40 45

GFSSW_850_rhum_078.txt.gz
RH
98 96 95 97 99 96 98 89 80 68 75 82 65 76 88 85 75 74 80 82 79 88 82 85 84 85 86 94 89 72 62 52 47 41 38 55 41 53 43 35 71 57 80 93 99
99 96 96 92 99 95 95 87 59 62 61 62 78 88 84 83 79 84 74 59 78 86 90 94 83 83 86 81 79 62 63 48 33 33 46 56 48 58 40 44 46 47 75 98 97
93 98 95 96 98 94 52 80 72 71 75 82 83 83 85 83 82 56 64 82 86 86 93 89 86 87 80 72 74 62 57 38 37 36 53 55 55 62 38 44 50 52 61 100 99
98 95 97 96 97 78 39 83 82 69 67 76 71 63 66 67 56 84 77 65 89 81 82 98 88 74 63 64 66 64 52 44 52 58 57 51 59 53 54 52 57 57 65 97 100
95 96 96 99 95 91 81 52 87 65 57 56 54 53 62 68 55 59 67 72 84 89 81 98 85 60 55 56 64 63 53 53 54 65 62 63 59 54 53 57 56 54 58 92 99
95 93 99 94 98 88 72 86 61 61 62 63 57 58 69 53 56 68 67 79 95 98 81 98 90 55 51 52 59 59 60 52 69 70 68 58 59 57 55 58 51 50 52 67 98
96 95 98 98 97 92 81 74 85 60 65 64 60 54 62 61 70 66 76 74 95 98 91 96 93 72 53 50 55 58 67 62 64 73 62 67 59 56 46 54 48 44 45 52 57
96 96 97 100 97 98 79 84 73 54 63 67 67 52 55 71 63 71 78 70 88 97 87 90 90 83 62 67 60 56 48 83 57 71 80 61 63 40 44 50 45 44 44 48 49
96 96 97 99 90 98 78 81 66 51 53 54 60 60 57 68 69 61 73 86 69 90 83 88 97 86 73 58 63 60 52 49 64 59 73 63 63 39 46 47 44 42 45 48 47
96 95 98 99 84 98 86 73 73 58 60 63 65 64 67 70 64 64 81 77 87 86 87 92 96 85 59 57 63 62 53 52 57 69 64 62 52 50 60 56 40 38 41 47 45
97 98 99 94 96 99 87 72 86 93 90 71 77 73 76 63 59 80 90 81 81 90 95 94 96 90 56 42 35 47 54 59 54 68 61 60 57 51 46 46 42 39 39 42 47
98 98 84 83 99 88 73 80 71 61 66 77 78 79 68 68 74 92 82 78 82 94 87 95 100 74 53 49 44 46 51 51 52 56 55 54 56 45 41 47 47 43 35 40 47
99 78 65 97 84 77 71 61 64 62 66 86 84 87 85 74 74 89 91 90 93 78 98 90 90 68 59 58 50 47 47 50 50 59 54 53 56 49 42 50 49 48 45 44 44
78 50 47 84 87 81 83 68 71 69 88 89 74 80 87 82 74 96 97 88 98 91 87 79 82 82 66 53 43 63 44 47 54 56 57 47 44 41 41 51 48 42 42 47 47
40 42 46 78 82 87 82 75 72 66 80 95 84 81 80 80 74 95 96 88 98 95 84 96 94 95 69 54 44 45 50 47 46 44 52 57 57 34 42 45 42 43 41 46 46
40 41 68 80 87 84 79 79 81 90 95 99 93 73 65 71 69 77 82 95 90 80 85 90 83 88 55 62 52 49 50 53 54 56 68 46 51 36 39 40 35 35 41 46 51
45 68 80 87 88 81 78 89 96 85 73 100 98 76 74 67 66 75 82 75 77 98 100 96 96 83 76 66 53 49 52 82 83 82 60 51 57 38 31 32 31 34 40 40 44
73 78 88 85 85 80 84 77 92 78 97 81 96 84 82 77 82 79 72 80 68 89 100 97 100 95 68 67 64 54 44 57 61 62 48 55 55 37 30 33 36 35 32 37 38
82 87 88 83 85 83 81 92 88 87 75 83 95 100 100 92 78 68 71 72 72 80 84 90 97 88 73 71 60 65 66 46 61 59 57 44 40 29 25 26 29 31 37 37 35
86 92 90 92 94 90 85 85 89 64 72 71 76 76 67 74 75 83 69 64 86 77 75 75 96 84 81 77 63 57 47 65 74 74 57 45 41 26 25 24 24 25 28 34 43
88 94 95 95 100 93 96 85 74 70 73 76 74 77 82 88 73 75 67 77 77 81 76 61 65 94 68 75 62 63 63 60 50 53 46 41 30 25 27 27 31 32 40 44 49
84 96 100 98 95 94 74 68 68 72 77 70 70 59 61 70 64 62 66 63 80 68 69 57 64 92 97 68 65 64 60 49 62 65 60 49 34 24 25 29 39 37 49 60 62
89 100 100 99 91 80 72 72 71 68 66 68 58 52 49 57 67 63 61 61 71 60 57 53 67 89 94 68 66 70 64 58 56 66 77 54 34 27 28 34 41 40 47 57 52
72 89 87 99 89 77 73 74 72 72 62 59 56 50 50 57 57 64 63 58 67 58 61 51 56 58 63 63 59 78 69 66 71 95 56 52 37 32 32 32 33 35 42 52 58
50 78 83 88 70 71 72 73 70 73 66 62 57 61 53 55 58 64 60 55 55 64 56 52 80 68 55 54 77 75 70 69 93 70 73 46 39 34 29 26 31 37 39 46 60
54 60 61 71 78 71 71 78 79 76 74 69 64 61 54 54 54 59 56 53 53 54 54 52 80 75 79 64 68 73 60 61 64 62 58 54 54 36 35 38 42 41 42 45 55
34 44 59 78 68 70 64 69 76 73 78 72 74 61 63 68 65 59 56 55 49 49 54 55 64 71 68 62 62 65 54 56 56 55 57 68 49 39 43 43 48 46 48 46 45

GFSSW_850_rhum_081.txt.gz
RH
98 91 90 95 94 99 72 99 82 59 55 56 60 59 69 81 84 86 80 62 81 86 76 83 83 81 71 69 85 75 89 67 40 39 33 39 32 44 39 29 54 46 65 92 98
99 98 91 96 92 96 47 86 82 63 65 68 68 74 83 83 88 79 67 69 74 76 94 72 76 75 67 64 81 86 86 67 34 28 32 38 33 42 33 34 40 43 61 93 99
97 95 98 92 94 96 62 74 78 67 64 75 74 79 81 82 80 67 78 66 90 95 93 93 73 71 63 51 67 72 78 39 26 23 38 40 46 48 30 35 42 45 52 96 98
89 92 92 92 97 92 80 55 82 64 55 60 60 61 68 89 74 71 73 76 77 89 89 100 89 72 60 50 54 58 53 42 34 42 52 39 42 46 45 44 47 48 63 90 100
90 90 93 98 90 91 85 87 66 61 52 55 55 52 74 64 52 61 63 82 86 72 88 99 85 67 54 44 42 50 37 36 46 48 49 41 36 43 46 49 49 46 60 90 100
92 91 89 96 88 92 86 76 90 58 57 53 49 53 75 49 59 67 72 82 97 84 89 93 93 60 45 39 39 47 42 37 53 46 49 48 47 36 46 48 46 44 48 75 94
92 92 90 95 97 93 88 87 73 66 60 56 45 67 70 52 66 71 75 82 82 95 97 87 84 100 44 39 47 43 53 48 54 56 54 50 47 42 44 48 44 40 42 52 57
89 94 93 94 99 90 94 88 87 68 55 58 56 80 50 65 70 68 66 82 76 87 100 92 91 94 49 38 50 56 47 68 56 49 59 56 55 41 34 44 42 39 39 47 48
90 95 93 95 99 98 96 84 66 62 48 49 74 74 43 67 62 67 76 72 88 78 94 94 91 94 55 50 65 58 60 49 54 49 63 58 50 39 38 37 41 39 37 39 48
96 98 97 98 99 99 95 88 80 60 68 77 80 73 56 59 67 60 78 83 83 74 98 98 98 94 62 52 63 54 39 39 50 56 57 60 53 48 55 48 46 37 37 37 45
95 98 98 99 99 98 95 99 85 87 83 64 61 59 61 66 67 78 77 79 81 90 97 94 97 99 52 35 25 28 31 30 28 41 52 51 49 41 42 45 44 41 36 34 36
88 94 94 95 98 98 96 78 71 71 59 73 74 68 71 73 56 78 75 72 66 100 86 95 99 83 42 32 40 34 50 50 47 46 48 41 41 35 34 39 39 34 34 34 34
82 84 85 88 95 90 93 77 54 53 58 72 75 71 72 81 63 67 85 79 77 93 90 94 91 66 54 43 50 40 41 43 45 46 45 38 41 40 35 34 34 36 34 32 33
50 47 64 80 94 94 89 67 61 78 92 80 65 76 76 74 91 97 80 91 88 88 90 71 82 68 56 42 32 43 29 35 44 55 60 42 36 30 33 34 33 37 38 37 33
38 37 40 74 97 92 92 69 63 78 82 88 71 79 75 71 74 96 96 94 88 82 97 98 93 80 60 43 34 35 33 36 41 45 34 45 48 28 29 32 32 32 35 34 32
37 41 65 79 93 89 80 80 91 90 92 97 79 58 51 57 60 82 90 97 88 88 75 83 80 79 58 41 40 42 44 41 39 40 61 41 40 26 28 29 26 26 29 33 34
53 64 76 86 93 78 80 91 96 87 70 93 83 58 54 60 59 86 94 91 87 94 99 94 95 82 72 59 49 41 47 71 71 75 55 35 37 30 26 25 27 26 27 28 32
71 76 84 82 80 77 94 72 94 76 97 88 75 67 63 58 62 64 65 65 67 84 99 98 98 92 60 57 59 42 39 50 54 52 41 42 46 31 24 26 28 30 28 30 32
78 86 92 81 82 83 85 94 92 92 69 85 82 89 80 70 62 52 60 56 61 67 69 81 98 78 70 60 54 52 57 40 50 43 45 39 31 24 20 20 23 25 29 31 31
97 98 93 87 88 89 85 87 87 61 61 61 78 64 56 59 57 64 54 49 67 65 58 59 97 90 63 65 54 58 38 50 68 65 44 38 32 25 23 24 23 22 23 24 31
100 92 85 88 98 91 92 74 65 61 64 70 62 69 44 54 50 56 47 60 67 67 64 53 58 88 64 95 69 60 60 50 44 48 43 31 26 18 25 27 28 28 34 36 34
93 89 87 95 95 82 61 59 62 64 65 62 59 48 53 54 54 50 54 55 69 63 61 50 59 93 75 57 54 56 46 44 62 55 44 46 33 20 23 26 31 32 41 46 48
76 97 97 98 82 68 61 61 60 61 58 59 52 48 44 49 55 52 53 56 67 57 62 47 66 93 89 63 53 60 50 47 42 68 72 49 31 22 22 26 34 33 35 42 49
75 88 92 99 81 65 61 61 63 64 53 51 46 44 46 48 47 55 57 58 62 56 59 49 52 60 65 60 51 64 52 49 64 93 54 48 36 26 26 29 31 30 29 33 48
58 58 74 85 62 58 60 56 58 60 55 52 51 47 44 49 50 53 53 58 57 61 51 50 75 65 53 48 72 68 57 51 78 69 69 43 35 27 24 23 23 26 33 36 42
48 47 63 58 63 56 67 60 58 65 58 56 52 49 44 45 50 52 49 49 51 51 50 47 77 70 76 51 57 66 53 50 52 52 56 51 47 31 30 29 29 32 35 35 37
35 40 46 63 54 52 51 57 64 63 66 65 60 49 55 65 54 52 50 47 43 46 49 51 58 65 63 51 51 58 50 48 47 44 47 59 44 33 33 33 36 37 42 42 42

GFSSW_850_rhum_084.txt.gz
RH
90 98 97 82 92 88 90 50 93 66 55 58 53 52 55 62 67 74 86 76 75 74 79 75 78 81 77 74 79 85 89 78 59 36 49 30 34 35 32 39 45 59 82 94 82
84 95 95 97 85 90 89 42 85 65 55 65 70 72 75 78 82 80 71 75 74 90 85 73 72 79 78 67 83 85 93 70 45 35 46 34 31 38 34 39 43 56 66 94 88
89 86 88 92 94 86 91 79 75 64 51 60 68 69 73 74 79 70 70 81 73 78 83 75 80 73 76 65 70 86 78 66 53 45 45 37 46 42 41 42 44 46 69 94 96
85 89 90 91 98 86 86 77 75 67 50 49 50 53 58 84 78 74 69 73 86 87 89 78 88 82 71 70 58 76 66 59 58 66 50 43 42 46 43 45 46 50 63 87 99
86 89 89 88 97 73 89 84 83 57 52 56 56 54 68 77 60 57 63 69 75 82 90 90 80 80 70 56 50 62 57 61 59 81 62 50 40 46 49 47 46 49 78 93 94
86 88 92 89 95 90 89 83 82 75 52 51 49 53 87 63 58 64 67 71 69 87 94 91 87 74 68 45 47 49 50 53 58 72 93 58 48 42 47 46 44 45 62 90 89
93 85 91 90 96 98 86 84 89 76 56 52 47 66 73 60 58 66 67 78 63 83 95 96 100 93 91 55 39 38 51 48 79 76 80 55 64 55 46 46 42 40 50 59 89
84 85 93 94 97 99 83 88 84 85 55 52 53 70 69 55 47 60 66 78 74 72 98 97 91 90 95 61 41 58 53 66 59 72 74 61 66 47 44 45 44 40 44 50 51
71 90 96 95 96 99 93 84 78 57 46 45 60 75 56 57 61 59 69 69 86 75 88 100 83 93 85 86 69 66 73 63 62 54 60 65 54 40 38 43 42 40 38 45 47
60 94 97 97 98 98 98 84 75 59 76 86 75 69 69 59 63 58 70 77 82 83 86 96 95 96 90 76 85 71 67 57 58 71 74 67 64 50 49 44 40 41 39 37 42
60 91 99 99 99 98 90 86 94 92 80 65 60 54 51 62 57 64 71 71 81 96 98 97 99 100 82 55 44 51 46 54 47 55 64 66 62 54 52 46 46 45 44 40 37
62 89 93 96 98 98 96 87 73 78 65 66 68 62 64 64 59 70 74 69 67 100 99 97 100 83 64 48 38 38 46 55 64 54 55 58 57 50 41 52 48 46 45 43 38
48 59 74 93 88 80 89 76 72 52 70 66 68 64 66 72 63 69 84 73 83 99 97 98 94 78 71 64 54 37 40 73 72 58 48 45 53 44 36 33 39 40 40 39 38
37 44 51 72 92 93 86 81 54 79 98 78 64 75 75 69 94 95 92 87 75 98 86 90 81 88 80 64 50 60 36 41 47 58 72 47 60 43 37 42 39 37 36 36 35
36 38 46 86 96 86 90 64 60 77 90 82 67 58 70 72 93 95 92 89 72 80 90 95 83 76 64 54 44 53 45 45 50 59 56 57 65 38 36 43 41 36 33 36 37
37 45 69 83 92 92 84 74 82 97 91 88 68 53 52 55 73 94 99 92 88 90 79 90 75 79 84 53 47 52 55 43 42 48 80 50 54 42 40 34 32 31 31 33 35
51 66 88 98 94 78 86 89 99 88 69 80 77 55 49 59 75 91 89 83 95 97 99 92 95 76 73 65 50 45 54 87 89 91 79 39 50 48 31 29 27 26 26 29 32
69 79 82 82 78 79 91 86 87 76 96 71 65 56 64 58 60 54 65 72 66 79 91 96 96 88 69 72 60 54 52 83 65 77 63 39 52 38 27 27 28 29 29 28 31
78 92 92 75 74 80 94 92 88 93 74 76 72 69 69 60 56 50 53 69 75 68 94 90 94 80 73 73 65 59 70 43 67 42 75 56 39 28 24 25 28 28 29 30 30
96 92 89 76 81 85 94 86 90 65 55 58 84 74 56 54 54 60 53 49 68 61 58 57 97 83 81 73 58 62 47 63 86 73 48 50 38 38 31 28 24 25 26 28 31
96 94 87 81 86 93 98 72 63 58 60 61 58 55 47 53 46 52 51 60 60 65 62 54 67 93 75 83 73 69 68 56 53 60 70 56 43 30 35 33 37 38 37 36 30
89 94 88 83 99 78 74 58 59 57 60 58 60 46 45 48 50 49 49 64 65 58 63 52 71 93 77 64 55 61 73 54 88 68 65 60 56 29 35 34 34 39 42 43 44
82 97 88 90 98 81 61 61 55 61 58 57 53 48 44 48 59 50 52 60 64 58 63 53 79 97 87 66 60 70 60 56 60 78 76 75 49 26 28 27 33 34 33 38 39
80 96 98 94 86 76 63 64 67 61 52 50 46 44 46 47 46 57 62 58 61 56 58 56 59 68 90 70 67 72 59 54 72 97 73 71 54 31 28 30 33 34 32 32 41
70 78 78 92 80 66 56 54 58 62 56 50 51 48 45 50 50 54 57 66 62 60 54 58 79 71 61 47 76 74 63 59 79 70 82 60 50 37 32 30 29 28 32 35 37
51 60 71 57 54 60 63 62 50 64 56 55 56 48 45 51 56 54 51 56 59 60 53 52 91 79 84 54 56 73 62 57 56 56 65 63 63 44 38 35 33 33 34 34 36
48 46 50 57 59 60 61 51 51 58 63 62 53 48 56 64 54 53 49 46 46 54 60 59 71 78 81 52 54 72 57 59 55 50 54 68 54 45 44 40 39 40 39 40 39

GFSSW_850_rhum_087.txt.gz
RH
93 96 87 97 96 83 90 87 53 81 51 56 62 62 62 60 67 75 73 54 77 82 77 80 81 73 76 83 80 80 89 82 73 53 53 34 38 36 34 50 55 73 69 64 64
88 87 84 86 89 89 87 92 70 72 49 52 61 65 70 76 75 71 66 84 83 89 74 80 76 80 83 79 78 93 92 77 56 72 63 36 39 35 38 48 76 66 72 79 71
88 78 90 90 86 97 86 86 82 66 50 48 50 55 60 68 77 72 72 68 69 92 74 74 77 93 84 78 77 94 89 65 68 68 69 46 44 37 40 52 49 76 90 90 83
84 90 88 89 85 93 76 85 82 79 49 48 50 48 48 68 85 65 62 67 71 91 74 68 77 99 81 80 69 84 76 70 60 69 69 56 45 47 45 48 48 49 61 87 92
92 89 90 88 85 94 78 86 82 76 57 55 49 48 65 84 72 61 66 66 68 75 71 74 90 98 81 75 66 80 79 79 66 72 68 65 65 49 49 46 53 62 70 89 92
79 97 88 91 87 91 95 83 83 88 71 54 46 45 80 88 60 59 65 69 69 69 84 82 87 87 87 68 69 60 68 63 61 81 67 79 79 74 49 46 62 57 84 90 91
84 92 93 95 95 95 97 74 87 89 76 52 53 57 74 67 61 58 64 76 74 62 85 94 85 99 100 70 52 55 66 62 85 74 70 77 81 81 49 45 50 53 58 88 86
64 93 96 97 91 94 94 69 80 80 71 47 54 65 75 60 54 60 64 78 79 66 64 91 100 95 96 85 62 59 66 82 83 76 72 66 86 59 52 46 44 54 54 62 86
49 83 98 98 97 100 76 85 74 62 46 43 54 81 69 60 63 56 67 72 81 70 75 89 97 92 94 90 78 74 80 74 89 72 77 70 87 70 56 45 43 48 53 50 60
42 82 98 96 98 98 89 81 62 59 75 74 76 74 60 62 60 64 69 71 82 78 76 92 98 96 93 94 81 82 78 66 75 80 73 81 85 81 64 47 44 41 43 49 46
42 86 99 98 97 98 80 84 87 82 76 72 66 61 58 60 48 68 66 70 80 93 96 99 99 100 94 89 79 59 62 62 61 69 78 80 74 68 55 51 50 46 43 44 47
43 75 98 96 97 98 88 83 75 76 74 65 67 68 62 63 68 74 60 72 76 99 98 98 99 83 73 68 68 57 63 63 59 60 60 74 75 62 57 54 45 43 42 40 42
44 54 93 92 82 81 82 82 79 55 77 70 66 67 65 65 78 85 75 76 81 100 100 91 96 77 76 68 58 64 61 80 62 75 75 70 72 60 52 50 44 40 38 38 38
40 42 64 90 90 93 84 84 64 57 98 82 67 71 72 89 87 88 85 90 80 99 96 98 81 78 77 67 61 67 58 75 71 72 95 63 76 58 52 50 56 48 43 44 42
36 39 60 97 91 85 86 71 56 74 91 78 66 62 66 77 83 76 86 87 92 91 94 99 94 89 85 69 61 63 59 72 78 67 73 62 68 51 46 52 48 46 42 39 37
36 49 73 95 94 89 76 63 80 89 93 82 73 63 67 82 88 91 92 92 90 84 79 94 88 87 86 72 68 72 61 58 65 67 79 66 67 60 53 42 45 43 36 35 34
45 66 90 92 85 74 83 90 88 91 70 74 76 58 60 85 88 83 80 93 94 87 98 83 90 79 75 67 73 80 66 95 90 87 79 50 62 58 35 35 37 38 36 34 33
66 78 95 93 83 84 95 92 86 72 86 68 67 60 75 63 62 79 84 85 71 84 89 93 83 91 77 82 78 78 57 82 83 90 68 48 62 44 33 30 30 29 29 30 30
76 81 82 74 74 87 90 94 90 88 78 83 74 76 72 63 64 55 67 83 79 71 85 95 93 79 75 81 73 64 78 48 73 56 80 63 48 33 34 36 33 30 27 28 31
83 87 79 73 77 86 94 82 88 81 70 66 82 75 63 60 61 63 61 59 74 67 68 70 98 81 80 70 60 61 55 65 86 68 58 66 48 44 34 32 30 31 29 29 32
88 94 82 77 80 93 95 78 70 60 62 63 71 70 52 59 56 57 71 65 64 68 67 63 75 94 78 87 80 72 70 61 60 69 71 62 51 38 38 40 46 44 40 35 29
85 100 84 80 93 90 92 67 58 63 61 66 65 66 54 52 51 55 68 73 65 64 66 57 81 86 80 65 64 65 74 69 86 70 73 69 58 32 42 43 41 43 39 35 34
90 98 88 92 97 95 69 66 61 68 68 65 63 50 46 53 62 55 73 69 65 62 70 60 85 97 85 72 65 73 69 69 68 76 79 78 55 31 40 40 38 39 37 38 36
77 98 100 97 92 92 76 78 75 60 58 52 52 46 49 51 50 59 73 66 65 61 57 57 69 72 84 70 74 80 66 64 74 90 77 78 57 39 33 33 32 37 35 35 40
76 88 81 98 94 93 65 69 74 71 60 53 54 52 51 55 56 58 69 72 64 62 56 64 81 76 61 56 77 76 66 66 83 72 80 60 61 45 44 34 35 36 33 34 36
62 80 78 80 71 89 69 67 69 67 62 61 63 50 55 68 65 66 66 69 70 67 59 61 87 81 78 60 60 68 67 67 68 66 72 68 68 47 43 42 43 41 40 36 35
55 54 57 69 77 80 78 65 58 68 66 66 62 60 72 70 61 57 54 49 49 68 68 69 76 83 90 56 58 66 57 64 63 58 60 76 57 50 53 50 42 40 41 42 42

GFSSW_850_rhum_090.txt.gz
RH
51 74 94 88 88 91 92 91 87 61 71 56 58 62 67 70 68 67 56 52 63 76 91 75 80 77 67 80 85 89 98 80 74 53 43 36 40 38 46 54 65 65 67 68 53
54 68 81 90 87 88 94 86 89 81 77 48 51 58 63 66 66 60 63 72 94 73 86 84 68 76 77 79 82 96 90 74 63 73 61 60 40 35 53 65 83 69 68 80 85
52 81 87 90 87 86 92 78 83 85 72 50 49 47 48 58 70 66 68 64 66 70 70 82 74 83 86 78 81 70 86 78 75 75 72 62 45 41 53 56 58 78 72 84 90
51 81 83 88 89 90 95 74 82 87 78 52 54 48 47 63 69 63 60 74 79 77 72 87 76 88 90 79 72 80 78 80 71 72 74 72 59 52 47 49 51 65 71 71 74
54 73 88 84 91 88 94 80 88 80 84 54 51 47 66 78 69 61 60 57 65 67 69 83 77 82 87 83 76 80 72 81 90 72 80 73 77 72 52 53 48 45 71 71 65
54 59 63 83 95 96 90 95 78 82 94 60 52 47 70 84 61 62 60 60 72 68 70 78 75 78 98 94 78 66 67 72 94 82 76 75 75 64 50 68 66 63 64 72 69
53 51 58 81 95 93 97 97 77 88 90 70 57 59 65 56 62 61 59 71 75 70 70 96 92 90 92 80 69 68 79 68 83 87 82 68 70 78 56 62 64 66 74 71 76
55 50 50 88 96 98 96 87 80 78 75 60 55 62 63 60 58 62 56 71 75 77 64 82 98 88 99 92 80 71 78 96 87 90 93 69 78 65 60 53 72 64 77 76 78
56 48 51 74 98 94 91 89 75 61 49 44 64 78 68 61 65 58 60 73 76 84 74 83 96 97 91 94 88 76 92 93 99 83 88 84 84 62 58 67 56 68 64 73 74
55 47 48 54 92 88 95 77 58 69 77 74 74 84 61 64 63 59 68 69 76 80 90 93 99 96 95 98 89 93 84 71 92 89 82 87 86 79 64 63 71 59 60 63 68
54 46 46 47 57 82 86 81 82 76 75 68 66 65 59 58 48 58 71 66 76 88 92 98 94 99 97 93 85 64 67 73 77 82 73 84 76 73 76 73 72 60 53 53 52
54 46 42 41 52 99 87 84 75 72 73 68 68 67 64 67 72 71 71 73 80 100 97 99 96 84 90 82 75 63 66 68 69 66 69 83 81 69 84 83 75 56 48 47 48
50 45 38 40 65 82 85 80 78 64 79 72 71 68 63 75 85 85 80 84 95 100 100 99 89 75 83 85 75 67 66 64 80 79 74 75 81 63 71 70 64 51 44 42 41
46 42 36 64 82 88 84 84 74 56 92 81 68 65 71 82 84 77 84 93 97 100 96 98 82 77 90 74 57 70 57 53 76 90 100 79 89 68 52 57 59 51 48 44 41
45 37 36 71 86 89 83 79 58 75 75 58 68 61 72 81 84 72 84 93 96 97 93 98 87 84 82 77 60 68 61 61 72 82 95 93 94 55 48 58 54 56 47 43 40
43 36 46 86 87 85 80 62 77 79 86 78 70 68 77 79 80 81 87 92 93 92 84 93 85 89 91 77 68 68 72 75 81 90 96 74 79 53 58 58 48 45 43 41 38
38 49 74 88 86 80 67 84 86 87 64 75 73 64 68 87 83 85 84 89 96 87 96 91 95 85 79 77 70 69 82 99 98 98 77 60 73 57 43 39 44 44 37 34 33
52 70 88 88 81 79 89 85 87 75 84 68 71 67 74 64 61 82 83 88 77 80 90 94 96 86 76 89 93 86 81 85 90 89 69 58 76 51 34 32 32 32 32 33 35
71 86 95 93 78 88 83 94 84 85 78 84 74 81 72 64 68 61 71 84 80 81 90 92 92 75 77 79 82 81 76 51 73 69 76 61 48 35 37 38 34 31 30 30 31
70 81 82 77 80 87 90 85 88 73 73 69 82 71 66 60 63 64 66 69 72 71 70 74 98 80 78 67 62 58 53 66 83 70 64 67 59 46 37 38 33 32 30 29 33
69 80 85 78 83 91 97 90 77 66 60 68 74 79 58 61 62 60 78 69 69 71 69 66 76 85 75 82 86 72 67 68 66 70 65 68 58 40 37 40 44 45 38 32 29
89 98 83 83 96 97 95 76 62 67 65 66 66 71 54 56 53 62 82 79 68 66 70 69 78 89 80 67 65 66 75 68 83 69 79 72 55 39 38 45 46 44 35 31 31
97 99 90 90 91 96 85 70 66 71 70 71 70 56 49 56 66 70 78 72 66 69 73 63 86 89 80 66 64 72 68 69 72 78 82 79 54 34 42 46 41 40 40 38 35
77 97 96 100 97 91 83 80 80 63 66 59 54 49 51 54 54 70 76 69 66 63 58 59 76 69 86 71 75 78 71 69 76 90 76 80 56 40 37 39 35 36 38 36 38
70 92 82 96 98 93 75 78 82 76 61 53 56 53 53 62 59 75 78 74 67 65 58 68 85 75 64 59 76 76 72 71 84 74 81 58 65 53 46 43 39 42 40 38 35
78 87 83 85 81 94 86 82 74 70 67 65 64 56 54 67 61 70 75 74 73 67 61 66 89 77 75 61 62 67 66 68 72 69 74 70 72 48 42 45 50 47 41 41 38
59 71 64 84 91 90 82 75 71 72 69 62 58 72 70 66 58 58 56 54 58 71 71 70 78 83 88 67 59 70 57 62 64 61 63 74 54 50 54 53 49 46 44 43 41

GFSSW_850_rhum_093.txt.gz
RH
47 48 44 76 88 89 91 86 91 90 84 65 46 55 63 65 66 63 52 51 47 58 83 88 77 82 80 73 82 83 91 93 81 62 46 35 41 38 41 59 65 58 68 49 58
55 46 44 63 85 88 84 89 82 88 85 63 45 49 54 59 62 58 60 63 88 84 76 76 81 76 85 80 75 93 88 88 62 66 52 58 42 41 60 78 87 77 77 46 56
62 53 49 60 86 89 86 94 76 84 90 72 47 50 48 54 65 66 62 62 75 73 62 52 76 85 82 79 81 81 85 65 66 74 74 65 48 45 61 62 76 89 98 79 66
69 58 54 50 80 87 86 92 76 85 87 77 50 50 48 60 61 59 61 76 72 83 79 70 80 92 89 90 74 92 69 72 76 83 86 74 62 55 51 49 63 60 59 77 70
78 62 58 44 70 87 90 89 84 89 83 89 51 46 59 80 57 60 64 59 62 72 72 76 83 87 87 85 73 81 72 61 84 96 83 81 82 66 57 60 70 60 69 84 93
86 66 57 43 72 90 89 90 95 76 88 93 56 50 57 76 56 62 61 58 68 73 75 70 80 82 82 85 82 64 68 67 72 93 84 83 74 57 57 67 59 66 76 71 70
91 71 58 47 80 92 86 94 95 71 86 89 58 58 59 39 60 63 60 58 68 72 71 64 89 81 77 87 75 68 82 71 75 87 93 80 77 78 66 79 69 60 68 68 70
97 75 58 47 66 81 94 95 70 81 80 71 53 60 59 60 60 61 64 56 71 74 76 83 91 96 98 84 89 79 78 87 74 88 90 90 86 69 64 64 83 72 61 67 66
99 82 59 49 58 59 80 73 71 72 51 45 55 84 70 60 60 65 60 67 74 76 79 86 96 98 97 97 88 82 92 83 86 84 84 94 84 68 71 67 63 75 76 65 59
100 89 60 54 46 44 81 68 56 69 64 66 77 92 63 61 62 61 62 71 70 78 89 97 99 99 99 96 91 76 96 84 78 94 90 90 87 76 76 71 67 61 70 72 59
100 88 59 56 40 42 67 65 73 75 78 66 65 66 60 63 61 59 64 66 71 88 99 92 100 98 100 95 87 66 81 95 88 82 86 88 89 78 79 77 74 67 60 64 56
100 91 58 48 40 58 77 79 73 66 72 68 69 69 65 69 69 72 72 69 82 100 97 98 98 85 83 89 92 75 76 77 82 85 76 86 94 83 83 86 75 66 61 55 58
100 92 54 42 48 72 76 74 72 67 79 73 71 68 63 73 82 74 79 92 95 100 100 89 83 78 87 96 97 77 72 74 82 83 77 80 90 84 79 80 61 62 59 58 53
100 85 50 48 64 76 79 78 74 61 87 65 69 67 70 78 73 75 92 98 99 100 97 90 84 87 97 95 72 79 68 75 84 93 99 83 94 80 66 71 66 54 55 54 52
98 74 44 70 75 82 76 80 62 64 57 44 66 63 73 80 79 76 94 99 97 92 96 98 92 98 98 91 69 75 64 78 79 93 94 95 82 66 59 62 56 56 48 44 45
97 70 43 87 81 82 82 66 60 75 50 76 66 64 76 74 80 85 97 98 96 83 83 93 86 88 92 79 70 69 75 83 94 90 97 96 88 68 59 56 47 42 42 39 41
91 65 47 79 81 82 71 67 84 66 58 60 63 67 70 79 80 87 88 88 98 94 98 91 97 80 83 79 71 75 76 98 96 97 88 73 87 68 49 45 45 47 39 34 35
79 65 91 83 86 72 71 81 72 72 88 68 71 73 78 66 62 75 75 89 80 81 95 97 92 92 79 88 86 86 72 87 91 95 76 68 78 60 35 38 36 38 35 33 34
80 87 97 92 81 71 79 94 73 84 75 81 75 84 70 65 68 64 78 87 83 84 82 92 99 74 78 80 82 74 87 54 71 68 78 74 53 38 38 39 36 35 33 34 34
76 100 100 90 82 92 90 86 91 71 73 67 76 70 65 62 64 66 76 74 78 72 71 75 94 78 75 69 73 67 50 67 81 75 57 68 63 49 40 39 35 34 32 29 31
70 86 100 89 89 88 98 89 83 72 63 72 77 80 67 62 62 73 86 74 73 70 67 68 75 82 70 82 85 70 68 71 69 70 63 73 59 41 39 36 36 38 37 34 30
81 98 90 87 98 97 98 84 67 70 69 67 69 67 55 58 60 79 84 84 70 67 72 71 78 96 85 71 68 69 77 67 80 69 84 70 55 41 44 38 43 44 43 40 37
98 100 100 94 96 96 85 75 67 72 70 74 72 64 51 57 74 78 82 72 70 70 69 62 83 91 77 66 64 70 70 75 74 79 82 75 50 39 47 47 47 45 42 38 38
79 98 100 100 98 86 86 83 83 65 68 66 55 50 53 59 65 77 80 72 68 66 63 62 77 68 81 66 73 77 72 72 76 90 78 79 56 43 38 39 37 36 40 40 37
68 93 86 96 95 91 84 81 85 79 63 58 58 55 56 65 64 80 80 76 68 67 60 68 84 77 66 64 75 74 73 76 87 73 82 64 66 52 50 47 37 36 38 41 39
75 87 81 90 87 95 89 85 80 72 67 66 65 58 57 64 61 74 79 76 69 68 64 72 93 76 77 66 66 67 65 66 74 73 76 76 77 50 46 48 47 46 46 41 40
70 73 65 89 95 95 88 84 73 75 72 60 62 67 66 65 60 59 57 60 61 67 72 73 79 83 86 74 62 68 52 60 63 64 63 72 59 52 57 56 50 44 46 46 44

GFSSW_850_rhum_096.txt.gz
RH
83 66 61 50 71 90 87 83 79 89 99 83 65 53 59 55 54 55 49 50 49 58 94 81 74 80 90 85 78 88 89 83 78 82 65 38 37 34 39 63 64 59 55 53 76
96 79 68 64 70 92 90 80 87 74 97 83 68 53 51 48 48 43 46 55 79 93 78 73 66 77 85 86 76 85 80 71 65 62 56 46 50 38 64 76 70 70 70 59 63
100 91 79 74 88 89 90 86 83 67 83 85 69 52 51 46 56 59 60 87 80 58 61 58 58 76 84 81 82 82 81 61 61 65 77 84 59 53 62 81 68 70 89 59 52
100 99 90 78 82 93 91 88 84 67 89 86 77 52 50 57 51 58 57 80 73 73 77 73 73 87 92 91 80 91 69 67 59 64 73 90 82 65 61 56 60 62 69 77 71
100 100 95 79 72 82 91 88 83 72 86 90 86 52 52 76 52 59 76 66 58 67 79 76 78 88 92 84 81 90 77 70 63 73 83 90 87 80 61 60 62 73 84 61 52
100 100 99 96 82 90 92 86 90 79 75 89 88 57 54 73 45 59 62 61 58 70 75 74 77 77 85 80 85 70 71 68 68 66 90 95 82 80 60 78 67 57 76 90 77
100 100 100 89 84 95 96 85 82 62 72 90 92 60 64 40 55 61 64 61 57 70 74 70 76 90 84 86 70 74 83 69 66 72 84 92 92 82 71 79 86 62 57 72 76
100 100 100 87 73 84 86 84 52 54 75 82 81 61 49 48 60 60 62 62 59 75 77 77 83 99 89 80 85 82 78 93 69 77 81 92 93 71 78 82 88 76 60 61 74
100 100 100 94 73 70 71 69 65 62 67 58 58 72 66 63 61 61 65 66 69 72 75 88 89 97 89 96 91 92 94 95 90 73 89 92 98 82 79 72 72 82 72 65 66
98 100 100 92 73 64 74 69 48 51 52 57 77 89 60 58 59 62 61 61 72 73 86 98 100 98 93 99 89 98 90 87 78 88 84 90 96 79 77 78 76 67 77 72 67
100 100 99 92 76 55 76 57 64 79 89 65 60 63 58 66 67 63 63 68 70 87 98 98 100 98 87 84 80 81 82 90 85 86 87 90 95 86 81 77 76 67 65 69 72
99 100 99 87 73 60 66 66 68 65 68 63 67 69 68 68 72 76 77 75 86 88 88 96 99 79 83 85 88 80 90 84 96 84 85 88 92 89 79 86 75 70 62 58 63
100 100 100 86 64 70 69 71 73 67 76 72 70 73 67 73 80 80 86 91 90 99 92 97 85 78 97 96 95 80 84 92 91 89 85 88 90 88 85 72 74 64 61 58 54
99 100 100 80 68 70 79 74 71 61 82 50 70 67 68 80 69 76 85 98 100 100 98 99 79 77 100 93 73 92 71 81 90 96 99 84 93 90 85 77 69 62 56 52 52
99 100 99 79 69 80 70 73 65 59 44 40 64 65 71 83 81 84 96 100 99 94 98 98 96 97 100 94 76 82 74 76 83 92 91 94 95 76 84 80 67 57 53 49 48
100 100 99 82 74 77 75 68 53 74 42 64 64 64 73 77 82 90 98 100 98 94 88 98 99 95 95 84 78 71 73 84 87 85 91 94 83 74 62 58 51 48 43 46 44
100 100 99 76 78 83 71 55 84 65 51 60 63 66 72 76 75 86 89 90 96 92 96 89 93 84 88 81 79 75 76 97 92 92 87 84 80 59 50 44 42 44 34 34 40
100 100 92 92 81 80 57 77 78 65 83 70 68 68 77 67 63 68 76 92 80 77 95 93 95 96 81 95 94 89 74 88 91 94 80 78 84 56 36 39 42 43 42 43 39
100 99 98 96 86 68 69 94 74 78 72 79 70 72 66 63 71 67 82 88 82 85 78 95 99 72 83 83 80 86 83 56 76 68 88 81 60 37 37 41 41 38 34 37 37
98 100 100 96 87 74 87 88 90 69 72 60 66 69 65 64 67 70 78 76 83 74 72 76 93 74 74 67 70 63 53 68 84 75 58 66 61 55 45 44 40 43 40 34 32
99 99 100 93 96 82 98 89 80 72 65 64 76 77 67 63 64 82 89 75 78 76 69 68 76 81 69 89 87 76 71 72 71 72 64 67 50 41 48 44 38 52 46 40 35
98 100 100 98 95 90 95 88 70 76 72 68 69 60 59 59 73 82 89 88 76 72 75 72 81 99 90 74 71 71 81 66 79 70 85 70 54 38 56 50 49 49 44 40 38
100 100 100 100 97 97 87 79 70 73 72 72 71 64 54 57 74 79 83 71 72 74 72 61 83 90 76 66 62 73 75 75 76 79 82 69 52 41 50 52 43 43 40 39 38
95 99 99 98 96 83 90 86 83 67 68 69 61 55 56 63 75 80 82 73 71 71 67 62 78 67 82 68 74 74 74 75 76 89 78 76 52 46 50 46 40 34 38 38 39
84 94 86 94 94 86 81 82 87 81 66 68 58 56 59 66 70 84 82 77 68 67 63 67 86 80 71 71 74 74 73 78 86 72 81 65 69 57 54 55 49 42 40 40 40
77 92 77 87 82 87 88 86 81 77 72 68 65 58 56 63 59 74 79 76 68 66 67 73 94 75 80 72 69 68 64 68 75 75 78 76 80 59 52 48 48 48 48 46 45
78 78 68 80 95 92 92 86 76 76 74 64 62 66 66 64 61 61 62 65 67 66 75 75 79 81 88 76 62 65 53 59 64 65 64 66 55 62 55 55 52 50 49 48 47

GFSSW_850_rhum_099.txt.gz
RH
99 100 100 90 78 70 91 95 86 79 81 99 82 64 40 43 48 49 45 49 46 55 97 82 71 79 86 89 80 83 86 79 64 65 68 54 48 45 39 61 62 66 52 44 57
96 99 100 98 87 68 82 95 89 82 76 95 83 60 44 44 40 37 41 53 78 90 86 76 69 66 80 89 82 78 80 68 52 53 64 55 55 48 52 63 71 70 63 65 59
100 100 100 100 90 74 73 93 94 86 73 88 84 66 50 46 40 57 64 82 82 63 62 64 58 60 86 79 84 78 83 59 54 54 61 69 70 73 56 58 57 69 86 76 64
99 100 100 100 97 72 70 92 90 85 74 89 89 76 50 50 45 56 67 82 83 73 64 76 68 84 93 82 74 81 66 64 65 59 64 68 74 81 66 55 63 61 67 64 64
89 97 100 99 100 80 70 92 90 87 78 88 94 84 51 60 42 57 80 78 63 58 64 77 77 81 80 85 79 82 75 71 66 62 65 76 78 77 83 65 54 81 72 63 56
84 96 100 100 98 88 74 90 84 94 84 84 99 80 55 61 37 59 62 62 56 63 73 78 75 73 87 84 84 69 60 67 65 72 68 83 74 89 70 70 61 82 78 62 58
62 82 100 100 99 89 86 98 78 92 82 88 98 81 56 40 44 58 62 60 62 57 69 74 74 76 89 82 71 71 79 75 66 62 74 86 79 74 82 78 79 77 64 72 62
84 100 100 100 100 94 72 80 76 88 90 86 89 72 44 44 46 59 60 61 62 61 72 78 84 96 100 83 81 80 74 88 66 58 74 73 81 77 80 81 87 79 61 72 77
78 99 99 100 99 94 79 62 81 94 89 85 74 52 58 59 62 58 64 66 66 68 72 85 96 100 100 97 80 72 89 96 76 56 89 79 91 77 87 74 82 84 66 62 69
80 97 97 100 98 90 83 77 86 79 67 57 61 82 55 56 60 62 63 66 67 74 81 96 99 99 96 99 86 90 83 77 81 79 75 92 97 82 76 77 84 86 93 60 66
63 96 100 100 94 94 87 82 82 97 72 62 60 58 57 64 68 67 67 70 74 86 83 95 100 99 89 80 77 100 69 68 74 81 77 82 87 82 83 84 82 86 83 77 77
76 93 100 100 93 82 94 60 68 62 71 68 68 66 66 68 73 71 77 79 90 78 82 95 100 95 66 69 80 96 77 81 75 78 75 85 84 85 85 84 84 85 80 83 83
99 96 100 100 96 89 82 55 76 66 70 71 69 70 69 72 77 77 79 90 91 92 89 97 89 92 95 84 87 85 82 87 80 86 81 82 88 84 75 90 80 72 73 71 76
100 100 100 100 98 84 84 67 74 66 79 50 72 69 70 80 76 73 86 96 98 100 100 100 96 96 96 89 92 93 75 69 85 88 98 88 88 87 86 90 79 62 62 61 61
99 96 100 100 88 87 74 78 70 60 47 37 65 68 73 85 88 82 87 100 98 98 100 99 96 100 95 85 81 75 76 78 84 87 87 88 88 80 80 88 75 55 53 52 53
97 97 100 98 91 80 77 74 60 73 41 64 66 64 69 82 82 86 97 100 95 98 98 99 98 89 91 87 79 71 81 84 82 80 89 84 67 59 72 75 63 46 45 46 51
98 99 100 96 88 82 75 63 82 65 50 64 68 63 69 73 71 84 84 88 94 95 96 100 98 90 90 86 81 74 72 91 83 88 79 69 71 60 52 58 52 47 38 35 47
97 100 100 98 83 82 68 76 71 61 75 69 67 63 68 68 64 71 80 91 81 81 92 96 98 94 85 90 88 85 69 80 85 87 82 78 73 55 41 46 47 47 46 44 35
98 100 100 96 89 80 77 90 73 74 69 80 62 62 62 61 72 67 82 92 83 87 84 89 99 79 86 84 85 79 79 58 73 68 84 74 57 34 40 41 40 42 43 46 43
100 100 100 97 95 74 88 87 89 66 70 62 55 64 64 65 68 73 82 80 89 79 75 72 98 85 74 81 75 65 54 64 80 71 71 61 59 54 46 43 43 52 50 38 37
98 98 100 100 94 84 98 91 80 72 67 62 72 75 65 66 66 87 94 75 84 81 69 67 77 82 70 89 97 80 74 72 69 68 58 57 52 41 50 49 45 55 50 44 39
98 99 100 100 86 88 91 90 72 76 74 70 68 61 58 61 79 86 92 90 76 78 75 73 81 98 90 73 74 74 82 65 76 68 80 60 53 40 54 54 51 50 45 41 39
99 99 100 99 91 87 88 82 74 75 74 70 71 65 53 65 78 82 83 73 73 75 75 63 81 87 74 60 59 79 79 75 74 73 80 61 52 44 50 49 41 40 41 38 35
96 99 100 98 88 83 92 88 85 69 70 70 61 56 59 71 78 81 82 75 72 71 71 61 80 67 78 68 76 75 79 79 75 81 76 64 50 44 56 58 56 48 43 40 40
98 99 90 97 96 91 83 82 87 80 68 65 60 58 60 68 74 87 83 74 66 67 66 66 86 81 78 74 74 75 77 78 86 72 74 69 65 60 65 65 56 49 48 48 45
85 92 80 78 71 87 86 84 81 78 72 69 65 59 58 62 58 76 78 75 72 65 71 74 93 75 82 70 68 68 65 71 75 76 76 75 72 60 53 56 57 56 56 55 53
78 76 71 76 72 84 78 83 78 76 74 65 62 67 70 66 63 64 66 69 70 67 76 76 79 78 86 75 59 64 57 62 66 67 65 64 59 68 70 70 68 62 65 64 62

GFSSW_850_rhum_102.txt.gz
RH
97 96 100 95 99 99 76 66 95 84 77 73 94 78 55 44 42 45 57 59 48 57 81 87 76 77 77 68 75 71 70 58 39 36 34 28 36 42 42 38 40 58 53 71 58
94 96 97 98 100 100 87 70 95 91 80 65 90 82 57 45 40 35 36 45 70 85 87 70 61 66 60 63 64 64 59 46 32 28 31 29 40 40 43 40 38 48 60 88 67
80 92 94 99 100 100 93 69 82 93 78 68 90 87 69 46 51 52 50 64 95 75 59 67 66 59 58 56 55 52 59 37 37 37 38 43 43 46 44 54 40 36 50 95 69
77 85 91 100 100 99 99 81 86 91 81 68 94 91 72 45 40 60 85 81 84 84 64 74 68 55 54 51 45 58 47 44 42 47 53 53 52 53 51 45 40 62 65 92 81
88 78 84 96 100 100 99 88 80 86 86 77 95 88 71 70 49 54 90 83 79 59 59 67 62 56 48 42 47 46 38 39 48 49 51 53 56 59 62 57 60 70 65 79 74
96 94 93 80 100 100 98 88 74 82 93 75 86 92 75 54 36 47 63 70 66 60 75 77 68 67 59 55 52 35 39 36 46 51 54 49 52 62 58 73 67 66 72 78 74
99 99 100 83 100 100 93 89 73 80 87 76 98 96 83 54 39 58 58 63 60 65 68 74 78 71 70 60 56 51 52 44 43 42 51 46 56 65 66 67 61 59 76 75 76
94 85 94 99 100 100 92 75 84 70 83 76 98 95 65 40 42 57 62 62 60 61 65 78 83 81 85 77 74 64 52 56 36 47 50 65 51 34 71 64 63 62 74 80 86
90 90 91 88 100 99 86 80 70 83 90 89 98 88 52 52 58 64 62 66 72 67 68 87 93 89 99 100 97 60 52 52 41 43 49 72 59 53 77 76 63 60 70 87 84
83 74 72 98 100 96 80 78 78 93 91 88 67 78 66 56 61 59 61 64 72 79 78 86 88 94 100 100 74 53 56 41 51 48 55 71 80 60 63 71 66 60 70 84 90
76 64 99 100 100 90 81 89 70 89 82 68 63 63 56 59 65 70 67 72 76 73 65 62 100 94 96 74 60 82 50 45 47 39 55 56 62 61 64 67 67 66 74 84 80
90 94 99 100 100 87 76 66 63 64 72 62 70 70 65 65 69 76 72 71 73 73 58 92 97 75 64 63 60 99 68 51 55 54 48 65 65 60 60 70 70 71 74 83 95
76 90 94 100 99 89 82 72 71 67 65 72 73 73 71 70 70 73 77 88 78 83 80 95 82 93 88 66 68 86 67 50 63 68 61 61 70 73 62 70 68 74 72 85 99
85 95 100 98 99 94 99 73 72 67 78 55 68 70 76 80 72 74 80 92 96 100 99 100 92 98 92 69 68 70 53 50 62 64 74 75 75 63 72 72 69 76 73 79 86
91 94 100 100 89 93 84 63 73 65 69 49 63 68 74 78 78 80 85 100 100 100 100 99 93 95 93 71 62 50 50 62 63 63 62 68 63 77 80 84 76 71 66 73 70
89 90 100 100 91 87 67 73 67 75 55 77 62 62 67 74 76 85 98 99 99 99 96 96 90 91 78 55 65 68 76 71 61 64 82 72 68 85 88 89 87 62 59 63 66
83 80 100 99 92 86 78 72 89 73 54 66 66 58 53 57 60 72 77 74 87 100 100 100 97 85 81 74 71 71 89 92 79 81 78 61 59 73 61 60 76 64 58 40 55
79 99 100 99 90 79 79 67 80 52 67 59 58 52 56 58 58 58 68 68 61 78 94 94 97 97 82 77 67 63 55 64 65 60 66 60 91 75 44 36 54 68 53 50 42
100 100 99 96 91 86 62 90 76 60 55 60 55 48 55 52 60 55 62 70 66 68 70 72 100 88 73 72 69 60 65 51 59 57 54 56 46 41 33 33 36 41 44 48 48
100 100 100 98 99 80 71 79 80 57 59 54 45 50 50 56 56 57 60 66 72 64 60 66 99 88 79 65 61 54 48 56 62 58 58 48 44 48 39 38 36 38 39 42 44
99 98 100 100 98 71 81 73 71 68 65 54 50 54 53 56 60 66 70 63 68 64 53 56 60 88 70 74 77 59 53 53 48 46 37 40 47 37 38 38 41 39 45 46 45
97 100 100 99 83 70 67 74 70 62 73 64 52 51 50 55 63 65 68 72 69 68 57 57 59 86 74 62 60 62 61 49 53 50 55 34 49 38 42 40 39 40 43 44 45
98 100 100 91 85 69 74 77 72 66 66 62 60 54 48 58 63 68 69 64 68 63 61 50 58 70 62 54 51 62 62 56 53 55 64 41 50 38 37 38 44 42 40 40 45
91 98 99 96 76 57 79 77 68 71 65 63 57 51 54 60 60 66 66 64 71 64 71 53 58 56 57 67 66 63 59 57 62 77 44 43 49 45 44 41 38 42 45 47 48
91 94 95 99 77 69 78 71 68 65 65 59 53 52 53 55 60 65 67 59 56 61 57 51 74 72 63 61 65 62 62 58 81 58 55 52 48 48 45 47 50 52 54 53 55
96 81 78 67 66 72 79 73 58 70 65 59 55 54 50 52 54 55 61 58 61 49 56 53 74 65 64 51 53 56 54 56 57 60 58 56 58 52 52 53 50 57 58 58 59
76 76 65 70 66 76 65 70 63 64 70 65 52 52 58 62 61 66 64 62 59 56 58 57 59 60 70 55 46 48 50 51 54 54 55 47 59 55 52 55 57 62 62 63 65

GFSSW_850_rhum_105.txt.gz
RH
74 82 94 94 99 100 100 96 78 90 82 73 80 94 76 51 38 74 63 58 58 64 62 71 63 59 56 54 54 55 64 51 36 31 25 19 20 26 30 36 34 32 33 62 56
84 72 81 88 100 99 100 99 77 80 82 66 76 88 75 63 45 55 48 37 45 77 79 59 49 51 47 45 46 53 60 44 26 23 23 19 19 20 24 35 34 37 36 66 63
99 92 98 90 94 99 100 99 82 75 82 69 77 86 76 63 62 37 49 38 91 80 71 63 54 48 42 39 42 43 53 35 27 24 26 24 22 28 33 40 45 39 36 64 92
93 98 100 92 86 99 100 99 88 73 67 80 80 89 81 66 44 63 79 93 90 80 70 58 51 43 37 37 36 42 36 35 33 31 37 37 41 37 41 41 33 38 60 64 87
94 99 100 99 89 100 100 100 90 69 81 84 79 88 81 72 51 56 63 90 86 73 52 48 46 37 35 25 26 30 30 32 33 35 37 39 43 45 39 47 57 62 64 61 75
91 97 95 100 93 100 98 98 82 68 87 84 77 79 84 63 44 56 68 73 59 61 54 55 51 46 46 38 36 29 25 25 27 29 38 38 37 40 40 45 59 58 54 58 77
89 91 74 92 83 99 100 94 76 74 82 84 83 92 88 62 45 55 59 58 60 61 55 55 57 56 46 46 42 42 45 33 29 31 35 37 43 41 34 44 55 48 47 57 73
94 77 56 77 100 100 99 92 84 70 58 62 94 98 74 54 52 52 56 60 68 67 69 65 69 62 58 64 58 60 55 59 31 27 31 36 53 28 30 51 50 49 55 54 64
83 59 42 78 94 100 99 86 79 78 76 83 98 94 52 56 55 51 54 60 61 72 77 71 75 66 76 80 82 60 70 50 39 21 30 40 52 29 38 57 50 51 48 45 62
83 42 96 63 92 99 98 84 87 93 91 92 87 70 58 50 58 58 61 61 60 60 68 73 73 75 80 94 76 82 69 40 38 24 30 43 51 45 54 59 55 53 52 52 66
75 41 98 100 100 100 88 92 86 94 94 60 55 54 50 55 61 64 63 67 64 60 58 53 87 81 64 64 79 69 51 45 39 20 44 39 48 42 42 53 52 56 58 57 73
74 46 99 100 98 98 93 78 67 75 75 72 72 66 65 66 60 64 73 69 65 80 60 86 90 56 89 78 91 96 62 53 37 36 38 37 45 37 40 45 46 50 55 60 82
63 55 90 100 100 94 89 83 61 63 54 70 70 65 63 70 60 61 77 74 70 90 98 95 74 87 96 73 70 63 63 53 95 43 36 35 48 50 51 55 55 58 57 64 82
58 82 73 96 100 100 94 80 65 63 81 60 60 63 71 73 71 70 78 81 96 98 100 100 80 93 95 73 51 50 36 73 81 52 67 42 65 63 66 67 53 46 56 73 92
68 84 100 100 95 100 96 69 68 64 71 49 57 70 71 78 66 79 89 99 100 99 100 94 83 92 88 56 44 55 42 50 58 53 64 80 95 77 69 76 65 66 60 80 96
58 86 100 97 97 94 68 66 62 88 69 82 54 61 64 65 61 77 92 98 98 99 96 85 80 81 68 53 48 55 59 93 90 79 64 64 67 90 90 91 85 65 68 80 91
64 80 99 100 97 77 71 74 93 74 44 68 67 53 48 51 51 58 69 95 95 100 100 97 87 73 72 66 74 98 97 93 88 92 71 60 63 100 79 72 84 83 54 81 85
72 84 85 100 99 89 82 68 84 48 57 47 50 48 50 49 49 48 55 94 78 74 77 88 94 96 67 80 93 98 71 78 92 82 71 58 93 98 70 69 92 70 51 62 64
91 100 100 100 97 89 72 85 82 56 45 52 50 46 48 44 49 45 50 61 58 56 88 94 99 71 61 60 60 57 60 47 53 39 57 75 84 70 38 53 73 67 47 51 54
99 99 100 100 99 81 67 73 69 48 49 42 41 40 41 44 45 44 47 54 63 52 59 69 93 69 62 55 51 49 42 57 60 52 57 75 91 86 47 40 48 47 42 43 45
96 98 100 100 98 73 78 65 55 53 59 49 40 41 41 43 47 46 50 53 55 55 46 57 69 77 56 62 71 56 50 42 43 40 36 47 54 38 38 37 36 39 41 42 43
92 100 100 98 90 60 52 66 66 51 61 51 42 41 42 45 47 46 55 56 56 53 51 46 56 75 67 50 47 53 52 42 59 39 38 35 55 35 36 36 34 36 37 41 45
98 99 99 97 83 55 59 63 62 52 53 49 47 42 42 47 50 51 51 56 56 54 56 45 50 75 59 48 43 48 42 40 43 59 54 42 55 32 34 34 36 38 39 42 45
91 99 98 95 62 47 65 61 52 62 55 51 46 43 43 44 44 52 49 52 57 51 64 50 50 54 64 70 60 55 47 42 61 72 42 47 50 40 37 39 40 41 41 45 49
79 80 78 82 64 53 67 54 52 53 55 49 44 43 43 42 43 47 48 43 45 49 47 43 65 70 52 50 58 50 49 46 67 44 54 44 49 46 44 40 43 46 47 48 50
70 65 74 62 56 55 67 60 46 54 53 46 45 46 39 47 48 46 46 44 49 39 44 42 64 60 53 42 44 45 42 42 46 45 45 45 56 42 43 42 44 48 49 50 52
74 64 52 64 52 57 53 54 49 51 58 55 44 41 49 56 51 50 49 48 48 48 45 45 49 55 61 43 39 43 47 44 46 46 47 44 53 43 47 49 50 54 52 48 48

GFSSW_850_rhum_108.txt.gz
RH
99 75 70 73 84 91 99 99 99 85 80 68 56 78 78 67 45 62 76 57 62 61 44 70 64 54 55 53 56 51 67 71 54 44 35 23 21 18 22 26 25 28 34 47 59
99 100 92 84 85 94 99 100 98 91 80 63 53 79 81 64 55 64 50 48 45 35 63 62 50 46 48 45 46 54 71 63 41 33 30 24 22 20 19 24 28 36 35 44 56
98 99 98 98 98 95 99 99 98 92 81 62 56 80 79 62 71 61 48 45 38 58 74 61 54 47 42 40 40 45 62 47 40 33 30 29 34 27 34 39 30 38 36 55 63
95 99 94 98 100 100 100 100 94 97 82 70 66 83 76 65 48 77 43 66 83 74 66 54 48 43 39 37 33 44 36 36 36 35 34 36 37 39 39 42 36 47 50 57 66
93 97 91 96 97 96 100 93 94 94 80 73 74 85 73 69 51 57 79 77 88 72 52 44 44 38 38 29 25 28 28 27 28 31 34 34 37 39 40 43 40 46 55 53 57
84 92 94 92 97 95 100 100 99 84 69 75 80 75 80 56 45 60 67 76 61 60 50 51 48 46 46 40 38 31 30 29 28 28 27 33 38 34 35 36 38 41 58 58 59
75 75 56 82 88 81 99 100 98 80 78 82 72 86 83 51 45 53 62 56 56 59 54 50 51 54 49 46 44 45 54 45 41 34 33 29 40 43 35 34 35 50 51 51 58
81 76 52 57 96 99 99 100 90 82 71 67 87 90 70 58 56 52 55 54 62 62 62 61 61 60 57 58 60 61 60 74 45 40 33 34 54 40 35 32 34 40 49 50 49
81 70 48 37 87 100 100 100 91 67 67 77 93 96 53 50 46 50 50 54 57 66 66 61 61 66 62 79 78 64 85 61 49 35 36 36 50 35 32 32 31 42 43 45 50
77 67 50 94 59 98 100 96 83 88 91 97 84 77 56 49 55 54 55 58 56 60 65 72 66 80 75 90 85 74 72 84 74 39 34 37 48 38 34 34 30 44 46 49 48
75 67 61 99 76 90 100 96 100 96 91 69 56 50 48 54 54 61 58 62 62 58 62 56 93 95 78 69 61 62 83 74 53 32 39 34 63 64 58 53 56 53 52 54 55
61 67 62 100 94 99 95 90 75 74 78 71 62 58 61 61 57 61 63 63 65 83 69 91 97 64 53 66 75 86 86 78 57 48 41 56 61 44 41 46 50 53 55 55 56
66 65 60 98 100 99 92 81 67 70 58 68 64 62 62 67 58 58 69 73 90 99 100 100 77 72 87 87 80 81 74 68 81 76 46 62 81 54 42 39 40 45 49 53 60
68 59 66 88 100 99 96 73 67 71 94 67 63 63 68 70 70 64 78 90 97 100 99 98 73 87 86 80 66 74 48 58 85 89 95 72 85 52 59 71 62 52 57 55 75
75 99 100 88 88 96 92 78 68 66 92 52 58 65 68 74 69 76 82 99 99 98 99 95 89 74 77 63 50 53 56 94 84 98 73 59 86 98 78 76 69 61 56 75 74
59 86 100 100 93 99 88 74 67 92 93 75 58 62 63 66 63 86 94 97 99 99 97 94 76 83 69 63 58 55 84 95 100 100 98 90 99 100 100 94 82 67 72 89 98
54 88 100 98 95 78 71 74 94 92 46 70 68 53 55 57 55 61 90 96 91 100 97 90 87 74 70 81 74 95 100 98 97 98 98 90 93 100 93 83 86 79 73 98 100
58 73 97 98 98 76 77 80 83 48 60 45 49 50 60 47 49 47 82 81 71 68 96 94 86 93 70 85 100 97 97 99 96 97 98 67 97 100 90 90 92 78 84 99 99
74 57 88 98 99 78 87 92 92 74 43 51 50 56 54 47 50 46 59 61 60 58 91 100 93 67 73 68 69 75 95 67 100 57 86 100 99 88 87 87 73 79 86 95 85
60 92 99 98 84 81 91 72 67 47 45 42 48 41 43 44 48 44 54 55 61 52 65 63 88 63 60 58 62 66 49 74 95 89 96 97 98 98 100 98 64 61 66 83 66
77 97 100 97 83 87 92 69 51 49 58 55 45 38 40 44 44 46 55 59 56 57 53 56 76 67 55 67 72 63 64 51 50 48 52 79 96 64 85 82 76 49 48 46 46
97 98 98 91 88 67 70 63 61 51 56 51 47 42 44 44 49 49 57 62 54 52 59 48 63 84 67 48 45 56 49 47 87 70 66 75 88 41 44 42 42 46 47 46 47
98 98 97 98 90 63 56 56 58 52 52 52 47 44 41 47 55 52 49 54 54 57 63 55 65 89 66 58 48 51 47 53 50 79 61 80 88 37 42 44 42 46 50 52 53
84 99 94 92 73 55 60 54 50 59 52 47 44 41 38 43 42 52 50 49 52 50 55 62 62 73 90 76 66 65 54 53 74 79 66 73 59 51 50 52 49 48 49 51 52
72 80 76 89 67 57 63 52 47 53 49 44 42 44 43 46 42 49 44 43 44 43 45 53 72 72 51 51 58 50 53 54 63 54 70 57 65 58 50 52 48 48 49 51 51
75 68 72 60 52 54 70 57 45 49 59 44 49 43 49 58 55 60 53 56 56 48 44 45 71 58 53 42 41 52 49 53 54 51 57 61 65 49 44 45 49 50 50 48 46
70 59 61 59 52 54 57 53 46 50 56 53 51 45 57 60 51 47 45 43 44 54 54 50 61 71 72 50 46 58 51 49 51 52 53 65 58 49 52 50 50 54 52 48 44

GFSSW_850_rhum_111.txt.gz
RH
95 97 99 92 76 82 83 98 100 99 90 82 69 48 64 66 57 48 56 61 63 61 46 66 61 55 57 55 58 58 80 72 72 63 53 34 32 27 26 23 21 27 34 36 36
80 92 95 100 96 95 86 97 99 99 94 83 67 50 68 62 53 59 52 55 52 43 52 70 56 51 51 49 50 60 83 73 53 49 48 38 35 37 37 38 33 32 54 51 47
91 88 92 96 99 99 100 100 100 99 95 84 65 52 72 61 66 65 70 53 33 63 68 62 52 47 44 42 42 50 69 54 51 46 44 42 38 35 41 49 43 48 59 62 58
79 86 91 90 96 92 100 99 88 93 92 89 65 59 68 61 67 64 39 55 59 69 59 52 47 44 44 44 34 46 39 39 40 40 38 41 38 37 37 40 39 43 51 60 62
76 97 92 93 95 89 100 100 99 93 94 82 64 72 61 64 61 59 82 89 64 53 50 45 45 44 46 42 41 36 31 32 31 31 31 28 31 40 38 35 36 38 42 47 52
74 89 93 88 89 91 97 96 100 96 88 74 72 67 66 52 57 54 64 67 66 52 51 50 51 50 46 47 48 47 52 48 45 42 37 37 34 30 31 35 35 33 34 51 55
78 89 90 56 80 90 84 100 100 94 80 70 70 69 72 46 50 57 69 61 57 56 54 60 53 53 57 60 58 55 65 57 50 48 51 40 44 40 31 30 36 35 34 48 52
75 80 75 44 69 100 97 100 93 90 81 65 77 81 67 65 62 53 54 55 58 60 55 61 58 56 59 61 61 66 63 82 51 49 46 49 62 33 31 30 37 36 33 35 44
80 76 70 48 49 99 100 100 99 88 64 80 79 83 65 52 52 49 54 55 61 62 64 61 61 66 66 82 87 76 93 83 67 46 51 57 59 38 31 32 38 38 34 31 45
82 76 59 59 60 93 100 98 69 69 92 89 87 76 58 54 49 49 50 54 59 64 68 66 70 90 84 96 94 87 94 77 81 56 52 56 56 39 31 34 35 32 36 35 44
80 64 81 83 58 88 95 96 100 94 96 72 58 52 51 54 55 56 57 58 59 58 70 70 96 97 88 84 72 74 82 81 67 60 63 59 51 42 35 46 60 61 36 46 47
59 60 88 99 95 98 91 88 87 82 78 68 61 57 58 60 62 62 61 62 66 85 76 91 95 74 66 61 69 98 94 84 66 57 61 65 56 47 41 58 66 72 49 52 55
62 63 67 99 95 98 90 89 80 75 69 62 63 64 63 62 60 65 62 72 84 93 96 97 81 78 86 92 95 87 87 84 85 67 63 59 72 53 41 58 57 61 46 52 54
70 54 55 98 97 96 91 71 72 71 89 70 67 64 66 67 70 66 72 81 87 89 97 93 72 81 84 89 82 91 62 78 94 83 98 70 94 67 61 56 53 53 56 55 56
91 80 88 90 91 96 96 78 66 66 84 57 65 64 69 72 72 80 81 95 98 97 99 83 88 93 77 69 64 73 54 76 93 98 85 68 95 92 92 75 87 77 56 52 66
98 98 97 88 95 90 93 68 63 84 75 68 65 71 74 70 68 88 93 94 99 98 97 96 76 85 73 62 63 66 80 87 100 98 98 78 89 100 100 97 84 76 76 70 70
71 90 80 94 89 90 71 71 86 79 49 70 70 63 63 75 72 81 95 98 98 93 94 94 88 80 72 86 79 92 100 97 97 97 98 100 98 99 98 88 87 91 78 86 96
84 81 80 90 73 70 75 84 78 57 66 49 55 54 68 52 55 64 88 86 79 76 92 91 77 85 74 83 100 100 100 99 96 97 98 92 98 100 94 80 85 84 96 100 100
59 81 82 98 74 69 84 94 89 69 53 55 52 60 61 49 53 54 68 73 63 61 87 90 85 68 74 72 83 91 100 85 100 94 91 98 100 90 91 88 90 99 100 98 89
46 76 99 88 77 79 90 80 67 54 60 51 60 52 52 50 58 51 63 63 68 57 65 74 96 66 60 67 67 84 61 84 96 96 96 97 98 99 99 98 88 93 87 85 75
62 86 88 76 80 84 92 75 59 51 60 64 62 53 49 51 52 58 69 64 61 63 62 63 79 71 58 66 73 77 71 57 58 66 90 93 98 99 100 88 71 89 87 72 54
90 97 81 86 90 84 83 67 60 51 55 59 51 49 53 54 60 55 66 67 57 59 68 55 71 89 67 53 47 55 62 56 86 71 78 87 99 61 87 82 53 55 56 54 53
90 92 85 93 92 87 60 63 60 67 61 56 55 48 44 49 61 54 56 54 54 59 61 59 77 90 74 60 58 69 53 58 61 75 83 88 99 48 52 53 55 57 55 54 54
77 92 82 80 80 67 68 55 61 59 59 50 48 46 46 44 48 55 53 53 51 50 53 62 68 76 90 74 72 69 60 59 70 90 83 85 78 63 62 62 57 54 54 54 51
76 84 78 93 72 67 68 62 52 62 55 50 47 55 55 60 54 59 54 55 49 45 46 58 73 72 57 55 54 55 60 64 71 64 76 73 74 60 60 60 56 53 50 46 42
79 74 70 68 55 62 72 60 51 55 60 60 56 59 64 68 63 68 61 61 60 57 50 55 73 63 59 44 47 53 56 57 62 63 69 70 69 53 52 52 54 51 48 46 44
76 69 66 66 65 66 69 58 53 56 57 54 60 59 64 62 57 52 52 48 47 54 63 57 69 79 77 55 48 61 51 53 52 60 64 70 63 57 58 58 58 58 54 51 48

GFSSW_850_rhum_114.txt.gz
RH
84 78 90 98 100 76 91 86 100 100 96 86 78 54 61 58 46 40 49 55 55 52 65 64 58 58 58 58 59 58 83 89 71 69 62 43 44 36 37 36 34 44 68 56 50
82 77 91 86 99 100 94 89 97 96 97 86 83 54 63 57 46 58 54 74 50 47 52 61 53 53 52 51 51 63 90 78 58 53 56 48 47 44 38 39 41 43 53 67 60
97 84 84 86 90 98 99 93 85 100 97 93 84 58 68 50 57 72 77 72 41 45 66 60 51 48 46 44 44 52 76 56 51 48 46 49 46 39 40 46 37 41 39 60 62
91 78 70 80 86 91 95 100 98 100 91 84 85 61 69 49 67 56 82 85 66 62 60 48 45 45 46 46 38 42 36 36 40 37 37 39 32 34 33 36 35 34 35 38 65
94 80 94 77 83 85 89 99 94 97 89 92 72 64 62 60 68 62 91 78 57 47 46 45 45 46 48 47 43 40 45 48 45 44 40 34 37 36 33 31 31 34 34 34 35
92 82 85 79 65 84 84 99 100 98 99 85 57 66 66 56 66 85 52 61 55 50 52 48 52 51 50 52 51 53 56 52 49 51 50 49 43 37 31 30 29 29 31 33 34
84 84 85 69 78 90 86 93 100 99 88 66 65 65 51 54 61 66 63 68 59 52 58 56 52 51 57 59 59 57 62 57 47 45 49 40 51 48 35 28 28 30 29 30 32
86 83 77 64 69 91 89 100 97 88 82 74 64 65 67 54 58 66 64 59 58 50 56 61 58 55 53 61 61 67 65 82 51 47 47 51 60 42 29 32 30 33 31 30 28
83 80 62 50 56 98 100 99 91 86 70 69 68 64 65 61 60 55 54 55 59 60 60 60 62 64 67 81 85 74 85 85 71 53 56 60 72 51 41 40 35 32 32 38 36
77 67 49 61 59 100 99 98 80 64 81 79 74 59 58 54 50 49 53 55 60 64 67 68 72 90 90 92 88 83 92 83 80 58 55 65 73 57 46 42 35 32 32 34 30
67 62 77 48 46 100 82 81 81 84 82 78 66 58 57 54 54 50 52 58 59 65 78 80 94 97 92 88 70 71 84 89 73 59 66 70 69 59 51 46 41 37 34 39 38
58 97 93 93 85 96 86 84 87 70 74 66 60 57 54 59 61 57 59 62 66 84 79 83 91 76 74 74 81 85 91 82 71 61 64 70 72 58 52 47 43 46 42 39 38
53 99 98 100 100 89 79 76 77 63 60 59 64 66 63 60 63 64 64 67 81 84 91 78 73 72 78 80 85 80 86 86 90 68 71 75 80 66 48 48 46 43 51 59 61
45 82 99 96 92 91 80 70 76 72 87 72 66 65 65 66 75 65 68 76 86 82 81 88 72 80 84 83 71 87 66 74 80 96 95 59 92 71 87 80 54 45 31 38 48
45 87 86 74 87 92 92 72 71 64 71 56 68 66 69 72 73 81 81 86 91 89 92 81 91 90 95 74 68 76 62 70 80 99 97 82 94 82 82 93 92 87 79 58 48
86 79 81 84 88 90 88 63 60 73 72 68 67 71 77 72 74 89 90 90 96 90 88 92 83 85 79 63 58 63 91 87 96 99 100 82 86 99 99 98 89 84 84 82 59
94 90 89 88 97 84 66 64 78 82 49 63 73 74 75 79 74 82 94 98 97 92 92 86 88 79 76 86 82 96 100 97 97 96 96 100 97 100 99 93 86 88 87 98 93
90 79 74 75 76 68 72 72 83 56 63 53 65 64 70 66 70 80 90 91 90 84 87 88 84 87 75 92 100 100 100 98 96 97 96 99 98 99 96 93 95 100 100 100 93
83 72 74 72 65 70 76 91 82 71 61 57 54 61 64 52 56 67 84 76 66 64 86 88 86 63 70 71 89 91 100 94 100 99 88 98 98 97 93 91 90 95 91 100 99
70 65 60 59 67 76 82 81 66 56 61 54 64 56 56 53 57 60 70 66 71 60 66 70 92 66 60 69 74 84 75 95 98 94 96 88 98 98 98 100 96 94 96 98 85
65 67 71 71 72 67 91 78 58 52 60 58 62 57 54 58 58 64 73 64 62 65 66 66 79 74 60 61 70 72 77 65 63 89 97 96 98 99 100 98 97 88 83 80 74
70 92 70 63 66 83 81 66 61 54 57 58 54 53 54 55 63 59 65 64 58 61 68 58 74 91 65 56 52 57 64 64 80 71 81 92 97 81 89 86 82 60 61 60 60
77 77 62 67 88 87 64 60 61 64 62 57 55 50 46 51 60 56 56 51 56 58 57 58 79 89 54 48 56 72 60 62 67 76 89 85 96 55 72 61 60 62 60 55 53
72 89 59 64 81 72 67 56 57 56 62 52 54 48 48 55 53 55 55 50 52 51 55 61 72 74 75 66 70 72 65 66 70 91 87 89 84 67 66 67 62 58 50 42 38
73 80 80 91 70 70 68 61 58 63 56 51 50 63 61 58 58 66 60 60 50 50 52 57 68 70 63 62 58 55 65 73 73 68 74 76 75 68 70 69 61 54 46 42 44
79 78 72 71 66 66 75 60 55 57 62 59 61 62 67 66 64 65 64 59 62 57 60 60 69 66 62 50 49 52 53 58 64 68 74 72 66 54 56 57 57 52 48 49 47
67 76 76 72 71 70 70 63 59 60 57 58 62 66 60 60 60 56 57 57 56 54 63 60 71 81 78 59 54 60 51 54 54 61 69 70 58 60 61 60 60 60 57 53 50

GFSSW_850_rhum_117.txt.gz
RH
94 85 80 84 94 98 84 95 100 98 82 91 83 70 54 53 40 31 40 55 54 49 60 55 45 50 55 61 60 62 86 96 74 74 65 48 51 41 42 38 35 40 43 68 84
97 87 73 81 80 98 90 81 90 100 100 94 87 69 57 50 45 43 58 84 46 40 60 56 53 52 50 51 56 66 93 80 60 56 58 52 50 48 42 41 39 34 34 54 78
96 96 84 91 84 87 94 87 90 96 98 94 88 71 58 45 52 73 81 78 39 46 60 54 50 52 48 46 47 58 81 63 53 46 46 54 51 40 40 47 39 36 33 39 46
92 93 92 76 72 84 86 100 90 100 98 88 86 66 55 48 65 64 85 86 61 66 58 57 52 45 48 45 41 44 40 38 41 40 44 40 34 33 32 34 33 33 33 33 36
98 92 88 84 52 76 86 100 86 97 97 90 82 59 49 59 64 77 94 69 60 51 42 42 42 45 48 50 46 45 49 52 49 46 44 44 44 41 36 32 32 31 32 32 31
97 91 87 87 74 57 78 99 99 99 100 93 70 59 52 74 84 86 63 51 45 39 45 44 52 49 53 55 53 60 61 57 48 45 46 49 41 40 35 32 30 30 30 30 30
93 83 88 82 67 92 61 99 99 98 98 72 66 60 54 88 84 66 67 60 53 53 51 55 53 52 55 58 60 60 65 60 49 44 49 43 59 48 31 28 27 24 32 31 26
88 77 83 68 88 75 84 98 100 99 72 71 63 48 58 63 68 65 60 59 56 51 55 60 56 52 55 61 60 70 65 78 50 51 46 52 60 46 38 43 41 40 36 33 27
84 76 69 51 98 99 99 100 92 83 80 69 64 54 61 63 65 63 62 55 60 59 62 64 64 66 66 79 79 72 82 80 72 54 60 65 77 56 45 48 50 44 42 36 32
74 64 64 72 81 100 98 92 79 76 75 69 56 44 58 53 60 55 54 57 61 63 65 67 72 89 91 91 85 82 89 82 88 60 59 66 73 60 54 55 56 47 42 39 34
51 82 100 91 99 83 87 79 75 65 66 67 61 58 54 48 51 52 53 54 61 66 80 84 94 97 79 84 74 76 84 87 71 60 69 74 74 62 51 54 58 53 46 41 37
90 86 74 95 95 86 90 79 69 62 67 61 55 55 55 57 57 56 58 60 66 83 77 78 91 77 75 79 84 92 86 78 68 63 68 69 70 60 60 58 55 55 49 41 35
96 76 82 72 90 84 77 69 62 57 60 64 66 64 63 62 66 61 61 66 79 83 83 90 73 70 80 80 83 80 81 77 83 74 75 82 86 63 68 59 51 49 44 38 38
96 93 99 96 90 82 68 63 62 62 89 76 65 66 65 66 77 67 65 73 84 75 85 86 73 84 89 88 80 78 61 69 81 94 96 61 94 69 84 88 78 81 80 56 44
94 92 89 86 76 81 70 66 69 63 92 57 68 68 68 73 72 75 77 83 89 86 88 78 90 84 93 84 73 80 59 73 96 99 100 91 96 75 87 88 86 82 82 78 59
79 83 84 91 89 89 70 68 61 73 80 70 67 69 74 73 78 88 91 88 94 93 88 95 79 87 84 70 61 57 75 86 93 99 99 80 92 91 98 97 92 79 83 94 61
86 85 82 83 86 84 69 59 78 85 49 65 74 77 75 76 76 83 90 97 98 98 86 82 85 83 82 92 80 88 100 97 95 96 93 99 98 100 97 94 92 90 96 100 91
100 86 80 68 65 66 66 70 86 60 62 52 65 71 75 72 75 84 90 94 92 92 95 88 78 89 83 91 98 100 100 99 98 96 92 89 97 100 96 94 96 99 100 99 96
84 74 65 65 64 68 58 90 80 70 60 59 57 66 65 59 62 77 93 80 73 88 87 94 87 58 71 76 85 92 100 96 100 96 92 97 94 96 93 96 92 92 97 100 96
67 64 67 68 70 65 80 79 70 59 60 58 63 58 57 55 61 66 73 65 70 66 66 74 93 65 62 69 81 83 78 98 97 97 93 91 97 98 98 99 99 96 97 100 96
55 57 60 63 62 59 89 78 61 53 61 59 63 59 57 60 60 65 65 62 64 65 70 71 82 74 59 60 67 75 77 80 72 89 93 95 97 98 100 99 99 96 94 85 76
51 76 55 51 61 82 80 67 63 59 59 59 56 56 56 56 61 61 65 63 58 63 69 62 77 95 68 53 57 59 64 68 87 69 89 87 96 78 84 86 86 65 64 62 58
58 55 51 51 87 88 67 59 61 63 61 57 56 53 51 53 60 59 55 49 58 59 59 61 81 88 52 46 55 68 61 66 71 76 87 85 88 59 71 80 65 59 49 40 32
56 86 52 57 75 73 81 60 54 56 60 56 55 52 53 54 54 58 61 50 53 54 56 61 74 69 76 61 66 74 65 70 71 89 86 86 80 68 71 71 65 51 43 44 42
66 80 79 90 72 72 75 67 63 63 57 56 54 65 67 59 62 65 62 62 51 52 59 60 66 70 66 70 65 59 60 72 76 71 70 69 82 72 74 71 64 52 45 46 46
70 76 79 74 71 66 72 64 60 59 63 60 62 68 64 63 64 64 66 61 62 58 61 63 65 70 70 56 58 57 54 56 60 69 74 76 72 59 59 60 60 54 50 50 50
67 73 74 75 73 72 70 68 62 64 59 60 65 71 65 59 62 58 58 60 62 62 65 64 71 80 75 66 58 51 54 53 57 63 70 81 60 65 68 66 60 58 57 55 53

GFSSW_850_rhum_120.txt.gz
RH
83 97 81 75 76 65 69 83 94 97 94 90 80 73 58 46 33 34 50 71 59 51 59 51 41 46 57 62 62 64 84 94 75 77 62 52 54 45 45 42 38 37 40 43 46
86 91 82 81 76 71 76 85 86 100 96 92 83 69 59 40 37 50 73 82 45 36 53 51 49 47 48 56 59 71 90 83 64 59 60 53 53 50 46 43 41 38 35 33 36
88 93 88 84 80 78 85 86 82 98 95 94 83 67 54 40 45 81 86 88 33 43 49 48 51 46 46 47 47 67 83 67 54 48 44 44 40 41 43 47 39 38 35 33 32
99 94 92 85 81 86 78 94 93 100 99 98 83 64 43 42 66 83 91 84 54 61 54 52 51 46 50 48 45 48 42 45 47 47 48 50 42 40 35 36 34 34 36 33 33
94 91 98 89 77 56 64 88 95 100 97 92 78 56 40 49 69 95 95 55 54 50 38 42 42 44 50 52 47 48 57 56 51 45 44 43 50 44 42 34 31 31 31 31 30
98 98 97 88 74 69 53 96 95 100 92 87 67 48 42 90 96 96 57 46 40 34 39 37 52 49 55 59 55 64 64 59 45 42 43 48 38 38 32 32 30 25 28 29 31
99 82 76 73 63 73 64 100 94 98 93 79 59 51 65 97 84 66 61 54 50 50 45 53 52 48 51 54 60 61 61 57 46 48 50 49 59 58 37 31 30 28 30 32 29
85 75 72 59 90 72 81 100 100 93 82 64 56 44 84 87 70 59 59 56 55 51 52 57 52 48 54 61 56 70 63 61 43 53 47 48 52 43 37 41 44 42 41 42 35
77 71 59 83 98 73 98 99 97 79 69 61 48 38 63 70 73 65 58 57 60 59 62 63 61 68 65 73 73 71 76 76 70 54 59 63 74 61 46 46 48 46 44 42 38
69 60 57 87 99 100 98 92 74 64 66 59 48 44 62 63 64 56 56 57 61 62 61 65 72 88 92 87 82 80 84 81 85 62 60 69 72 56 52 56 58 56 54 50 39
56 74 98 90 99 91 90 73 54 54 54 63 59 57 53 55 51 54 54 55 62 63 78 82 94 97 79 84 73 84 88 95 72 61 72 75 73 64 53 53 60 60 60 54 48
83 83 91 93 95 94 77 62 59 58 69 57 55 53 52 55 55 55 59 60 67 85 78 81 94 75 74 78 85 95 86 84 72 63 74 75 76 63 60 61 63 61 63 58 52
81 76 90 93 87 82 62 60 60 57 65 66 66 65 62 65 68 60 61 67 78 74 80 90 71 70 83 84 89 93 91 84 84 68 75 87 90 58 54 75 73 69 74 57 48
90 88 93 89 75 74 62 62 59 57 89 75 69 64 64 68 74 65 67 73 83 79 90 92 73 81 90 87 79 90 66 76 80 92 88 71 92 68 85 86 80 76 78 76 81
87 88 90 90 83 62 58 62 61 60 94 58 69 68 65 73 71 74 71 80 86 77 87 75 86 83 90 80 74 78 60 68 84 99 99 88 98 75 83 86 94 84 84 93 76
93 88 86 82 77 58 57 62 52 75 92 72 67 69 73 74 79 85 85 84 88 88 80 84 82 85 76 74 64 58 72 86 92 98 98 82 97 89 98 100 95 84 88 99 67
86 84 81 79 73 60 55 51 78 86 51 68 73 76 75 77 77 89 92 88 92 93 86 76 94 82 85 94 80 85 99 97 91 94 93 96 98 98 98 98 96 97 99 99 100
75 79 69 67 67 63 50 70 87 63 63 54 65 73 77 70 72 85 93 93 92 86 98 99 78 85 84 86 90 100 100 98 98 97 94 80 96 99 96 96 97 94 100 100 99
65 60 61 63 62 58 50 90 80 70 60 62 63 69 65 62 70 82 93 83 73 89 89 97 90 60 85 83 86 91 100 96 100 93 95 92 88 95 88 96 97 98 98 100 100
59 60 58 57 54 54 78 78 71 59 60 59 61 59 59 59 64 78 71 66 69 75 68 78 96 66 63 74 77 86 78 92 96 95 95 88 97 98 98 98 99 99 99 100 97
51 51 51 51 50 50 89 76 64 56 61 61 64 61 59 61 62 67 64 61 64 68 72 75 86 76 61 61 68 72 75 81 84 91 98 96 94 98 100 97 95 89 92 84 62
50 62 52 44 57 82 81 71 65 62 62 62 58 58 58 58 61 63 67 61 58 64 71 67 80 96 67 59 59 60 64 74 90 70 90 86 95 75 79 82 82 65 56 45 39
46 48 50 46 82 85 66 58 61 63 61 59 56 55 53 56 64 62 56 49 58 62 61 62 82 88 55 47 51 67 66 67 77 81 88 89 86 64 69 77 65 55 44 42 37
51 80 47 55 74 74 71 66 54 55 60 59 58 54 56 53 56 60 58 51 53 58 59 62 77 69 76 58 66 78 69 68 76 89 79 83 75 73 71 71 65 50 43 46 43
59 80 83 88 72 73 74 67 61 57 57 58 56 66 69 69 62 62 61 65 53 55 65 64 73 75 73 71 70 73 64 62 80 72 72 62 79 71 75 76 68 54 47 48 50
63 70 75 76 73 66 72 67 61 60 61 58 62 68 66 68 63 64 67 63 64 63 63 67 75 72 74 60 57 63 58 59 65 71 75 75 74 64 60 63 65 59 50 52 53
67 71 70 75 74 69 70 68 64 66 59 59 64 71 68 59 60 59 60 60 63 68 69 70 76 82 64 64 56 42 48 57 59 62 65 75 62 64 70 69 63 59 55 57 55